     2              OBSERVATION DATA    GPS                 RINEX VERSION / TYPE
ASRINEXO V2.4.4 UX USGS 21-MAR-97 11:43                     PGM / RUN BY / DATE
                                                            COMMENT
Original Marker Name: pbb4 PB#4_4545.196_USCE               COMMENT
Campaign Name: usgs.coach.monit                             COMMENT
4-Character Station Name: PBB4                              COMMENT
6-Character Antenna Code: ASHP12                            COMMENT
Vertical Measurement Point: EGP                             COMMENT
Vertical Offset to Rinex Ref. Point: 0.0593                 COMMENT
Radial Measurement Point: EGP                               COMMENT
Radial Offset to Rinex Ref. Point: 0.1425                   COMMENT
Antenna Height from Field Measurement: 1.3280 m             COMMENT
Additional Antenna Identification Info.:                    COMMENT
Ashtech L1/L2 Revision B                                    COMMENT
Original XYZ: -2336817.0116 -4732563.0059 3570328.1872      COMMENT
New XYZ position is based on association with SCEC monument COMMENT
E1D0U7Q9+0011. Position of that monument is believed to be  COMMENT
valid to within 1 m horizontally; vertical accuracy         COMMENT
should be no worse than 3-times this value.                 COMMENT
                                                            COMMENT
Revised Rinex header created by UCSD GPS archive for        COMMENT
GSAC on 11-Nov-1999 (1999:315) 02:50:31 GMT                 COMMENT
For assistance contact dagnew@ucsd.edu or hjohnson@ucsd.edu COMMENT
                                                            COMMENT
PBB4 PB#4_4545.196_USCE                                     MARKER NAME
CHS US GEOLOGICAL SURVEY                                    OBSERVER / AGENCY
591 ASHTECH Z-XII3 1E95                                     REC # / TYPE / VERS
36 ASHTECH GEODETIC P                                       ANT # / TYPE
 -2336565.0000 -4754175.0000  3542826.0000                  APPROX POSITION XYZ
        1.2610        0.0000        0.0000                  ANTENNA: DELTA H/E/N
     1     1     0                                          WAVELENGTH FACT L1/2
     5    C1    L1    L2    P1    P2                        # / TYPES OF OBSERV
    30                                                      INTERVAL
  1997     3    14     1    11   30.000000                  TIME OF FIRST OBS
  1997     3    14     7    29   60.000000                  TIME OF LAST OBS
                                                            END OF HEADER
 97  3 14  1 11 30.0000000  0  7 24 30  4  5  6  9 10
  20972199.296       37388.28649     24701.61049  20972198.8694   20972203.1534
  21678183.027    21678187.623                                    21678200.5644
  23345330.639      148652.28349    101939.16749  23345330.5444   23345334.3154
  20501305.354     -128217.72149    -90998.55449  20501304.8124   20501308.5354
  23909474.846     -236358.92449   -173414.32149  23909474.7154   23909479.7894
  23745171.358      156306.95149    111835.71449  23745171.3904   23745177.6834
  22215548.915     -237501.41849   -164169.44349  22215547.3174   22215552.8534
 97  3 14  1 12  0.0000000  0  7 24 30  4  5  6  9 10
  20974816.701       51141.48449     35418.39349  20974815.9374   20974820.3514
  21658990.638      -32195.91059                  21658990.563    21658993.6734
  23357226.674      211167.80349    150652.55949  23357227.0584   23357231.3384
  20492981.333     -171961.12049   -125084.31649  20492980.5654   20492984.4864
  23890747.333     -334784.11549   -250109.22849  23890746.2914   23890750.0744
  23756078.865      213611.19549    156488.33649  23756075.8314   23756081.7804
  22196238.363     -338980.26549   -243243.81749  22196237.1754   22196241.9074
 97  3 14  1 12 30.0000000  0  7 24 30  4  5  6  9 10
  20977432.602       64889.21949     46130.91249  20977431.9264   20977436.6044
  21639799.652     -472311.82549   -110779.54949  21639799.4994   21639803.0884
  23369080.352      273460.86949    199192.58849  23369080.5224   23369085.0614
  20484692.623     -215518.97649   -159025.49549  20484691.9334   20484695.9934
  23871957.333     -433522.17349   -327047.90449  23871955.9294   23871961.0074
  23766937.215      270678.84249    200956.60049  23766935.6034   23766941.4044
  22176937.653     -440405.03649   -322276.05949  22176936.5364   22176941.4304
 97  3 14  1 13  0.0000000  0  7 24 30  4  5  6  9 10
  20980070.071       78749.58449     56931.19849  20980069.6504   20980074.4244
  21620630.923     -573043.47349   -189271.72349  21620630.8594   21620634.2874
  23380906.764      335608.29849    247619.14549  23380907.4254   23380911.6964
  20476456.883     -258798.02249   -192749.41849  20476456.4844   20476460.3394
  23853125.057     -532483.51849   -404160.58549  23853124.9754   23853129.7884
  23777767.755      327595.05749    245306.85949  23777766.9244   23777772.7404
  22157664.485     -541685.60349   -401195.94149  22157663.3894   22157668.3914
 97  3 14  1 13 30.0000000  0  7 24 30  4  5  6  9 10
  20982749.650       92831.20149     67903.89649  20982749.2254   20982754.2694
  21601502.310     -673565.04749   -267600.20249  21601502.1814   21601505.4664
  23392727.646      397726.32749    296022.79549  23392728.2114   23392731.6154
  20468292.287     -301703.47049   -226182.22649  20468291.7264   20468295.5024
  23834270.179     -631567.02249   -481368.44749  23834269.6784   23834274.7404
  23788588.238      384457.89449    289615.55949  23788587.4544   23788593.3404
  22138435.401     -642734.53549   -479935.32349  22138433.8614   22138439.5104
 97  3 14  1 14  0.0000000  0  7 24 30  4  5  6  9 10
  20985476.451      107160.56849     79069.64449  20985476.3774   20985480.8194
  21582422.547     -773829.67049   -345728.46249  21582422.5204   21582425.9764
  23404549.577      459849.86949    344430.75349  23404549.8374   23404552.7954
  20460205.091     -344202.24549   -259298.14949  20460204.5554   20460208.4954
  23815399.910     -730730.33449   -558638.50249  23815399.1524   23815405.1154
  23799405.157      441301.56749    333909.27849  23799405.1654   23799409.8924
  22119254.922     -743528.05649   -558475.68649  22119253.8894   22119258.8884
 97  3 14  1 14 30.0000000  0  7 24 30  4  5  6  9 10
  20988236.283      121663.41849     90370.56549  20988236.2064   20988240.5624
  21563380.755     -873894.80449   -423701.28649  21563380.8124   21563384.5304
  23416355.010      521887.62849    392771.86349  23416355.0054   23416358.4524
  20452181.578     -386366.01949   -292153.04149  20452181.0304   20452185.2204
  23796500.526     -830046.81049   -636027.91749  23796500.7454   23796505.1724
  23810203.653      498047.34049    378126.72649  23810203.5394   23810208.7984
  22100111.367     -844128.31249   -636865.45149  22100110.9724   22100115.0074
 97  3 14  1 15  0.0000000  0  7 24 30  4  5  6  9 10
  20991051.076      136455.08749    101896.54649  20991050.9284   20991055.3104
  21544398.155     -973648.78649   -501431.64549  21544398.1344   21544401.8124
  23428164.429      583947.36549    441130.07949  23428164.4294   23428168.5374
  20444240.000     -428099.21849   -324672.41749  20444239.3184   20444243.3784
  23777593.481     -929404.43649   -713449.38749  23777593.3154   23777598.0004
  23821003.482      554802.38449    422351.39249  23821002.6634   23821009.1974
  22081028.291     -944410.85349   -715007.64249  22081028.2224   22081032.0504
 97  3 14  1 15 30.0000000  0  7 24 30  4  5  6  9 10
  20993906.264      151459.28049    113588.12949  20993906.1214   20993910.4364
  21525465.218    -1073141.99649   -578958.80849  21525465.2804   21525468.6424
  23439967.713      645974.21249    489462.68349  23439968.1584   23439972.4134
  20436370.547     -469453.53149   -356896.55649  20436370.0054   20436374.0064
  23758669.755    -1028850.03649   -790939.42649  23758668.7664   23758675.4654
  23831796.449      611519.86349    466546.80949  23831795.3114   23831802.0984
  22061997.606    -1044418.42249   -792935.57949  22061996.6184   22062001.2634
 97  3 14  1 16  0.0000000  0  7 24 30  4  5  6  9 10
  20996808.710      166711.62849    125473.08549  20996808.4124   20996812.7814
  21506592.871    -1172316.92449   -656237.96149  21506593.2554   21506596.4594
  23451769.529      707993.30249    537789.22549  23451769.4284   23451774.2354
  20428583.912     -510372.51949   -388781.47949  20428583.3764   20428587.1604
  23739737.316    -1128340.71949   -868464.60349  23739737.2024   23739741.4784
  23842592.130      668251.39749    510753.18349  23842591.3174   23842597.8964
  22043030.239    -1144092.33049   -870603.51649  22043029.6784   22043034.1464
 97  3 14  1 16 30.0000000  0  7 24 30  4  5  6  9 10
  20999762.230      182232.57949    137567.32949  20999762.0574   20999766.4134
  21487783.890    -1271159.12849   -733257.85149  21487783.8874   21487787.2064
  23463572.204      770017.17449    586119.47849  23463572.2874   23463576.4294
  20420882.744     -550842.78249   -420316.74949  20420882.2174   20420886.0564
  23720796.770    -1227873.60549   -946022.63949  23720795.8954   23720801.4414
  23853393.304      725011.65749    554981.90949  23853392.5104   23853399.0194
  22024127.988    -1243424.05249   -948004.81949  22024126.7744   22024131.9474
 97  3 14  1 17  0.0000000  0  7 24 30  4  5  6  9 10
  21002761.492      197993.77849    149848.78849  21002761.3014   21002765.7174
  21469034.396    -1369688.43349   -810033.92249  21469034.8664   21469037.9744
  23475373.970      832035.95849    634445.79649  23475373.6774   23475378.2064
  20413262.338     -590888.31649   -451521.05149  20413261.7934   20413265.8144
  23701845.120    -1327464.82449  -1023626.14549  23701844.5144   23701849.6854
  23864194.805      781773.34349    599211.79649  23864195.0224   23864199.5354
  22005285.528    -1342441.11349  -1025160.93449  22005285.0884   22005290.1814
 97  3 14  1 17 30.0000000  0  7 24 30  4  5  6  9 10
  21005805.369      213989.44849    162312.95049  21005805.3344   21005809.5744
  21450343.179    -1467912.03849   -886571.78249  21450343.4364   21450346.5704
  23487173.243      894040.82549    682761.26449  23487173.9584   23487177.3504
  20405724.412     -630500.21549   -482387.45449  20405724.0214   20405727.9844
  23682881.849    -1427117.10549  -1101277.22149  23682881.4124   23682886.5364
  23874993.195      838519.89749    643429.85649  23874992.3174   23874997.9964
  21986503.571    -1441141.16949  -1102070.03049  21986502.4914   21986508.2854
 97  3 14  1 18  0.0000000  0  7 24 30  4  5  6  9 10
  21008885.555      230176.10649    174925.93549  21008885.2514   21008889.6524
  21431697.239    -1565897.23249   -962923.87249  21431697.4854   21431700.6794
  23498958.491      955971.77949    731019.14449  23498958.8294   23498962.6824
  20398256.743     -669743.38049   -512966.53849  20398256.2514   20398260.0904
  23663896.535    -1526885.57449  -1179018.83349  23663896.5454   23663900.7684
  23885775.163      895179.86249    687580.45849  23885775.5224   23885779.8104
  21967770.024    -1539586.48449  -1178780.63349  21967768.7604   21967774.1044
 97  3 14  1 18 30.0000000  0  7 24 30  4  5  6  9 10
  21012013.334      246612.63449    187733.62749  21012013.1964   21012017.8364
  21413107.354    -1663587.69849  -1039046.29749  21413107.5944   21413110.4844
  23510742.821     1017898.63249    779273.83049  23510743.6414   23510747.0414
  20390868.547     -708568.27049   -543219.69449  20390868.0464   20390872.0454
  23644900.743    -1626709.34249  -1256803.53549  23644900.8864   23644904.9504
  23896549.402      951798.00849    731698.45149  23896549.3134   23896554.1904
  21949096.757    -1637714.83449  -1255244.24049  21949096.0074   21949100.6804
 97  3 14  1 19  0.0000000  0  7 24 30  4  5  6  9 10
  21015192.810      263320.82349    200752.99249  21015192.6454   21015197.0734
  21394578.135    -1760959.58049  -1114920.48149  21394578.1124   21394581.6454
  23522529.675     1079839.18449    827539.18949  23522530.4914   23522533.7264
  20383565.773     -746944.85149   -573123.52749  20383565.2814   20383569.4704
  23625898.727    -1726565.81049  -1334613.75149  23625898.2114   23625902.4684
  23907319.201     1008394.94949    775799.94849  23907318.6084   23907323.7504
  21930491.484    -1735485.95849  -1331429.49749  21930490.1384   21930495.7814
 97  3 14  1 19 30.0000000  0  7 24 30  4  5  6  9 10
  21018423.282      280296.98249    213981.18249  21018423.1484   21018427.7474
  21376111.029    -1858004.61949  -1190539.98249  21376110.9864   21376114.6944
  23534316.756     1141780.42749    875805.08649  23534316.9814   23534320.8334
  20376348.904     -784869.89949   -602675.50849  20376348.4084   20376352.4694
  23606886.956    -1826472.59749  -1412463.13749  23606885.4334   23606889.8394
  23918087.252     1064981.87949    819893.63949  23918087.5134   23918092.1364
  21911954.455    -1832897.88649  -1407334.86549  21911953.6404   21911959.1284
 97  3 14  1 20  0.0000000  0  7 24 30  4  5  6  9 10
  21021705.986      297547.54449    227423.19149  21021705.7564   21021710.0084
  21357710.539    -1954699.89649  -1265886.94249  21357711.0144   21357713.8024
  23546109.300     1203749.80149    924092.91449  23546109.7674   23546112.4504
  20369218.485     -822340.54249   -631873.41449  20369217.8444   20369221.8544
  23587867.091    -1926421.33649  -1490345.22549  23587865.7904   23587870.1184
  23928857.708     1121580.63749    863996.54549  23928857.2874   23928863.7974
  21893487.872    -1929940.34849  -1482952.34149  21893486.8144   21893492.5414
 97  3 14  1 20 30.0000000  0  7 24 30  4  5  6  9 10
  21025042.983      315083.52449    241087.59549  21025042.8364   21025047.1824
  21339382.380    -2051015.28949  -1340937.88649  21339382.6634   21339385.8844
  23557912.833     1265777.59349    972426.25649  23557913.7064   23557917.2394
  20362183.071     -859312.06949   -660682.39649  20362182.4944   20362186.4754
  23568843.302    -2026391.27849  -1568243.85549  23568843.2694   23568847.2074
  23939636.482     1178224.33349    908134.48549  23939637.2844   23939642.9444
  21875098.532    -2026576.94849  -1558253.55949  21875097.7554   21875103.0384
 97  3 14  1 21  0.0000000  0  7 24 30  4  5  6  9 10
  21028430.982      332887.50749    254960.82649  21028430.8804   21028435.1094
  21321124.974    -2146959.13849  -1415699.32649  21321125.3324   21321128.0824
  23569722.265     1327835.87749   1020783.34849  23569721.7814   23569726.4614
  20355240.614     -895794.77049   -689110.47249  20355240.0814   20355244.0214
  23549811.192    -2126405.79649  -1646177.19249  23549810.0764   23549817.4054
  23950421.366     1234897.69549    952295.50349  23950421.6584   23950426.8594
  21856784.231    -2122819.85149  -1633248.00849  21856783.7334   21856788.4404
 97  3 14  1 21 30.0000000  0  7 24 30  4  5  6  9 10
  21031874.359      350982.59649    269060.90749  21031874.2364   21031878.6584
  21302942.474    -2242508.84549  -1490153.62749  21302942.5604   21302945.9234
  23581544.019     1389959.18449   1069191.10949  23581544.4864   23581548.1014
  20348396.446     -931761.15049   -717136.22149  20348396.0894   20348399.8494
  23530778.366    -2226424.19849  -1724113.55349  23530778.2614   23530782.0924
  23961215.823     1291622.18449    996496.38749  23961216.5854   23961219.5864
  21838550.661    -2218638.44949  -1707911.81549  21838549.8774   21838555.1014
 97  3 14  1 22  0.0000000  0  7 24 30  4  5  6  9 10
  21035396.550      369491.99849    283483.81449  21035396.4084   21035400.7604
  21284856.910    -2337549.25649  -1564211.09049  21284857.0404   21284860.3674
  23593402.869     1452277.22449   1117750.59649  23593403.4674   23593406.3104
  20341677.508     -967069.76349   -744649.42449  20341676.9004   20341681.0584
  23511772.036    -2326303.00249  -1801941.13649  23511770.8504   23511776.4814
  23972039.246     1348498.29249   1040815.39449  23972039.3924   23972044.7954
  21820424.209    -2313893.46849  -1782136.47549  21820423.8254   21820427.8764
 97  3 14  1 22 30.0000000  0  7 24 30  4  5  6  9 10
  21038990.968      388380.81649    298202.37849  21038990.6804   21038995.1824
  21266859.843    -2432124.71549  -1637906.24849  21266859.8994   21266863.2554
  23605286.035     1514723.27149   1166409.85649  23605286.1304   23605290.3224
  20335078.798    -1001746.25549   -771670.06349  20335078.2584   20335082.3234
  23492783.521    -2426088.89149  -1879696.30949  23492783.6744   23492788.6934
  23982879.341     1405462.19249   1085202.85749  23982879.4684   23982885.9374
  21802396.756    -2408628.77349  -1855956.16749  21802395.6864   21802400.3254
 97  3 14  1 23  0.0000000  0  7 24 30  4  5  6  9 10
  21042652.753      407623.67249    313196.81249  21042652.6154   21042656.7604
  21248947.751    -2526253.04949  -1711252.98549  21248947.8404   21248951.0514
  23617186.802     1577262.89949   1215142.04249  23617186.0624   23617191.0994
  20328593.390    -1035827.31949   -798226.73549  20328592.9384   20328596.7294
  23473809.696    -2525796.54149  -1957390.54249  23473810.1394   23473813.9184
  23993730.440     1462485.69649   1129636.74049  23993730.5164   23993734.9384
  21784463.563    -2502868.12549  -1929389.39949  21784462.8804   21784468.1704
 97  3 14  1 23 30.0000000  0  7 24 30  4  5  6  9 10
  21046377.156      427195.32849    328447.44849  21046377.0564   21046381.3054
  21231117.164    -2619953.41949  -1784266.24949  21231117.2034   21231120.3274
  23629104.090     1639888.91349   1263941.53649  23629104.4914   23629108.8284
  20322219.900    -1069319.86049   -824324.82349  20322219.2904   20322223.4304
  23454851.373    -2625423.46249  -2035021.86549  23454851.2044   23454855.3104
  24004589.926     1519552.19949   1174104.09649  24004588.5194   24004594.3674
  21766623.244    -2596619.62749  -2002442.48849  21766623.0104   21766627.3004
 97  3 14  1 24  0.0000000  0  7 24 30  4  5  6  9 10
  21050164.901      447099.94949    343957.54049  21050164.8444   21050169.1134
  21213373.083    -2713198.85749  -1856925.01749  21213373.5674   21213376.5184
  23641035.734     1702590.34449   1312799.79549  23641036.4414   23641040.7864
  20315958.915    -1102221.65449   -849962.58649  20315958.3054   20315962.5034
  23435907.567    -2724973.18349  -2112593.04949  23435907.9194   23435912.1174
  24015458.737     1576669.04849   1218610.71149  24015458.0644   24015463.8704
  21748874.558    -2689890.04849  -2075120.72749  21748874.2484   21748878.9254
 97  3 14  1 24 30.0000000  0  7 24 30  4  5  6  9 10
  21054005.786      467284.07449    359685.42549  21054005.4254   21054009.9704
  21195709.133    -2806023.85449  -1929256.17149  21195708.9264   21195712.7454
  23652971.766     1765314.36049   1361675.65349  23652971.8684   23652976.5564
  20309796.681    -1134604.33449   -875195.84749  20309796.1314   20309800.3094
  23416966.907    -2824506.71149  -2190151.58449  23416966.5814   23416970.2884
  24026332.506     1633811.93449   1263137.63349  24026333.0364   24026338.4194
  21731206.043    -2782739.01249  -2147470.51949  21731205.2304   21731209.1104
 97  3 14  1 25  0.0000000  0  7 24 30  4  5  6  9 10
  21057897.125      487733.53549    375620.06749  21057896.7914   21057901.4454
  21178125.276    -2898427.48849  -2001258.98849  21178125.1094   21178128.7574
  23664914.441     1828074.28749   1410579.47449  23664915.1204   23664918.8184
  20303730.929    -1166480.34649   -900034.30749  20303730.7304   20303734.1954
  23398028.619    -2924028.29449  -2267700.82049  23398027.6734   23398032.2634
  24037215.489     1691002.58049   1307701.71749  24037215.3524   24037221.9894
  21713618.910    -2875159.84749  -2219486.72349  21713617.7554   21713622.4574
 97  3 14  1 25 30.0000000  0  7 24 30  4  5  6  9 10
  21061836.893      508437.26949    391752.84649  21061836.7844   21061841.0894
  21160619.491    -2990420.86949  -2072942.12949  21160619.6584   21160623.0314
  23676862.594     1890862.01149   1459504.95449  23676862.7194   23676867.2684
  20297759.590    -1197860.06249   -924486.03049  20297759.0444   20297763.0994
  23379088.050    -3023561.23249  -2345258.89149  23379087.6844   23379091.6464
  24048102.494     1748213.19549   1352281.38449  24048103.3644   24048107.9264
  21696108.549    -2967176.64649  -2291188.08649  21696107.3274   21696111.9684
 97  3 14  1 26  0.0000000  0  7 24 30  4  5  6  9 10
  21065832.155      529432.57649    408112.82649  21065832.0884   21065836.6134
  21143197.509    -3081973.94549  -2144282.18149  21143197.7294   21143200.7764
  23688819.148     1953693.70049   1508464.71149  23688819.9114   23688823.6754
  20291884.403    -1228734.21949   -948543.81449  20291883.8914   20291887.8584
  23360147.179    -3123095.59549  -2422818.06649  23360146.4074   23360152.0164
  24058997.028     1805462.52249   1396891.20549  24058996.4134   24059002.1494
  21678679.454    -3058766.93349  -2362557.11249  21678678.8034   21678683.5684
 97  3 14  1 26 30.0000000  0  7 24 30  4  5  6  9 10
  21069884.063      550725.14349    424704.43949  21069883.8734   21069888.4254
  21125857.762    -3173094.90449  -2215285.51249  21125858.0034   21125861.1374
  23700787.846     2016588.49649   1557473.65449  23700787.5664   23700791.8954
  20286107.381    -1259092.73949   -972199.80449  20286106.7714   20286110.9164
  23341208.391    -3222619.17549  -2500368.85149  23341208.0984   23341213.3654
  24069898.267     1862749.92349   1441530.68549  24069896.9274   24069903.9064
  21661336.399    -3149904.76349  -2433573.57349  21661335.6594   21661340.1764
 97  3 14  1 27  0.0000000  0  7 24 30  4  5  6  9 10
  21073995.488      572330.37549    441539.68849  21073995.4374   21073999.7294
  21108602.383    -3263772.65249  -2285943.48449  21108602.3994   21108605.5144
  23712769.763     2079553.74949   1606537.49649  23712770.3914   23712774.0504
  20280432.456    -1288914.92249   -995437.87049  20280431.9394   20280435.9824
  23322276.154    -3322109.40549  -2577893.64949  23322275.9044   23322280.5034
  24080803.196     1920057.04649   1486185.57749  24080802.4774   24080810.6924
  21644085.319    -3240559.39849  -2504213.51249  21644084.4624   21644089.0464
 97  3 14  1 27 30.0000000  0  7 24 30  4  5  6  9 10
  21078171.787      594276.87249    458640.85849  21078171.4564   21078176.0204
  21091438.612    -3353968.78649  -2356226.17749  21091439.0114   21091441.4824
  23724768.224     2142606.02749   1655669.14249  23724768.1454   23724772.8634
  20274862.779    -1318183.52449  -1018244.57849  20274862.3354   20274866.3974
  23303357.094    -3421529.73749  -2655363.99949  23303356.5424   23303360.4824
  24091713.664     1977392.61149   1530862.60949  24091713.8444   24091719.0424
  21626931.670    -3330701.99949  -2574454.47949  21626930.6674   21626935.7254
 97  3 14  1 28  0.0000000  0  7 24 30  4  5  6  9 10
  21082406.169      616528.74249    475979.98649  21082405.9044   21082410.5104
  21074359.593    -3443719.93049  -2426162.11849  21074359.4154   21074362.8504
  23736776.461     2205709.17849   1704840.43449  23736776.4524   23736779.7074
  20269393.451    -1346925.03949  -1040640.56649  20269392.8314   20269396.8884
  23284445.071    -3520913.27649  -2732805.66649  23284445.5444   23284448.7914
  24102625.350     2034733.17849   1575543.53649  24102627.4584   24102630.5454
  21609873.377    -3420344.28049  -2644305.56449  21609872.2674   21609877.1354
 97  3 14  1 28 30.0000000  0  7 24 30  4  5  6  9 10
  21086694.465      639063.91049    493539.86349  21086694.1954   21086698.7204
  21057365.960    -3533021.65049  -2495747.86649  21057365.7694   21057369.5854
  23748796.409     2268873.37349   1754059.28549  23748795.9114   23748799.5594
  20264026.861    -1375126.42549  -1062615.68349  20264026.3964   20264030.6504
  23265540.696    -3620256.29449  -2810215.75549  23265540.4814   23265544.8664
  24113538.229     2092079.07349   1620228.61449  24113538.7644   24113544.7724
  21592912.130    -3509475.93949  -2713758.76849  21592911.0894   21592915.7294
 97  3 14  1 29  0.0000000  0  7 24 30  4  5  6  9 10
  21091038.107      661890.07449    511326.48749  21091038.0084   21091042.5814
  21040462.148    -3621851.41149  -2564965.85649  21040462.2714   21040465.9904
  23760828.556     2332103.00849   1803329.10849  23760826.2524   23760832.6154
  20258765.672    -1402774.34249  -1084159.51949  20258765.0994   20258768.9694
  23246645.284    -3719551.91649  -2887588.91649  23246644.8634   23246649.6014
  24124453.780     2149440.71749   1664925.98349  24124453.8184   24124460.0664
  21576049.674    -3598088.82949  -2782807.74849  21576048.9024   21576053.7894
 97  3 14  1 29 30.0000000  0  7 24 30  4  5  6  9 10
  21095432.280      684981.88549    529320.10449  21095432.2164   21095436.4714
  21023643.775    -3710232.64649  -2633834.34049  21023644.1544   21023647.4964
  23772868.708     2395376.19149   1852632.84549  23772867.8064   23772871.0674
  20253608.089    -1429877.77549  -1105279.07249  20253607.3794   20253611.4874
  23227753.356    -3818828.62749  -2964947.34049  23227753.8014   23227757.7104
  24135371.231     2206810.30349   1709629.55649  24135371.0304   24135376.7674
  21559279.953    -3686213.93349  -2851476.62449  21559279.0824   21559284.2674
 97  3 14  1 30  0.0000000  0  7 24 30  4  5  6  9 10
  21099878.563      708346.80149    547526.53749  21099878.4084   21099882.8884
  21006909.323    -3798173.18649  -2702359.43349  21006909.8594   21006912.8634
  23784917.865     2458694.43249   1901971.75549  23784917.8744   23784919.8784
  20248558.961    -1456411.14949  -1125954.42149  20248558.6654   20248562.1844
  23208865.845    -3918082.99049  -3042288.35149  23208865.8864   23208870.2124
  24146289.479     2264186.12349   1754337.95349  24146289.2024   24146295.1764
  21542605.337    -3773840.04149  -2919756.68549  21542604.9554   21542609.1224
 97  3 14  1 30 30.0000000  0  7 24 30  4  5  6  9 10
  21104378.368      731993.30649    565952.38349  21104378.4434   21104382.6264
  20990263.181    -3885649.13849  -2770522.50749  20990263.1934   20990266.4204
  23796975.392     2522056.52759   1951344.80449  23796976.0964   23796976.7624
  20243618.522    -1482374.03649  -1146185.24449  20243618.1754   20243621.8054
  23189986.611    -4017294.03549  -3119595.60949  23189986.2774   23189991.0474
  24157208.828     2321567.23149   1799050.47449  24157209.2624   24157214.4934
  21526023.116    -3860980.31449  -2987658.16149  21526022.4754   21526026.9054
 97  3 14  1 31  0.0000000  0  7 24 30  4  5  6  9 10
  21108918.237      755850.52749    584542.43149  21108918.1404   21108922.2734
  20973687.665    -3972753.54949  -2838396.06149  20973687.7584   20973691.0674
  23809020.797                     2000668.28549  23809022.117    23809023.0414
  20238770.453    -1507850.80549  -1166037.27149  20238769.8714   20238773.7064
  23171098.424    -4116551.71449  -3196939.22949  23171098.2124   23171103.0234
  24168111.193     2378861.14749   1843695.04049  24168109.8664   24168116.9714
  21509512.089    -3947746.30549  -3055267.99449  21509511.4354   21509515.8564
 97  3 14  1 31 29.9990000  0  7 24 30  4  5  6  9 10
  21113500.025      779927.91749    603304.03349  21113499.9284   21113504.1294
  20957185.801    -4059471.71849  -2905968.65749  20957186.2524   20957189.3734
  23821055.820     2648599.06759   2049949.43049  23821056.2964   23821059.4234
  20234017.785    -1532826.00549  -1185498.47149  20234017.1414   20234021.2264
  23152205.072    -4215836.78849  -3274304.18749  23152204.5724   23152209.5164
  24178996.919     2436068.16149   1888271.90749  24178997.6084   24179003.1554
  21493073.600    -4034131.22449  -3122580.89549  21493072.7354   21493077.6494
 97  3 14  1 31 59.9990000  0  7 24 30  4  5  6  9 10
  21118129.346      804254.81249    622260.05449  21118128.9944   21118133.6414
  20940765.503    -4145761.24349  -2973207.23749  20940765.6304   20940768.9144
  23833087.992     2711828.89749   2099219.43849  23833088.0464   23833091.2524
  20229364.180    -1557280.58549  -1204553.99949  20229363.4334   20229367.8704
  23133312.013    -4315120.16849  -3351667.83649  23133311.8014   23133316.4394
  24189871.401     2493213.00449   1932800.36649  24189871.2314   24189876.9614
  21476712.993    -4120107.22649  -3189575.16049  21476712.1024   21476716.8484
 97  3 14  1 32 29.9990000  0  7 24 30  4  5  6  9 10
  21122809.145      828847.50249    641423.19049  21122809.2034   21122813.1954
  20924435.826    -4231574.22449  -3040074.48749  20924435.8444   20924439.2744
  23845123.228     2775074.63149   2148501.84249  23845122.6454   23845127.5364
  20224816.195    -1581179.90649  -1223176.84949  20224815.6414   20224819.9094
  23114425.163    -4414371.65649  -3429006.61549  23114425.1164   23114428.8654
  24200741.804     2550336.12949   1977311.86049  24200741.4354   24200747.4504
  21460435.778    -4205644.66349  -3256227.67349  21460434.9904   21460439.4584
 97  3 14  1 32 59.9990000  0  7 24 30  4  5  6  9 10
  21127536.939      853691.96649    660782.50849  21127536.8714   21127541.0894
  20908192.082    -4316935.32949  -3106589.62449  20908191.9804   20908195.5814
  23857160.447     2838330.49849   2197792.11349  23857160.6614   23857163.0904
  20220373.038    -1604529.16549  -1241371.08249  20220372.8074   20220376.4214
  23095539.805    -4513614.32749  -3506338.51549  23095540.2904   23095544.5444
  24211606.200     2607429.57149   2021800.23149  24211606.9034   24211611.3404
  21444246.666    -4290719.32249  -3322519.59149  21444245.8974   21444250.4484
 97  3 14  1 33 29.9990000  0  7 24 30  4  5  6  9 10
  21132310.818      878778.71349    680330.62749  21132310.5864   21132315.0124
  20892034.723    -4401842.37749  -3172750.95349  20892034.5754   20892038.1484
  23869200.183     2901598.73749   2247092.03549  23869201.4964   23869203.3204
  20216030.264    -1627350.86749  -1259154.23349  20216029.3844   20216033.5754
  23076656.461    -4612847.52049  -3583663.04449  23076656.1834   23076660.4214
  24222464.651     2664490.18549   2066263.04149  24222464.5474   24222470.5724
  21428149.646    -4375309.68649  -3388434.12749  21428148.6614   21428153.4254
 97  3 14  1 33 59.9990000  0  7 24 30  4  5  6  9 10
  21137131.188      904110.01249    700069.30149  21137131.1294   21137135.6314
  20875962.117    -4486304.27149  -3238565.41149  20875962.4324   20875965.6094
  23881242.192     2964878.82949   2296401.21049  23881242.1204   23881245.2674
  20211787.234    -1649648.08849  -1276528.70149  20211786.8414   20211790.7754
  23057775.060    -4712069.45749  -3660978.81649  23057774.3554   23057779.8254
  24233320.423     2721538.47349   2110716.21749  24233320.6614   24233325.6214
  21412148.105    -4459398.25149  -3453957.65749  21412147.0594   21412151.7734
 97  3 14  1 34 29.9990000  0  7 24 30  4  5  6  9 10
  21142000.202      929696.62649    720006.92049  21142000.2384   21142004.4014
  20859973.810    -4570323.40449  -3304034.85149  20859974.1104   20859977.1234
  23893287.153     3028176.40049   2345723.98249  23893286.1324   23893289.3284
  20207644.623    -1671418.19549  -1293492.42849  20207644.3694   20207648.0824
  23038897.589    -4811270.66449  -3738278.41649  23038897.6234   23038902.2634
  24244176.576     2778587.23449   2155169.79349  24244175.6064   24244182.0794
  21396244.328    -4542972.64949  -3519080.54049  21396242.9494   21396247.9824
 97  3 14  1 34 59.9990000  0  7 24 30  4  5  6  9 10
  21146921.813      955559.71349    740159.96749  21146921.6014   21146925.9424
  20844071.304    -4653891.40149  -3369152.75849  20844071.3804   20844074.9034
  23905337.228     3091501.00049   2395067.82249  23905336.3804   23905341.5004
  20203598.526    -1692680.69349  -1310060.61249  20203598.1304   20203602.1084
  23020026.973    -4910436.66849  -3815550.58949  23020026.2274   23020030.9294
  24255031.574     2835631.93549   2199620.15049  24255030.5524   24255035.7414
  21380439.726    -4626026.07249  -3583797.47649  21380438.3714   21380443.6024
 97  3 14  1 35 29.9990000  0  7 24 30  4  5  6  9 10
  21151895.127      981694.81249    760524.98249  21151894.6184   21151899.7774
  20828258.792    -4736986.59949  -3433902.25149  20828258.9164   20828262.0104
  23917391.805     3154850.10349   2444430.74649  23917392.0244   23917396.7044
  20199649.562    -1713432.67049  -1326230.98249  20199648.7844   20199652.9644
  23001166.034    -5009550.79649  -3892782.33749  23001165.7744   23001170.0974
  24265884.834     2892666.11949   2244062.36349  24265884.9874   24265891.6134
  21364732.912    -4708565.85649  -3648114.16249  21364732.1544   21364736.5224
 97  3 14  1 35 59.9990000  0  7 24 30  4  5  6  9 10
  21156917.935     1008090.15249    781092.77749  21156917.7314   21156922.1014
  20812540.109    -4819588.57549  -3498267.41749  20812540.4384   20812543.5464
  23929452.564     3218230.12449   2493817.77749  23929452.9744   23929457.2074
  20195803.862    -1733641.78949  -1341978.34449  20195803.2564   20195807.4644
  22982317.574    -5108598.81549  -3969962.56649  22982317.4934   22982322.4564
  24276735.873     2949688.48449   2288495.31949  24276736.9954   24276742.7774
  21349126.301    -4790578.73849  -3712020.27549  21349125.4384   21349130.1374
 97  3 14  1 36 29.9990000  0  7 24 30  4  5  6  9 10
  21161986.765     1034726.48749    801848.36649  21161986.6224   21161990.8414
  20796915.764    -4901695.19649  -3562246.58949  20796916.1854   20796919.3024
  23941516.946     3281627.70449   2543218.46549  23941515.7544   23941521.4174
  20192059.370    -1753319.15549  -1357311.35349  20192058.6694   20192062.6994
  22963478.669    -5207598.50149  -4047105.14749  22963479.0444   22963483.3414
  24287577.873     3006661.78549   2332890.10349  24287578.8994   24287583.3254
  21333618.668    -4872071.82549  -3775521.35649  21333617.6244   21333623.0254
 97  3 14  1 36 59.9990000  0  7 24 30  4  5  6  9 10
  21167097.006     1061580.80549    822773.81249  21167096.6444   21167100.7214
  20781383.002    -4983320.85849  -3625850.99349  20781383.3984   20781386.4314
  23953579.936     3345019.77949   2592614.85749  23953578.7434   23953584.0564
  20188415.961    -1772465.56749  -1372230.63849  20188415.4414   20188419.2324
  22944644.212    -5306574.49949  -4124229.28249  22944643.9244   22944649.4344
  24298406.000     3063562.37049   2377228.19249  24298405.1844   24298411.1664
  21318207.692    -4953056.53849  -3838626.30349  21318206.7334   21318212.0324
 97  3 14  1 37 29.9990000  0  7 24 30  4  5  6  9 10
  21172246.340     1088640.91349    843859.61649  21172246.1494   21172250.4624
  20765941.344    -5064467.37149  -3689082.03249  20765941.6284   20765944.5314
  23965642.654     3408410.94949   2642010.50949  23965641.4324   23965645.3974
  20184879.115    -1791051.75449  -1386713.38349  20184878.8194   20184882.7194
  22925812.005    -5405538.19649  -4201343.82749  22925811.8014   22925816.9284
  24309220.368     3120392.08149   2421511.07749  24309218.9084   24309226.3804
  21302896.233    -5033518.27249  -3901323.73549  21302895.1934   21302900.4834
 97  3 14  1 37 59.9990000  0  7 24 30  4  5  6  9 10
  21177436.434     1115915.15749    865112.27049  21177436.1864   21177440.3284
  20750589.720    -5145140.84949  -3751944.47049  20750589.9754   20750593.1284
  23977705.502     3471801.68549   2691405.85449  23977706.5194   23977708.7994
  20181449.549    -1809074.60749  -1400757.17349  20181449.1044   20181453.1914
  22906977.174    -5504515.66849  -4278469.08949  22906977.0704   22906981.5374
  24320022.983     3177160.25549   2465745.99349  24320023.3684   24320029.0174
  21287683.477    -5113461.72049  -3963617.30949  21287682.6144   21287687.5114
 97  3 14  1 38 29.9990000  0  7 24 30  4  5  6  9 10
  21182674.251     1143440.33749    886560.46149  21182674.0704   21182678.6614
  20735328.926    -5225336.93549  -3814434.91949  20735329.0704   20735331.9494
  23989770.128     3535200.80549   2740807.75549  23989771.4574   23989774.5424
  20178126.998    -1826534.76949  -1414362.49849  20178126.3544   20178130.6534
  22888139.039    -5603510.87549  -4355608.16649  22888139.2214   22888142.8384
  24330815.680     3233876.94549   2509940.78549  24330814.4284   24330821.0404
  21272568.506    -5192891.45949  -4025510.58149  21272567.5284   21272572.8684
 97  3 14  1 38 59.9990000  0  7 24 30  4  5  6  9 10
  21187960.607     1171220.22849    908207.13749  21187960.5804   21187964.9714
  20720159.788    -5305051.43449  -3876550.10149  20720159.6624   20720163.1194
  24001834.772     3598599.49049   2790209.37449  24001833.1574   24001838.8274
  20174913.022    -1843424.44749  -1427523.28549  20174912.4894   20174916.3744
  22869300.713    -5702507.33749  -4432748.22649  22869300.5034   22869304.4644
  24341599.541     3290548.42349   2554100.38749  24341597.0934   24341606.3214
  21257549.852    -5271815.08249  -4087009.48049  21257548.9154   21257553.4464
 97  3 14  1 39 29.9990000  0  7 24 30  4  5  6  9 10
  21193294.679     1199250.49949    930048.90949  21193294.7274   21193298.8804
  20705083.747    -5384276.39449  -3938283.82649  20705083.7894   20705087.2424
  24013899.098     3661998.03349   2839610.93949  24013899.5034   24013903.1014
  20171807.141    -1859745.74149  -1440241.18749  20171806.9094   20171810.4024
  22850466.725    -5801480.88349  -4509870.45549  22850466.7014   22850470.6764
  24352374.379     3347171.11049   2598221.93749  24352375.9214   24352380.1114
  21242627.491    -5350232.29149  -4148113.78449  21242626.7464   21242631.3914
 97  3 14  1 39 59.9990000  0  7 24 30  4  5  6  9 10
  21198677.063     1227534.79949    952088.63649  21198676.7214   21198680.9604
  20690102.375    -5463003.97649  -3999629.98649  20690102.4704   20690105.8464
  24025960.825     3725382.86849   2889001.76849  24025961.3234   24025961.6534
  20168804.667    -1875524.13549  -1452536.04349  20168804.0974   20168807.8804
  22831640.073    -5900415.31649  -4586962.18649  22831639.7954   22831644.4594
  24363137.336     3403729.19449   2642293.15849  24363138.5604   24363143.5844
  21227799.734    -5428152.76449  -4208831.00849  21227799.1304   21227803.6744
 97  3 14  1 40 29.9990000  0  7 24 30  4  5  6  9 10
  21204106.086     1256065.18449    974320.10749  21204105.7834   21204110.1694
  20675216.149    -5541231.48049  -4060586.48149  20675216.1864   20675219.6734
  24038020.660     3788757.52449   2938384.68049  24038022.5134   24038025.3924
  20165903.906    -1890767.82649  -1464414.25149  20165903.3664   20165907.2374
  22812828.123    -5999272.65249  -4663993.83749  22812828.1184   22812831.8304
  24373885.411     3460210.92449   2686304.86749  24373885.5804   24373891.6784
  21213067.518    -5505571.29949  -4269157.13349  21213066.7594   21213071.6004
 97  3 14  1 40 59.9990000  0  7 24 30  4  5  6  9 10
  21209576.469     1284812.30649    996720.46249  21209576.1264   21209580.8414
  20660424.303    -5618962.76949  -4121156.30349  20660424.3964   20660427.8844
  24050077.815     3852116.93349   2987755.73749  24050078.4574   24050084.2704
  20163102.905    -1905487.05249  -1475883.78149  20163102.3154   20163106.4624
  22794032.388    -6098044.09249  -4740958.56649  22794031.9104   22794036.3154
  24384617.877     3516610.87749   2730252.85749  24384617.8204   24384624.7804
  21198432.232    -5582480.18849  -4329086.11649  21198431.1324   21198436.4574
 97  3 14  1 41 29.9990000  0  7 24 30  4  5  6  9 10
  21215090.058     1313786.25849   1019297.56449  21215089.5794   21215094.5154
  20645730.080    -5696181.66949  -4181326.87349  20645730.2184   20645733.4114
  24062136.760     3915487.33749   3037135.26049  24062135.3304   24062141.6204
  20160402.657    -1919677.07349  -1486940.94749  20160402.1744   20160406.3104
  22775251.358    -6196738.66949  -4817863.38149  22775251.4124   22775256.0694
  24395339.337     3572950.62949   2774153.94149  24395339.5384   24395344.7964
  21183898.623    -5658854.94049  -4388598.88249  21183897.7034   21183903.0224
 97  3 14  1 41 59.9990000  0  7 24 30  4  5  6  9 10
  21220646.626     1342986.54149   1042051.02949  21220646.2324   21220651.1194
  20631132.513    -5772893.04849  -4241101.96949  20631132.8744   20631135.6544
  24074194.591     3978855.01649   3086512.66149  24074194.7224   24074198.9714
  20157802.186    -1933342.91049  -1497589.65849  20157801.8944   20157805.5474
  22756479.245    -6295386.96349  -4894732.14449  22756479.0374   22756483.1574
  24406049.957     3629234.57049   2818011.54949  24406048.4244   24406055.2724
  21169465.762    -5734700.39649  -4447699.22049  21169465.0644   21169469.8714
 97  3 14  1 42 29.9990000  0  7 24 30  4  5  6  9 10
  21226247.245     1372418.41049   1064984.95049  21226246.9554   21226251.4344
  20616632.891    -5849089.25549  -4300475.63349  20616632.7224   20616636.3614
  24086257.079     4042245.23549   3135907.61749  24086253.6044   24086260.9854
  20155309.540    -1946442.18449  -1507796.89449  20155308.9104   20155313.0424
  22737716.860    -6393984.71949  -4971561.52749  22737716.9464   22737720.6904
  24416756.036     3685495.71749   2861851.37449  24416755.6924   24416762.1054
  21155138.122    -5809992.62549  -4506368.46449  21155137.2034   21155142.1794
 97  3 14  1 42 59.9990000  0  7 24 30  4  5  6  9 10
  21231887.556     1402058.66049   1088081.24849  21231887.4004   21231891.7084
  20602230.227    -5924775.36149  -4359451.81649  20602230.1534   20602233.5344
  24098320.632     4105644.33849   3185309.42849  24098320.7004   24098327.1434
  20152922.771    -1958984.82149  -1517570.37849  20152922.0524   20152925.9954
  22718955.119    -6492578.77349  -5048388.03249  22718954.9454   22718959.0504
  24427455.447     3741723.05849   2905664.86849  24427455.4054   24427461.2214
  21140914.073    -5884740.58649  -4564613.61249  21140913.0404   21140918.1804
 97  3 14  1 43 29.9990000  0  7 24 30  4  5  6  9 10
  21237568.313     1431911.43949   1111343.15649  21237568.4374   21237572.4244
  20587925.248    -5999948.07949  -4418027.95649  20587925.1964   20587928.7514
  24110384.310     4169042.85749   3234710.78649  24110384.4984   24110392.2504
  20150643.432    -1970962.46249  -1526903.60049  20150642.7604   20150646.6364
  22700191.116    -6591183.69549  -5125222.98649  22700190.5754   22700194.6064
  24438147.111     3797907.86749   2949445.18949  24438146.9334   24438153.2694
  21126791.588    -5958954.79849  -4622442.84949  21126790.8674   21126795.5514
 97  3 14  1 43 59.9990000  0  7 24 30  4  5  6  9 10
  21243285.377     1461954.16449   1134753.07749  21243285.2704   21243289.5364
  20573714.763    -6074624.11549  -4476217.06249  20573714.7044   20573718.2534
  24122444.470     4232414.45249   3284091.23849  24122447.3674   24122451.1904
  20148468.501    -1982392.03249  -1535809.74949  20148467.8564   20148471.6414
  22681424.435    -6689803.08849  -5202069.23249  22681424.5274   22681427.4254
  24448822.474     3854006.60749   2993158.48349  24448822.7224   24448828.1554
  21112764.503    -6032667.60049  -4679881.36749  21112763.5784   21112768.2634
 97  3 14  1 44 29.9990000  0  7 24 30  4  5  6  9 10
  21249036.848     1492177.96749   1158304.09449  21249036.7284   21249041.0974
  20559598.287    -6148806.36749  -4534021.41349  20559598.4064   20559601.8314
  24134500.484     4295765.62849   3333455.74849  24134502.5624   24134507.0434
  20146395.009    -1993288.53349  -1544300.53249  20146394.5814   20146398.2024
  22662655.229    -6788436.08949  -5278926.07249  22662655.6604   22662659.0704
  24459475.526     3909988.85749   3036780.93249  24459476.2374   24459482.1714
  21098831.012    -6105888.57649  -4736936.65449  21098830.0944   21098834.9594
 97  3 14  1 44 59.9990000  0  7 24 30  4  5  6  9 10
  21254836.139     1522653.59049   1182051.33049  21254836.1234   21254840.4234
  20545588.325    -6222429.11149  -4591389.77949  20545588.5354   20545592.0084
  24146559.577     4359135.45849   3382834.86349  24146561.3234   24146563.7624
  20144431.363    -2003607.21049  -1552341.06649  20144430.8214   20144434.7514
  22643895.501    -6887019.50149  -5355744.27149  22643895.3974   22643899.3704
  24470115.123     3965897.68649   3080346.24449  24470116.2614   24470120.2344
  21085000.082    -6178570.12849  -4793571.60549  21084998.9294   21085004.0434
 97  3 14  1 45 29.9990000  0  7 24 30  4  5  6  9 10
  21260680.519     1553365.56049   1205982.74049  21260680.2474   21260684.7604
  20531677.103    -6295533.34249  -4648354.10749  20531677.2664   20531680.6384
  24158615.096     4422485.47749   3432198.53549  24158615.7684   24158619.6984
  20142572.044    -2013378.05549  -1559954.71549  20142571.5084   20142575.7514
  22625143.218    -6985562.82849  -5432531.24749  22625142.0004   22625147.7164
  24480733.286     4021694.06949   3123823.94249  24480733.1114   24480738.6364
  21071266.986    -6250737.91149  -4849806.22549  21071265.9164   21071271.0514
 97  3 14  1 45 59.9990000  0  7 24 30  4  5  6  9 10
  21266575.554     1584344.48049   1230122.16049  21266575.4564   21266579.8044
  20517868.635    -6368097.35049  -4704897.48549  20517868.7654   20517872.3104
  24170671.835     4485845.94949   3481570.32349  24170672.1324   24170675.0484
  20140819.615    -2022587.01249  -1567130.53149  20140818.8914   20140823.1344
  22606406.451    -7084023.75049  -5509254.00649  22606405.9614   22606410.0844
  24491333.827     4077402.07949   3167232.76149  24491333.4134   24491339.9964
  21057640.309    -6322346.45649  -4905605.07749  21057639.0004   21057644.1084
 97  3 14  1 46 29.9990000  0  7 24 30  4  5  6  9 10
  21272524.117     1615604.03249   1254480.25249  21272523.9084   21272528.3644
  20504163.217    -6440119.51149  -4761018.64949  20504163.4534   20504167.0464
  24182731.784     4549222.59449   3530954.75849  24182732.1834   24182733.2784
  20139174.994    -2031229.37649  -1573864.84349  20139174.3804   20139178.4534
  22587687.833    -7182390.45249  -5585903.35949  22587687.8194   22587692.1804
  24501924.284     4133055.74049   3210599.21649  24501924.2714   24501928.6574
  21044125.770    -6393365.18149  -4960944.32849  21044124.9854   21044129.9254
 97  3 14  1 46 59.9990000  0  7 24 30  4  5  6  9 10
  21278521.853     1647122.15949   1279039.84249  21278521.7064   21278525.8874
  20490559.001    -6511610.65549  -4816726.01249  20490559.2614   20490562.6064
  24194790.005     4612587.69049   3580330.18749  24194789.5964   24194795.1914
  20137638.063    -2039306.06349  -1580158.36049  20137637.6744   20137641.3774
  22568986.701    -7280665.82149  -5662481.51449  22568986.9154   22568990.3604
  24512504.567     4188654.12349   3253922.56149  24512505.1164   24512509.1744
  21030726.012    -6463781.33449  -5015814.02949  21030724.7724   21030729.7554
 97  3 14  1 47 29.9990000  0  7 24 30  4  5  6  9 10
  21284566.409     1678886.67349   1303791.41749  21284565.7024   21284570.3114
  20477056.504    -6582567.04449  -4872016.69849  20477056.5794   20477060.0974
  24206847.322     4675948.47149   3629702.29049  24206846.5894   24206847.8974
  20136208.800    -2046817.04249  -1586011.08249  20136208.2934   20136212.3114
  22550304.708    -7378840.84549  -5738981.48349  22550304.6294   22550309.3044
  24523073.469     4244192.69149   3297199.36549  24523071.7814   24523079.1184
  21017444.555    -6533575.46149  -5070199.03749  21017443.5774   21017448.5224
 97  3 14  1 47 59.9990000  0  7 24 30  4  5  6  9 10
  21290647.494     1710843.14849   1328692.57249  21290647.3824   21290651.8324
  20463651.729    -6653009.40749  -4926906.84649  20463652.0184   20463655.1984
  24218897.931     4739275.65549   3679048.27949  24218895.6974   24218901.3034
  20134880.357    -2053798.15449  -1591450.91149  20134880.1534   20134883.8064
  22531635.808    -7476946.17749  -5815427.14649  22531635.5334   22531639.1624
  24533626.347     4299648.71249   3340411.80649  24533627.2934   24533629.4694
  21004274.461    -6602784.82649  -5124128.39049  21004273.6344   21004278.6274
 97  3 14  1 48 29.9990000  0  7 24 30  4  5  6  9 10
  21296748.262     1742903.03549   1353674.30649  21296748.1884   21296752.5494
  20450333.605    -6722996.17949  -4981441.98249  20450333.5894   20450337.1414
  24230929.480     4802503.65249   3728316.87149  24230926.2194   24230926.0944
  20133643.212    -2060299.47149  -1596516.87349  20133642.5494   20133646.6164
  22512964.640    -7575063.76449  -5891882.37949  22512964.5494   22512967.1904
  24544151.973     4354960.80749   3383512.12649  24544151.5074   24544157.4684
  20991201.628    -6671482.51549  -5177659.04149  20991200.3744   20991205.8274
 97  3 14  1 48 59.9990000  0  7 24 30  4  5  6  9 10
  21302882.779     1775140.35449   1378794.29549  21302882.5114   21302886.9964
  20437119.698    -6792435.57749  -5035550.59449  20437119.9364   20437123.6664
  24242956.476     4865705.86449   3777565.37649  24242955.7514   24242959.7604
  20132514.510    -2066230.42549  -1601138.40349  20132514.0114   20132517.9144
  22494305.319    -7673119.36749  -5968289.30649  22494304.5974   22494308.7964
  24554660.367     4410183.50349   3426542.77549  24554658.7834   24554666.1574
  20978237.911    -6739606.49849  -5230742.64149  20978237.0794   20978242.3874
 97  3 14  1 49 29.9990000  0  7 24 30  4  5  6  9 10
  21309048.740     1807542.50749   1404042.73549  21309048.4334   21309052.9164
  20424007.577    -6861340.66649  -5089242.86249  20424007.9734   20424011.2204
  24254977.090     4928875.78049   3826788.73449  24254978.2984   24254980.4004
  20131490.306    -2071612.65349  -1605332.35049  20131489.9794   20131493.9414
  22475654.132    -7771131.59749  -6044662.43149  22475653.8794   22475657.6524
  24565149.988     4465308.91949   3469497.62149  24565149.2114   24565154.7604
  20965376.162    -6807195.87949  -5283409.66949  20965375.4734   20965380.1194
 97  3 14  1 49 59.9990000  0  7 24 30  4  5  6  9 10
  21315251.362     1840137.91449   1429441.76049  21315250.9894   21315255.5164
  20411003.410    -6929678.33749  -5142492.98749  20411003.4264   20411006.8594
  24266997.550     4992049.86048                  24266988.1944   24267007.1214
  20130575.967    -2076417.75849  -1609076.60349  20130575.5234   20130579.4554
  22457013.922    -7869085.74749  -6120990.31749  22457013.2634   22457017.4984
  24575627.124     4520367.13349   3512400.16449  24575625.9384   24575631.9264
  20952620.208    -6874229.11649  -5335643.34649  20952619.6334   20952623.8814
 97  3 14  1 50 29.9990000  0  7 24 30  4  5  6  9 10
  21321485.175     1872897.36849   1454968.61949  21321484.8734   21321489.6224
  20398098.112    -6997495.80049  -5195337.76349  20398098.2604   20398101.4674
  24279009.479     5055175.89949   3925203.92059  24279011.9404   24279016.3234
  20129763.525    -2080687.17249  -1612403.43849  20129762.9654   20129766.9314
  22438373.536    -7967040.97949  -6197319.03749  22438373.3074   22438377.3694
  24586079.676     4575296.60549   3555202.32249  24586079.8514   24586085.9384
  20939960.736    -6940754.89049  -5387481.58349  20939959.8474   20939964.5814
 97  3 14  1 50 59.9990000  0  7 24 30  4  5  6  9 10
  21327747.895     1905808.18749   1480613.41649  21327747.9574   21327752.5094
  20385285.509    -7064826.40249  -5247803.16649  20385285.7604   20385289.0994
  24291007.278     5118220.29449   3974329.50149  24291009.5144   24291012.3714
  20129045.272    -2084461.55349  -1615344.52649  20129044.7224   20129048.6504
  22419730.370    -8065011.28649  -6273659.49549  22419730.4444   22419734.9304
  24596501.829     4630065.88749   3597879.68049  24596501.5364   24596508.3744
  20927393.411    -7006796.22549  -5438942.34049  20927392.4584   20927397.3744
 97  3 14  1 51 29.9990000  0  6 24 30  4  5  6 10
  21334046.760     1938908.37849   1506405.77749  21334046.6874   21334051.2254
  20372573.834    -7131626.76049  -5299855.38449  20372573.7214   20372577.0734
  24303000.684     5181242.32649   4023437.61249  24303001.9024   24303007.3114
  20128426.462    -2087713.35349  -1617878.39449  20128425.8914   20128429.9174
  22401093.022    -8162951.25849  -6349976.31549  22401092.7964   22401096.8154
  20914929.456    -7072294.71849  -5489980.10549  20914928.8564   20914933.5754
 97  3 14  1 51 59.9990000  0  6 24 30  4  5  6 10
  21340377.009     1972173.90849   1532326.96849  21340376.6854   21340381.2834
  20359957.540    -7197925.48149  -5351516.71849  20359957.7654   20359960.8774
  24314983.328     5244211.52949   4072504.49849  24314983.1674   24314988.7114
  20127901.471    -2090471.93149  -1620027.92749  20127900.8344   20127905.0474
  22382455.599    -8260891.68849  -6426293.49249  22382455.2394   22382459.2524
  20902565.040    -7137270.24749  -5540610.36649  20902564.1864   20902569.2524
 97  3 14  1 52 29.9990000  0  6 24 30  4  5  6 10
  21346749.687     2005662.67549   1558422.11149  21346749.5534   21346753.8364
  20347445.745    -7263675.28549  -5402750.32449  20347445.8064   20347449.4104
  24326963.510     5307165.82249   4121559.82449  24326964.4334   24326968.9164
  20127481.816    -2092677.27549  -1621746.38349  20127481.4254   20127485.3784
  22363829.551    -8358771.42849  -6502563.40049  22363829.3734   22363833.6084
  20890310.622    -7201667.83749  -5590790.28949  20890309.6904   20890314.7804
 97  3 14  1 52 59.9990000  0  6 24 30  4  5  6 10
  21353171.646     2039410.07949   1584718.78549  21353171.4674   21353175.6734
  20335046.414    -7328834.26149  -5453523.54849  20335046.5404   20335050.0924
  24338949.410     5370149.77549   4170638.22549  24338950.1654   24338954.2994
  20127175.051    -2094289.38849  -1623002.58649  20127174.4374   20127178.7714
  22345224.914    -8456538.50349  -6578745.52049  22345224.7634   22345228.8124
  20878176.462    -7265432.81049  -5640477.25749  20878175.2904   20878180.2854
 97  3 14  1 53 29.9990000  0  6 24 30  4  5  6 10
  21359637.777     2073389.67149   1611196.38649  21359637.6314   21359641.9074
  20322756.247    -7393419.52249  -5503849.71949  20322756.4284   20322760.0144
  24350934.269     5433128.41849   4219712.50449  24350935.0284   24350937.3064
  20126976.339    -2095333.66449  -1623816.31249  20126975.7654   20126979.9854
  22326637.072    -8554218.90949  -6654860.10049  22326637.3614   22326641.3214
  20866157.553    -7328592.83649  -5689692.84149  20866156.4904   20866161.6594
 97  3 14  1 53 59.9990000  0  6 24 30  4  5  6 10
  21366139.509     2107556.61249   1637819.97249  21366139.3504   21366143.5074
  20310564.397    -7457488.16649  -5553773.33349  20310564.4394   20310568.2424
  24362903.536     5496026.44549   4268723.95349  24362903.4934   24362907.4984
  20126878.534    -2095847.37449  -1624216.62149  20126877.8524   20126882.3194
  22308056.231    -8651863.15649  -6730946.50449  22308055.9844   22308059.9914
  20854244.068    -7391198.39749  -5738476.37249  20854243.0384   20854248.1414
 97  3 14  1 54 29.9990000  0  6 24 30  4  5  6 10
  21372682.628     2141940.57649   1664612.67149  21372682.6504   21372686.6244
  20298477.516    -7521005.11749  -5603267.06349  20298477.5864   20298481.3044
  24374862.232     5558870.31049   4317693.18049  24374862.4244   24374866.0774
  20126888.699    -2095793.62149  -1624174.75149  20126888.2254   20126892.2844
  22289488.110    -8749438.57249  -6806979.27849  22289487.9794   22289491.9674
  20842444.735    -7453204.10049  -5786792.48649  20842444.0164   20842448.8804
 97  3 14  1 54 59.9990000  0  6 24 30  4  5  6 10
  21379254.516     2176475.69949   1691523.15749  21379254.3404   21379258.3494
  20286488.881    -7584005.81249  -5652358.50949  20286489.1864   20286492.6374
  24386803.256     5621622.02349   4366590.63749  24386803.5474   24386806.0124
  20126996.803    -2095225.72849  -1623732.24549  20126996.3004   20127000.4914
  22270924.012    -8846992.49349  -6882995.29449  22270924.1104   22270927.8574
  20830751.226    -7514653.91849  -5834675.44049  20830750.3724   20830755.2574
 97  3 14  1 55 29.9990000  0  6 24 30  4  5  6 10
  21385868.677     2211233.05549   1718606.81149  21385868.5114   21385872.5054
  20274615.002    -7646403.57149  -5700980.13349  20274615.1864   20274618.5294
  24398742.727     5684366.35749   4415482.32649  24398740.4434   24398748.3184
  20127216.702    -2094070.20449  -1622831.85649  20127216.1384   20127220.1424
  22252376.313    -8944462.12749  -6958945.62849  22252376.4304   22252380.4494
  20819176.918    -7575477.44949  -5882070.38249  20819176.3744   20819180.7454
 97  3 14  1 55 59.9980000  0  6 24 30  4  5  6 10
  21392518.123     2246176.36049   1745835.36549  21392517.8184   21392522.2784
  20262851.955    -7708218.67949  -5749147.74349  20262852.0494   20262855.3274
  24410680.092     5747098.16449   4464364.25849  24410680.0084   24410684.0084
  20127545.059    -2092344.51549  -1621487.17449  20127544.6514   20127548.7924
  22233838.887    -9041877.70849  -7034853.83249  22233839.0934   22233843.1994
  20807719.529    -7635687.01049  -5928986.90149  20807718.4264   20807723.2164
 97  3 14  1 56 29.9980000  0  6 24 30  4  5  6 10
  21399190.245     2281238.99449   1773156.89749  21399190.1794   21399194.7714
  20251189.823    -7769503.36249  -5796902.03849  20251189.8834   20251193.3044
  24422609.780     5809791.60349   4513216.26849  24422606.8314   24422617.1194
  20127970.231    -2090110.65649  -1619746.52249  20127969.9064   20127973.8644
  22215298.665    -9139307.40049  -7110773.04249  22215298.3394   22215302.5534
  20796367.829    -7695340.27049  -5975469.93849  20796367.0254   20796371.7274
 97  3 14  1 56 59.9980000  0  6 24 30  4  5  6 10
  21405892.925     2316462.11949   1800603.48849  21405892.5494   21405897.2334
  20239638.200    -7830207.10349  -5844203.65449  20239638.4004   20239641.8474
  24434541.069     5872492.62749   4562074.19849  24434539.0214   24434544.7024
  20128499.222    -2087331.03749  -1617580.59749  20128498.5604   20128503.0214
  22196763.968    -9236707.45649  -7186669.15449  22196763.5804   22196768.0864
  20785128.619    -7754402.78949  -6021492.66149  20785127.4764   20785132.3934
 97  3 14  1 57 29.9980000  0  6 24 30  4  5  6 10
  21412632.234     2351877.80749   1828200.12449  21412631.9134   21412636.1374
  20228199.617    -7890317.50249  -5891042.92449  20228199.9094   20228203.2844
  24446475.729     5935208.61849   4610943.93549  24446476.2474   24446481.6384
  20129135.493    -2083987.28849  -1614975.09749  20129134.9604   20129139.2004
  22178239.004    -9334056.16749  -7262525.26949  22178238.5354   22178242.9144
  20774006.387    -7812850.23649  -6067036.11049  20774005.2954   20774010.1334
 97  3 14  1 57 59.9980000  0  6 24 30  4  5  6 10
  21419405.683     2387472.65749   1855936.37349  21419405.5744   21419409.7404
  20216869.123    -7949859.56249  -5937439.33249  20216869.4334   20216872.8464
  24458406.930     5997904.59349   4659797.89749  24458409.0664   24458411.1614
  20129877.520    -2080087.95549  -1611936.66449  20129877.0064   20129881.2584
  22159724.663    -9431349.11149  -7338337.92749  22159724.1924   22159728.7894
  20762998.751    -7870695.09649  -6112110.00949  20762997.4264   20763002.5674
 97  3 14  1 58 29.9980000  0  6 24 30  4  5  6 10
  21426213.883     2423249.91049   1883814.75449  21426213.8314   21426217.9434
  20205646.488    -8008835.28949  -5983394.44449  20205646.8824   20205650.2634
  24470328.543     6060550.82349   4708613.19249  24470329.0544   24470332.9204
  20130724.503    -2075637.13249  -1608468.49449  20130724.2804   20130728.1474
  22141222.551    -9528578.85749  -7414101.33649  22141222.5314   22141226.1794
  20752101.955    -7927957.44149  -6156730.00349  20752100.9294   20752106.1474
 97  3 14  1 58 59.9980000  0  5 24 30  5  6 10
  21433050.126     2459173.94749   1911807.51849  21433050.0284   21433054.1344
  20194524.461    -8067282.07649  -6028937.39049  20194524.7014   20194528.1814
  20131670.563    -2070665.92849  -1604594.82549  20131669.9754   20131674.2074
  22122729.258    -9625761.38449  -7489827.95449  22122729.2034   22122733.2834
  20741306.677    -7984686.98949  -6200934.82349  20741305.8234   20741310.3514
 97  3 14  1 59 29.9980000  0  6 17 24 30  5  6 10
  24608283.507    -2633329.57349  -2026154.70649  24608281.4914   24608289.2854
  21439911.422     2495230.43949   1939903.48849  21439911.2884   21439915.2274
  20183500.391    -8125214.00249  -6074079.15149  20183500.5834   20183503.8694
  20132714.117    -2065182.05549  -1600321.66149  20132713.7324   20132717.8544
  22104247.267    -9722885.27049  -7565508.87149  22104246.6984   22104251.2914
  20730612.987    -8040882.91149  -6244723.83249  20730612.3464   20730616.8374
 97  3 14  1 59 59.9980000  0  6 17 24 30  5  6 10
  24584648.311    -2757532.09849  -2122935.77949  24584650.1114   24584654.7994
  21446811.158     2531489.06649   1968156.97249  21446810.7424   21446814.9014
  20172589.789    -8182549.74149  -6118756.34449  20172589.9974   20172593.4214
  20133869.417    -2059110.95549  -1595590.92949  20133869.2824   20133872.9924
  22085791.676    -9819869.80249  -7641081.20049  22085791.7754   22085795.6834
  20720034.906    -8096471.36149  -6288039.47749  20720033.9894   20720038.9464
 97  3 14  2  0 29.9980000  0  6 17 24 30  5  6 10
  24561027.064    -2881663.39649  -2219661.34549  24561026.2254   24561030.2714
  21453732.432     2567860.55349   1996498.39749  21453732.1704   21453736.5624
  20161778.288    -8239364.63449  -6163027.69049  20161778.6114   20161781.9334
  20135117.821    -2052551.13449  -1590479.38449  20135117.3184   20135121.3064
  22067344.388    -9916810.42149  -7716619.31949  22067344.0464   22067348.6944
  20709556.514    -8151535.61249  -6330946.67349  20709555.5234   20709560.5224
 97  3 14  2  0 59.9980000  0  6 17 24 30  5  6 10
  24537418.282    -3005729.62049  -2316336.20049  24537418.0794   24537424.3114
  21460675.290     2604345.45249   2024928.19049  21460675.3644   21460679.3584
  20151065.872    -8295658.90149  -6206893.34949  20151066.0074   20151069.4294
  20136456.211    -2045517.41949  -1584998.58349  20136455.5924   20136459.8364
  22048903.844   -10013716.32549  -7792130.38549  22048903.8714   22048907.9294
  20699181.992    -8206053.54249  -6373428.15549  20699181.1454   20699186.1854
 97  3 14  2  1 29.9980000  0  6 17 24 30  5  6 10
  24513824.039    -3129717.52349  -2412950.06149  24513823.3934   24513830.8694
  21467641.053     2640950.52749   2053451.63149  21467640.7124   21467645.0494
  20140454.961    -8351419.54849  -6250343.20749  20140455.3334   20140458.8514
  20137882.276    -2038023.05649  -1579158.84749  20137881.8844   20137885.8454
  22030466.803   -10110603.60249  -7867626.93749  22030466.4854   22030470.5834
  20688916.788    -8259997.90649  -6415462.70949  20688916.1314   20688920.8094
 97  3 14  2  1 59.9980000  0  6 17 24 30  5  6 10
  24490260.770    -3253542.82149  -2509437.21749  24490259.4664   24490266.6784
  21474641.315     2677737.48449   2082116.80149  21474641.1054   21474645.3994
  20129959.805    -8406572.19049  -6293319.29149  20129960.0194   20129963.2914
  20139410.345    -2029993.55549  -1572902.10649  20139409.7774   20139413.8564
  22012042.708   -10207422.37249  -7943070.09949  22012042.6804   22012046.7224
  20678770.957    -8313314.93649  -6457008.42649  20678770.2554   20678774.6374
 97  3 14  2  2 29.9980000  0  6 17 24 30  5  6 10
  24466739.387    -3377151.04749  -2605755.24049  24466740.2384   24466744.3664
  21481685.229     2714753.90549   2110960.77849  21481684.7894   21481689.1234
  20119587.627    -8461078.33349  -6335791.60449  20119587.7094   20119590.9954
  20141049.444    -2021379.96249  -1566190.20749  20141049.0424   20141053.0814
  21993639.956   -10304129.32849  -8018426.14649  21993640.1004   21993643.7964
  20668752.812    -8365960.82749  -6498031.17349  20668751.7614   20668756.6614
 97  3 14  2  2 59.9980000  0  6 17 24 30  5  6 10
  24443250.454    -3500587.34549  -2701939.33149  24443249.9704   24443256.1834
  21488760.896     2751936.80649   2139934.47949  21488760.3414   21488764.9124
  20109327.194    -8514997.07049  -6377806.20749  20109327.3124   20109330.7664
  20142791.613    -2012224.87649  -1559056.36249  20142791.2264   20142795.1704
  21975249.275   -10400773.30949  -8093733.11649  21975248.8224   21975253.0204
  20658851.567    -8417992.28249  -6538575.13749  20658850.5754   20658855.3764
 97  3 14  2  3 29.9980000  0  6 17 24 30  5  6 10
  24419798.279    -3623829.90449  -2797972.40849  24419797.5064   24419804.0534
  21495866.927     2789279.68049   2169032.82049  21495866.9214   21495870.9174
  20099180.155    -8568320.03549  -6419356.56449  20099180.4774   20099183.8914
  20144642.271    -2002499.58149  -1551478.21149  20144641.9354   20144645.6244
  21956872.436   -10497343.79549  -8168982.82149  21956872.1744   21956876.2484
  20649063.643    -8469427.92649  -6578654.83849  20649062.8314   20649067.4204
 97  3 14  2  3 59.9980000  0  6 17 24 30  5  6 10
  24396375.105    -3746917.44849  -2893884.71549  24396376.4604   24396380.3944
  21502995.800     2826742.30549   2198224.48749  21502995.6264   21502999.6024
  20089138.032    -8621091.95549  -6460477.53849  20089138.3894   20089141.7894
  20146596.313    -1992231.06949  -1543476.78949  20146595.9224   20146599.7444
  21938502.540   -10593877.92949  -8244204.19649  21938502.6614   21938505.9834
  20639378.600    -8520323.16249  -6618313.44149  20639377.2264   20639382.2834
 97  3 14  2  4 29.9980000  0  6 17 24 30  5  6 10
  24372976.541    -3869877.69349  -2989697.82049  24372977.4194   24372982.1864
  21510145.003     2864311.06149   2227498.83649  21510145.1064   21510148.9044
  20079199.143    -8673321.15049  -6501175.61149  20079199.0704   20079202.6804
  20148648.290    -1981448.02749  -1535074.42649  20148647.6714   20148651.9884
  21920136.211   -10690393.60249  -8319411.18549  21920136.0264   21920139.9654
  20629795.347    -8570683.11249  -6657554.94349  20629794.4214   20629799.2214
 97  3 14  2  4 59.9980000  0  6 17 24 30  5  6 10
  24349617.547    -3992632.30149  -3085350.70049  24349615.2524   24349622.7814
  21517329.750     2902066.82049   2256918.91149  21517329.6034   21517333.9644
  20069382.927    -8724905.52149  -6541371.22849  20069382.9954   20069386.5784
  20150814.405    -1970065.00049  -1526204.53849  20150813.9424   20150818.1254
  21901788.432   -10786811.37049  -8394541.88049  21901788.3074   21901792.8494
  20620331.984    -8620413.17149  -6696305.62149  20620331.1724   20620335.7634
 97  3 14  2  5 29.9980000  0  6 17 24 30  5  6 10
  24326281.907    -4115260.97549  -3180905.36849  24326280.7864   24326288.1704
  21524536.323     2939937.56149   2286428.57849  21524535.8644   21524540.6064
  20059676.517    -8775912.71149  -6581117.09149  20059676.6754   20059680.1974
  20153079.121    -1958163.75849  -1516930.85649  20153078.6644   20153082.4654
  21883445.887   -10883201.77349  -8469651.25949  21883445.8964   21883449.8554
  20610977.177    -8669573.29849  -6734612.18749  20610976.2084   20610981.2734
 97  3 14  2  5 59.9980000  0  6 17 24 30  5  6 10
  24302960.206    -4237815.88549  -3276402.58549  24302958.9124   24302967.3094
  21531759.616     2977896.29649   2316006.81249  21531759.7534   21531763.9384
  20050072.303    -8826383.11849  -6620444.68049  20050072.2844   20050075.9914
  20155432.022    -1945799.33449  -1507296.26149  20155431.5254   20155435.6544
  21865103.796   -10979590.33149  -8544759.20649  21865103.8144   21865107.2924
  20601728.084    -8718177.57149  -6772485.62849  20601727.4914   20601731.9134
 97  3 14  2  6 29.9980000  0  6 17 24 30  5  6 10
  24279667.360    -4360217.57849  -3371780.51049  24279666.8064   24279675.5874
  21539012.192     3016008.21549   2345704.41749  21539011.6434   21539015.9154
  20040584.823    -8876239.93849  -6659294.14549  20040585.0224   20040588.4564
  20157887.284    -1932896.52649  -1497242.13049  20157886.5864   20157890.9154
  21846776.683   -11075899.54449  -8619805.32549  21846776.2124   21846780.3074
  20592600.005    -8766146.17149  -6809863.73249  20592599.2304   20592603.9534
 97  3 14  2  6 59.9980000  0  6 17 24 30  5  6 10
  24256392.369    -4482526.90749  -3467086.37249  24256391.4304   24256397.9314
  21546279.582     3054199.02349   2375463.48349  21546278.7924   21546283.5824
  20031196.833    -8925574.37849  -6697736.56549  20031197.2014   20031200.5974
  20160431.705    -1919525.57449  -1486823.20449  20160431.0144   20160435.2554
  21828452.727   -11172191.97049  -8694838.35249  21828452.9264   21828457.0804
  20583578.426    -8813554.96149  -6846805.62749  20583577.5164   20583581.8604
 97  3 14  2  7 29.9980000  0  6 17 24 30  5  6 10
  24233148.051    -4604675.91249  -3562267.27249  24233147.6814   24233154.0504
  21553571.018     3092516.13249   2405320.97949  21553570.4944   21553575.0384
  20021916.353    -8974343.63849  -6735738.58949  20021916.4064   20021919.8424
  20163073.820    -1905641.01949  -1476004.06249  20163073.2654   20163077.3064
  21810142.356   -11268414.04949  -8769816.57549  21810142.2334   21810146.2454
  20574670.946    -8860364.09849  -6883280.26849  20574670.2924   20574674.6094
 97  3 14  2  7 59.9980000  0  6 17 24 30  5  6 10
  24209930.852    -4726684.59249  -3657338.89049  24209929.4154   24209937.0044
  21560882.746     3130939.46749   2435261.24849  21560882.6124   21560886.4844
  20012737.936    -9022576.68949  -6773322.77649  20012738.0204   20012741.5324
  20165808.487    -1891270.54649  -1464806.27349  20165807.9124   20165812.0724
  21791839.066   -11364598.81749  -8844765.71649  21791838.8844   21791842.2434
  20565870.028    -8906613.08149  -6919318.41349  20565868.8954   20565873.5624
 97  3 14  2  8 29.9980000  0  6 17 24 30  5  6 10
  24186749.572    -4848500.05649  -3752259.89649  24186747.8734   24186755.9704
  21568220.418     3169499.30049   2465307.86549  21568220.0924   21568224.8604
  20003670.439    -9070226.62049  -6810452.58949  20003670.7074   20003674.3194
  20168645.502    -1876361.75649  -1453189.03249  20168645.0284   20168649.0164
  21773550.827   -11460704.68249  -8919653.37849  21773550.5854   21773554.2324
  20557184.304    -8952256.45549  -6954884.66149  20557183.3684   20557187.8604
 97  3 14  2  8 59.9980000  0  6 17 24 30  5  6 10
  24163596.962    -4970167.17849  -3847065.36549  24163595.4714   24163602.5164
  21575579.405     3208171.18849   2495441.79749  21575579.4274   21575583.7384
  19994707.899    -9117325.34049  -6847152.88549  19994708.1724   19994711.7514
  20171577.073    -1860956.36349  -1441184.83449  20171576.6984   20171580.7014
  21755273.682   -11556751.78349  -8994495.24249  21755273.6774   21755276.8524
  20548611.103    -8997308.83649  -6989990.39449  20548610.2934   20548614.4964
 97  3 14  2  9 29.9980000  0  6 17 24 30  5  6 10
  24140477.319    -5091662.18149  -3941736.70549  24140477.9054   24140484.3444
  21582965.941     3246987.82249   2525688.53249  21582965.5944   21582969.6084
  19985859.258    -9163825.29949  -6883386.61549  19985859.5274   19985862.9004
  20174608.668    -1845025.57849  -1428771.24149  20174608.2894   20174612.2294
  21737014.279   -11652705.04549  -9069264.00049  21737014.0084   21737017.3114
  20540157.402    -9041733.31449  -7024606.84349  20540156.3264   20540161.3224
 97  3 14  2  9 59.9980000  0  6 17 24 30  5  6 10
  24117386.894    -5213005.49749  -4036289.83749  24117387.1404   24117392.3574
  21590379.772     3285947.86349   2556047.01049  21590379.3414   21590383.5904
  19977122.989    -9209735.08149  -6919160.47249  19977123.3654   19977126.3174
  20177738.828    -1828576.58449  -1415953.83749  20177738.1534   20177742.2414
  21718773.279   -11748562.04349  -9143957.72949  21718773.2264   21718777.0174
  20531825.133    -9085519.38649  -7058725.84449  20531823.9544   20531828.6804
 97  3 14  2 10 29.9980000  0  6 17 24 30  5  6 10
  24094319.970    -5334222.60049  -4130744.63749  24094319.1004   24094325.4684
  21597813.083     3325010.69249   2586485.58649  21597812.6054   21597816.9434
  19968495.315    -9255074.22249  -6954489.66249  19968495.1884   19968498.7664
  20180960.630    -1811645.75349  -1402760.98149  20180960.0224   20180963.9454
  21700545.484   -11844349.58249  -9218597.34449  21700545.5154   21700549.2544
  20523611.105    -9128683.58049  -7092360.26349  20523610.1804   20523615.3194
 97  3 14  2 10 59.9980000  0  6 17 24 30  5  6 10
  24071286.813    -5455263.16049  -4225061.88649  24071286.5254   24071291.3184
  21605276.103     3364229.79349   2617045.93149  21605275.9694   21605279.8034
  19959986.975    -9299785.60349  -6989329.70549  19959987.1684   19959990.5524
  20184280.738    -1794197.96749  -1389165.31249  20184280.3734   20184284.2894
  21682338.016   -11940029.90749  -9293153.42049  21682338.0104   21682342.0564
  20515521.339    -9171195.26849  -7125486.24249  20515520.0414   20515525.1354
 97  3 14  2 11 29.9980000  0  6 17 24 30  5  6 10
  24048277.011    -5576180.23449  -4319282.91449  24048276.1654   24048282.4184
  21612753.960     3403525.77349   2647666.18049  21612753.9024   21612758.5074
  19951586.140    -9343932.03649  -7023729.51449  19951585.9944   19951589.8314
  20187688.193    -1776292.01849  -1375212.63049  20187687.7254   20187691.7194
  21664136.083   -12035682.03249  -9367687.51949  21664136.1114   21664139.8724
  20507537.555    -9213150.12249  -7158178.31949  20507536.8084   20507541.3514
 97  3 14  2 11 59.9980000  0  6 17 24 30  5  6 10
  24025304.311    -5696900.54149  -4413350.63249  24025303.5184   24025310.7434
  21620259.133     3442965.35349   2678398.32049  21620258.9664   21620263.5144
  19943306.551    -9387441.19249  -7057632.74949  19943306.7164   19943310.1764
  20191195.360    -1757861.83449  -1360851.44849  20191194.9074   20191198.7684
  21645952.654   -12131236.46649  -9442145.49849  21645952.4094   21645956.5874
  20499673.315    -9254477.20649  -7190381.21749  20499672.4424   20499676.8344
 97  3 14  2 12 29.9980000  0  6 17 24 30  5  6 10
  24002369.052    -5817424.03349  -4507264.96849  24002367.3874   24002375.3834
  21627788.146     3482530.74949   2709228.49549  21627787.7744   21627792.4544
  19935148.225    -9430313.51049  -7091039.74849  19935148.4044   19935151.8454
  20194801.271    -1738912.83149  -1346085.98849  20194800.9604   20194804.8014
  21627785.561   -12226705.15849  -9516536.67049  21627785.3764   21627788.9694
  20491922.156    -9295209.75649  -7222120.84449  20491921.3984   20491926.0964
 97  3 14  2 12 59.9980000  0  6 17 24 30  5  6 10
  23979466.560    -5937776.38049  -4601045.94449  23979466.0914   23979471.3454
  21635339.734     3522214.49749   2740150.89949  21635339.9664   21635343.5144
  19927105.289    -9472579.53149  -7123974.31549  19927105.4524   19927109.0754
  20198505.664    -1719446.41849  -1330917.36449  20198505.4064   20198509.0364
  21609633.540   -12322094.86149  -9590866.29149  21609633.5124   21609637.2294
  20484278.205    -9335378.65949  -7253421.26649  20484277.5304   20484282.1904
 97  3 14  2 13 29.9980000  0  6 17 24 30  5  6 10
  23956603.472    -6057923.92349  -4694667.31749  23956603.8884   23956608.5954
  21642918.497     3562040.89149   2771184.46249  21642918.0304   21642921.9674
  19919181.675    -9514218.16449  -7156420.00549  19919182.0574   19919185.3294
  20202315.024    -1699428.40049  -1315318.92449  20202314.4494   20202318.8014
  21591506.404   -12417353.58449  -9665093.84249  21591505.7524   21591510.3314
  20476751.370    -9374932.48949  -7284242.41149  20476750.7004   20476755.1894
 97  3 14  2 13 59.9980000  0  6 17 24 30  5  6 10
  23933776.606    -6177880.49049  -4788139.88249  23933776.5814   23933783.0924
  21650521.817     3601996.70949   2802318.86649  21650521.6364   21650525.9554
  19911373.282    -9555251.96449  -7188394.39649  19911373.5434   19911376.9294
  20206224.118    -1678885.82249  -1299311.73749  20206223.4734   20206227.8894
  21573401.317   -12512496.80249  -9739231.39149  21573401.0154   21573404.9884
  20469341.626    -9413870.97849  -7314584.07749  20469340.8804   20469345.4224
 97  3 14  2 14 29.9980000  0  6 17 24 30  5  6 10
  23910989.017    -6297631.50249  -4881452.30249  23910988.0374   23910994.6344
  21658149.920     3642082.47349   2833554.52849  21658149.8854   21658154.2934
  19903678.533    -9595688.20049  -7219903.15149  19903678.7104   19903682.1494
  20210233.808    -1657814.76149  -1282892.73449  20210233.2274   20210237.6294
  21555317.472   -12607527.95149  -9813281.61849  21555316.5754   21555320.5304
  20462050.309    -9452187.10849  -7344440.77749  20462049.5984   20462054.0654
 97  3 14  2 14 59.9980000  0  6 17 24 30  5  6 10
  23888222.452    -6417270.25549  -4974677.24349  23888221.1394   23888226.7814
  21665785.828     3682209.50349   2864822.35749  21665785.1194   21665790.2174
  19896078.395    -9635627.16349  -7251024.41749  19896078.7314   19896081.8164
  20214323.390    -1636323.86049  -1266146.58349  20214322.8454   20214326.6804
  21537237.056   -12702540.65949  -9887317.48449  21537236.6014   21537241.0014
  20454864.199    -9489950.32149  -7373866.63849  20454863.4234   20454867.8994
 97  3 14  2 15 29.9980000  0  6 17 24 30  5  6 10
  23865495.063    -6536702.37049  -5067741.13249  23865492.6734   23865498.1144
  21673444.851     3722458.64149   2896185.32549  21673444.4574   21673449.1624
  19888589.420    -9674981.98249  -7281690.50449  19888589.5564   19888592.9154
  20218504.809    -1614350.15249  -1249024.20449  20218504.2314   20218508.0604
  21519171.675   -12797474.61549  -9961291.96849  21519171.3184   21519175.5354
  20447799.623    -9527075.07149  -7402794.99249  20447798.9634   20447803.3834
 97  3 14  2 15 59.9980000  0  6 17 24 30  5  6 10
  23842806.657    -6655928.58849  -5160644.58849  23842805.9394   23842812.5694
  21681131.593     3762852.55949   2927661.10149  21681131.5554   21681136.0164
  19881213.704    -9713741.19749  -7311892.48249  19881213.6424   19881217.3784
  20222780.829    -1591879.86449  -1231514.88549  20222780.1714   20222784.2374
  21501118.987   -12892342.18149 -10035214.71949  21501118.5654   21501122.7174
  20440853.888    -9563575.17449  -7431236.61549  20440853.0724   20440857.0534
 97  3 14  2 16 29.9980000  0  6 17 24 30  5  6 10
  23820143.845    -6775021.81949  -5253444.41949  23820142.4694   23820149.2594
  21688834.303     3803330.15549   2959202.08549  21688834.2134   21688838.9204
  19873939.823    -9751965.67649  -7341677.78849  19873940.3474   19873943.5424
  20227140.834    -1568967.95649  -1213661.45049  20227139.9324   20227143.9244
  21483066.802   -12987206.47149 -10109134.92349  21483066.6824   21483070.4064
  20434014.410    -9599516.71349  -7459242.99349  20434013.5174   20434017.8544
 97  3 14  2 16 59.9980000  0  6 17 24 30  5  6 10
  23797512.291    -6893950.20149  -5346115.84349  23797510.7764   23797517.6164
  21696561.985     3843939.81149   2990845.96549  21696561.9034   21696566.2014
  19866780.397    -9789589.14049  -7370994.77549  19866780.6444   19866784.0404
  20231595.227    -1545559.20049  -1195420.87049  20231594.6084   20231598.9024
  21465026.121   -13082010.85249 -10183008.44549  21465025.6824   21465029.6214
  20427289.211    -9634857.78649  -7486781.47349  20427288.4524   20427292.9734
 97  3 14  2 17 29.9980000  0  6 17 24 30  5  6 10
  23774907.202    -7012739.66649  -5438678.97349  23774906.4554   23774911.5424
  21704310.008     3884656.38849   3022573.17449  21704309.3194   21704314.1494
  19859735.395    -9826610.81549  -7399842.82649  19859735.5214   19859739.0944
  20236144.328    -1521653.54449  -1176793.10649  20236143.8994   20236147.9774
  21446994.760   -13176765.05449 -10256842.87549  21446994.3654   21446998.7224
  20420673.379    -9669624.76949  -7513872.60749  20420672.3934   20420676.9364
 97  3 14  2 17 59.9980000  0  6 17 24 30  5  6 10
  23752343.407    -7131312.46549  -5531073.29949  23752344.3744   23752347.4824
  21712090.684     3925544.28949   3054433.87749  21712090.4934   21712095.5224
  19852822.684    -9862937.58349  -7428149.39649  19852823.1774   19852826.5934
  20240804.760    -1497162.99149  -1157709.58049  20240804.0834   20240808.3264
  21428994.263   -13271358.51649 -10330552.04349  21428993.8064   21428998.0424
  20414185.499    -9703718.50749  -7540439.14049  20414184.6444   20414189.4904
 97  3 14  2 18 29.9980000  0  6 17 24 30  5  6 10
  23729780.693    -7249881.35449  -5623464.55349  23729779.0564   23729785.8584
  21719858.389     3966363.45849   3086241.02949  21719858.1454   21719862.9324
  19846003.651    -9898771.71849  -7456072.09849  19846003.7974   19846007.1874
  20245533.446    -1472313.43249  -1138346.30949  20245533.0394   20245537.0314
  21410987.496   -13365984.33849 -10404286.43049  21410987.3724   21410991.0954
  20407788.630    -9737334.22449  -7566633.18649  20407787.7034   20407792.6124
 97  3 14  2 18 59.9980000  0  6 17 24 30  5  6 10
  23707255.926    -7368250.60149  -5715700.31449  23707254.0304   23707262.1734
  21727648.436     4007300.15049   3118139.74849  21727648.3724   21727652.5604
  19839315.093    -9933920.12249  -7483460.46549  19839315.3084   19839318.8214
  20250367.088    -1446912.68149  -1118553.51649  20250366.5034   20250370.4014
  21393013.120   -13460440.51449 -10477888.62449  21393012.8954   21393016.8574
  20401517.502    -9770288.64049  -7592311.94249  20401516.6444   20401521.3564
 97  3 14  2 19 29.9980000  0  6 17 24 30  5  6 10
  23684763.640    -7486447.74649  -5807801.88849  23684763.1504   23684768.9074
  21735452.282     4048309.78349   3150095.31449  21735452.3294   21735456.8404
  19832745.716    -9968442.50349  -7510361.01649  19832745.7764   19832749.4524
  20255296.897    -1421006.09049  -1098366.54949  20255296.1104   20255300.3784
  21375062.270   -13554772.84249 -10551394.31649  21375062.0424   21375066.3574
  20395362.406    -9802634.11249  -7617516.18349  20395361.8454   20395365.9024
 97  3 14  2 19 59.9980000  0  6 17 24 30  5  6 10
  23662315.080    -7604414.53549  -5899723.98249  23662314.7804   23662321.7364
  21743280.228     4089445.33449   3182148.99549  21743279.6714   21743284.4544
  19826300.604   -10002311.72949  -7536752.61549  19826300.7184   19826304.2544
  20260331.697    -1394547.61349  -1077749.54349  20260331.0054   20260335.3274
  21357143.178   -13648937.96149 -10624769.71449  21357143.0284   21357147.4984
  20389332.494    -9834321.92449  -7642207.96049  20389331.6094   20389335.8064
 97  3 14  2 20 29.9980000  0  6 17 24 30  5  6 10
  23639899.603    -7722210.13549  -5991512.70449  23639899.1484   23639906.0754
  21751123.234     4130660.36749   3214264.60349  21751122.6914   21751127.7754
  19819966.301   -10035598.70549  -7562690.52249  19819966.6134   19819969.8584
  20265460.829    -1367593.81049  -1056746.57549  20265460.2444   20265464.3854
  21339241.137   -13743014.51449 -10698076.10949  21339241.7004   21339244.8764
  20383413.785    -9865424.74849  -7666443.90949  20383413.0174   20383417.1434
 97  3 14  2 20 59.9970000  0  6 17 24 30  5  6 10
  23617511.188    -7839864.78049  -6083191.59449  23617510.5884   23617515.1184
  21758976.327     4171929.08149   3246422.04449  21758975.8444   21758980.4784
  19813733.284   -10068353.79249  -7588213.96249  19813733.5384   19813736.9354
  20270677.077    -1340182.47649  -1035387.08849  20270676.5734   20270680.4674
  21321345.837   -13837055.65849 -10771354.91049  21321345.8894   21321348.9934
  20377597.974    -9895986.81349  -7690258.49049  20377596.7434   20377601.2174
 97  3 14  2 21 29.9970000  0  6 17 24 30  5  6 10
  23595159.568    -7957322.77949  -6174717.28749  23595157.7624   23595164.1654
  21766850.765     4213309.25849   3278666.35049  21766850.6134   21766854.5314
  19807613.278   -10100514.73049  -7613274.42949  19807613.5444   19807616.9444
  20275988.675    -1312269.70249  -1013636.86349  20275988.2954   20275992.1074
  21303466.015   -13931014.09649 -10844569.26149  21303465.7284   21303469.5494
  20371899.233    -9925933.52349  -7713593.57149  20371898.4984   20371902.7094
 97  3 14  2 21 59.9970000  0  6 17 24 30  5  6 10
  23572837.093    -8074622.98649  -6266119.98649  23572835.4864   23572841.7014
  21774738.848     4254761.47449   3310966.79149  21774738.8724   21774743.0894
  19801602.056   -10132103.91749  -7637889.37449  19801602.2564   19801605.4744
  20281386.774    -1283902.94849   -991532.89549  20281386.2984   20281390.0274
  21285595.632   -14024922.89849 -10917744.94149  21285595.0394   21285599.4194
  20366314.003    -9955284.26549  -7736464.25849  20366313.1254   20366317.4284
 97  3 14  2 22 29.9970000  0  6 17 24 30  5  6 10
  23550557.615    -8191701.79349  -6357350.17249  23550557.6084   23550565.4624
  21782652.149     4296346.34549   3343370.58949  21782652.3144   21782656.6454
  19795715.052   -10163040.30549  -7661995.64749  19795715.2324   19795718.4704
  20286880.193    -1255034.92749   -969038.32549  20286879.6954   20286883.4554
  21267747.283   -14118716.44149 -10990830.79949  21267747.0754   21267751.4944
  20360855.240    -9983970.42049  -7758817.08649  20360854.5644   20360858.9824
 97  3 14  2 22 59.9970000  0  6 17 24 30  5  6 10
  23528315.068    -8308587.29449  -6448429.77749  23528313.9374   23528320.0724
  21790583.260     4338024.82749   3375847.32849  21790583.1134   21790587.3964
  19789947.713   -10193347.95649  -7685611.99549  19789947.7944   19789951.2414
  20292462.324    -1225700.28949   -946180.15949  20292461.4414   20292465.7444
  21249916.254   -14212419.33449 -11063846.02549  21249916.1994   21249919.9034
  20355517.892   -10012018.47749  -7780672.69249  20355517.0894   20355521.4414
 97  3 14  2 23 29.9970000  0  6 17 24 30  5  6 10
  23506107.604    -8425286.69549  -6539364.34649  23506109.5994   23506114.7924
  21798530.048     4379785.32149   3408387.96449  21798529.9224   21798534.3474
  19784299.278   -10223030.44649  -7708741.20749  19784299.4944   19784303.0234
  20298131.346    -1195909.28549   -922966.38549  20298130.8164   20298134.6854
  21232102.508   -14306031.33949 -11136790.42349  21232102.7414   21232106.2804
  20350302.348   -10039426.32249  -7802029.44049  20350301.6894   20350305.7614
 97  3 14  2 23 59.9970000  0  6 17 24 30  5  6 10
  23483934.411    -8541809.67349  -6630161.38849  23483934.1014   23483942.9384
  21806491.533     4421622.20049   3440988.12949  21806491.4204   21806495.5624
  19778767.266   -10252101.39249  -7731393.88949  19778767.2444   19778771.0024
  20303886.187    -1165667.74149   -899401.53549  20303885.5434   20303889.5604
  21214305.544   -14399555.29349 -11209666.22349  21214305.0524   21214308.9854
  20345205.138   -10066212.20849  -7822901.53749  20345204.2884   20345208.8274
 97  3 14  2 24 29.9970000  0  6 17 24 30  5  6 10
  23461800.929    -8658122.16249  -6720794.43049  23461800.9934   23461806.1034
  21814472.543     4463563.10349   3473669.35749  21814472.2854   21814476.3064
  19773356.504   -10280534.93249  -7753549.88949  19773356.7404   19773360.3074
  20309734.932    -1134932.13249   -875451.70449  20309734.2844   20309738.3914
  21196532.809   -14492950.84249 -11282441.96749  21196532.6964   21196536.5004
  20340234.031   -10092335.32549  -7843257.19849  20340233.2204   20340237.7144
 97  3 14  2 24 59.9970000  0  6 17 24 30  5  6 10
  23439689.797    -8774317.92949  -6811336.54949  23439689.2914   23439696.0174
  21822455.156     4505512.26149   3506357.02149  21822455.1294   21822459.0694
  19768046.871   -10308437.37249  -7775292.04949  19768047.1164   19768050.4004
  20315660.900    -1103790.83649   -851185.76249  20315660.4314   20315664.4174
  21178767.602   -14586307.42149 -11355187.35249  21178767.7744   21178771.6274
  20335369.170   -10117900.04949  -7863177.74049  20335368.1584   20335372.9334
 97  3 14  2 25 29.9970000  0  6 17 24 30  5  6 10
  23417621.037    -8890288.02349  -6901702.87149  23417619.6494   23417627.4924
  21830459.975     4547577.25949   3539134.94849  21830460.0074   21830464.2144
  19762858.339   -10335703.14649  -7796538.10549  19762858.3684   19762861.9464
  20321682.948    -1072144.35049   -826526.16949  20321682.3624   20321686.5334
  21161032.589   -14679506.28249 -11427809.83149  21161032.5324   21161036.3064
  20330627.177   -10142818.80349  -7882594.93549  20330626.2804   20330630.6594
 97  3 14  2 25 59.9970000  0  6 17 24 30  5  6 10
  23395582.513    -9006101.22749  -6991946.85949  23395582.6254   23395585.9784
  21838473.120     4589686.63949   3571947.45349  21838472.6804   21838477.4804
  19757779.050   -10362394.53649  -7817336.58849  19757778.9544   19757783.0074
  20327787.150    -1040066.46649   -801530.42049  20327786.5264   20327790.6724
  21143313.377   -14772621.25349 -11500366.92949  21143312.5494   21143316.7684
  20325991.182   -10167180.42249  -7901577.99649  20325990.3504   20325994.9364
 97  3 14  2 26 29.9970000  0  6 17 24 30  5  6 10
  23373590.440    -9121671.20149  -7082001.34449  23373589.7314   23373595.9344
  21846511.049     4631926.31449   3604861.48249  21846510.8654   21846514.8234
  19752826.961   -10388417.77349  -7837614.43349  19752827.1324   19752830.8564
  20333989.915    -1007470.82749   -776131.23249  20333989.6824   20333993.6224
  21125625.078   -14865573.48649 -11572797.22049  21125624.7344   21125628.1704
  20321477.888   -10190898.01249  -7920059.21749  20321477.4544   20321481.8214
 97  3 14  2 26 59.9970000  0  6 17 24 30  5  6 10
  23351636.732    -9237039.67549  -7171898.82149  23351637.0084   23351641.5474
  21854566.618     4674258.17949   3637847.35449  21854566.2294   21854570.7574
  19747993.686   -10413817.01549  -7857406.04749  19747993.9084   19747997.2464
  20340280.363     -974414.93949   -750373.41549  20340280.0474   20340283.9204
  21107958.050   -14958413.65249 -11645140.20549  21107958.3554   21107961.2564
  20317076.603   -10214027.31249  -7938082.03349  20317075.9014   20317080.3004
 97  3 14  2 27 29.9970000  0  6 17 24 30  5  6 10
  23329720.073    -9352213.48549  -7261644.58849  23329719.4814   23329723.8224
  21862640.816     4716688.94049   3670910.27749  21862640.2094   21862645.0764
  19743280.807   -10438583.44049  -7876704.56449  19743281.0514   19743284.5624
  20346660.241     -940888.68849   -724249.08449  20346659.9004   20346664.0904
  21090311.527   -15051147.09449 -11717400.01249  21090311.3714   21090315.0964
  20312789.717   -10236555.38949  -7955636.36149  20312789.1694   20312793.3134
 97  3 14  2 27 59.9970000  0  6 17 24 30  5  6 10
  23307824.714    -9467273.99149  -7351302.07149  23307823.7494   23307828.8974
  21870721.370     4759153.66249   3703999.66949  21870720.7254   21870725.3544
  19738672.979   -10462797.47649  -7895572.64049  19738673.2414   19738676.6494
  20353118.429     -906950.92349   -697804.08349  20353117.9404   20353122.0814
  21072670.569   -15143850.80949 -11789636.64149  21072670.3544   21072674.3014
  20308608.001   -10258530.60649  -7972759.89149  20308607.3944   20308611.3614
 97  3 14  2 28 29.9970000  0  6 17 24 30  5  6 10
  23285970.912    -9582116.98549  -7440790.05049  23285970.5284   23285974.6774
  21878828.308     4801756.32849   3737196.55349  21878828.3124   21878832.8614
  19734187.330   -10486369.98449  -7913940.82549  19734187.6864   19734190.9664
  20359678.868     -872475.64749   -670940.24049  20359678.4184   20359682.3494
  21055057.658   -15236407.20949 -11861758.48549  21055057.7574   21055061.2544
  20304553.793   -10279835.74549  -7989361.28149  20304552.9404   20304557.1124
 97  3 14  2 28 59.9970000  0  6 17 24 30  5  6 10
  23264144.266    -9696817.45549  -7530166.98549  23264143.9284   23264148.6904
  21886944.986     4844409.54149   3770432.82049  21886944.7434   21886949.3904
  19729807.195   -10509387.95849  -7931876.91049  19729807.2694   19729810.7564
  20366327.645     -837536.07149   -643714.58849  20366326.7354   20366330.9514
  21037459.726   -15328885.24949 -11933819.28149  21037459.6404   21037463.0224
  20300609.834   -10300561.49349  -8005511.20049  20300608.8114   20300613.2164
 97  3 14  2 29 29.9970000  0  6 17 24 30  5  6 10
  23242350.080    -9811345.41449  -7619409.49149  23242348.3874   23242355.3314
  21895074.644     4887131.24749   3803722.45349  21895074.6654   21895078.9424
  19725537.866   -10531823.17849  -7949358.90049  19725538.1644   19725541.6284
  20373069.590     -802107.11349   -616107.59449  20373069.3084   20373073.1314
  21019882.930   -15421251.69349 -12005793.10649  21019882.4184   21019886.4734
  20296778.976   -10320692.60249  -8021197.76649  20296778.0334   20296782.6434
 97  3 14  2 29 59.9970000  0  6 17 24 30  5  6 10
  23220595.365    -9925665.86749  -7708490.30449  23220594.0674   23220600.7714
  21903216.562     4929917.07749   3837062.06349  21903216.3694   21903221.0204
  19721382.889   -10553657.89849  -7966372.97349  19721383.2204   19721386.6364
  20379904.065     -766191.93949   -588121.73149  20379903.6764   20379907.4554
  21002331.479   -15513484.05249 -12077662.43949  21002331.4584   21002335.5674
  20293063.125   -10340219.38949  -8036413.43049  20293062.1954   20293066.3724
 97  3 14  2 30 29.9970000  0  6 17 24 30  5  6 10
  23198877.478   -10039793.17349  -7797420.61749  23198876.6524   23198882.7854
  21911360.198     4972711.98549   3870408.75149  21911359.9314   21911364.5064
  19717339.892   -10574904.18449  -7982928.52349  19717340.0994   19717343.5364
  20386821.765     -729839.21749   -559794.93149  20386821.0874   20386825.1824
  20984801.409   -15605605.28349 -12149445.19749  20984801.2144   20984805.4814
  20289454.487   -10359182.82849  -8051190.12549  20289453.4744   20289457.9404
 97  3 14  2 30 59.9970000  0  6 17 24 30  5  6 10
  23177199.945   -10153709.49549  -7886186.51049  23177199.4394   23177205.6744
  21919509.611     5015537.03249   3903778.92449  21919509.1304   21919514.7494
  19713413.813   -10595535.67349  -7999005.00449  19713414.0174   19713417.3134
  20393820.594     -693060.15449   -531135.92249  20393820.2824   20393823.9404
  20967296.378   -15697594.89349 -12221125.38649  20967296.1834   20967300.0784
  20285956.328   -10377565.74049  -8065514.45249  20285955.6754   20285959.9104
 97  3 14  2 31 29.9970000  0  6 17 24 30  5  6 10
  23155568.092   -10267384.76149  -7974764.61049  23155566.8954   23155572.6704
  21927673.305     5058437.68849   3937208.00349  21927673.1684   21927677.9674
  19709613.812   -10615505.12049  -8014565.62049  19709614.2684   19709617.5854
  20400906.583     -655823.08149   -502120.03549  20400905.9374   20400909.9354
  20949824.898   -15789408.27949 -12292668.26249  20949824.8784   20949828.3114
  20282579.797   -10395309.81749  -8079340.99549  20282578.9034   20282582.8354
 97  3 14  2 31 59.9970000  0  6 17 24 30  5  6 10
  23133961.030   -10380928.65949  -8063240.34349  23133960.0134   23133966.5054
  21935832.799     5101315.90849   3970619.60649  21935832.5294   21935836.7734
  19705922.336   -10634904.34549  -8029681.90749  19705922.5044   19705925.8554
  20408062.915     -618216.38549   -472816.12849  20408062.4324   20408066.3924
  20932370.684   -15881131.03949 -12364140.52349  20932370.8714   20932374.0684
  20279308.610   -10412499.68349  -8092735.68149  20279307.9574   20279312.1344
 97  3 14  2 32 29.9970000  0  6 17 24 30  5  6 10
  23112383.632   -10494318.50549  -8151596.01249  23112383.5304   23112389.7114
  21944000.611     5144238.60049   4004065.87349  21943999.8354   21944005.1354
  19702346.401   -10653695.82849  -8044324.62749  19702346.7594   19702350.0194
  20415297.352     -580199.35749   -443192.47749  20415296.7544   20415300.6434
  20914942.860   -15972715.29649 -12435504.86049  20914942.4974   20914946.4184
  20276150.674   -10429094.79549  -8105666.92149  20276149.5244   20276153.9544
 97  3 14  2 32 59.9970000  0  6 17 24 30  5  6 10
  23090833.437   -10607564.78749  -8239839.79849  23090833.5494   23090839.4444
  21952180.477     5187224.63049   4037561.48149  21952180.2124   21952185.2004
  19698883.577   -10671893.37349  -8058504.53149  19698883.7374   19698887.3004
  20422610.119     -541770.49149   -413247.90449  20422609.3824   20422613.7184
  20897538.882   -16064173.54249 -12506771.00149  20897538.5554   20897542.3364
  20273106.951   -10445089.28849  -8118130.15249  20273105.7314   20273110.6124
 97  3 14  2 33 29.9970000  0  6 17 24 30  5  6 10
  23069307.126   -10720685.17549  -8327985.52749  23069306.9214   23069313.2554
  21960369.498     5230257.67249   4071093.71149  21960369.1934   21960374.3784
  19695529.808   -10689517.56149  -8072237.67249  19695530.0184   19695533.5354
  20429999.235     -502939.98049   -382990.36549  20429998.3364   20430002.7364
  20880153.049   -16155536.79449 -12577963.13449  20880153.1114   20880156.6904
  20270172.589   -10460508.98949  -8130145.49649  20270171.6024   20270176.4664
 97  3 14  2 33 59.9970000  0  6 17 24 30  5  6 10
  23047828.339   -10833556.75749  -8415937.39949  23047828.0514   23047835.0424
  21968587.551     5273443.49649   4104745.00449  21968586.8644   21968592.0394
  19692303.024   -10706474.09849  -8085450.56549  19692303.3224   19692306.7994
  20437483.671     -463608.74249   -352342.65149  20437482.9854   20437487.1694
  20862802.135   -16246716.58949 -12649012.29249  20862801.9634   20862805.7824
  20267365.185   -10475261.94649  -8141641.29349  20267364.5554   20267369.0714
 97  3 14  2 34 29.9970000  0  6 17 24 30  5  6 10
  23026389.811   -10946216.61649  -8503724.27949  23026390.0124   23026395.8034
  21976824.313     5316728.15049   4138473.30849  21976824.0514   21976828.7494
  19689191.531   -10722825.24149  -8098191.71749  19689191.7764   19689195.2674
  20445050.472     -423844.90649   -321357.85549  20445049.8374   20445054.1084
  20845468.422   -16337805.98849 -12719991.01849  20845468.2934   20845471.9084
  20264673.898   -10489404.87849  -8152661.74849  20264672.8994   20264677.6884
 97  3 14  2 34 59.9970000  0  6 17 24 30  5  6 10
  23004979.123   -11058731.90249  -8591398.50949  23004979.1944   23004984.3174
  21985061.215     5360012.90849   4172201.68949  21985060.9094   21985065.8154
  19686179.736   -10738652.32749  -8110524.51349  19686179.7914   19686183.1704
  20452684.822     -383725.88949   -290096.29049  20452684.2314   20452688.0424
  20828134.114   -16428898.15749 -12790971.90749  20828133.6634   20828137.3864
  20262081.462   -10503028.16849  -8163277.28149  20262080.8334   20262084.5884
 97  3 14  2 35 29.9970000  0  6 17 24 30  5  6 10
  22983624.716   -11170949.33149  -8678840.61849  22983624.6784   22983630.4204
  21993324.621     5403437.37249   4206038.93349  21993324.9284   21993328.9654
  19683296.996   -10753801.10149  -8122328.75349  19683297.1374   19683300.7734
  20460413.437     -343111.31349   -258448.57149  20460412.6714   20460417.4914
  20810826.380   -16519850.55449 -12861843.89249  20810826.0454   20810829.8224
  20259612.416   -10516003.18849  -8173387.66849  20259611.5934   20259616.1444
 97  3 14  2 35 59.9970000  0  6 17 24 30  5  6 10
  22962315.173   -11282931.69149  -8766099.56049  22962315.3704   22962321.6254
  22001597.417     5446910.57749   4239914.15749  22001597.9114   22001601.7834
  19680531.385   -10768334.52149  -8133653.49749  19680531.7914   19680535.2434
  20468222.136     -302076.02149   -226473.01549  20468221.6354   20468225.6584
  20793534.389   -16610720.00349 -12932651.23549  20793533.9564   20793537.9354
  20257254.187   -10528395.67049  -8183044.12449  20257253.4854   20257257.6314
 97  3 14  2 36 29.9970000  0  6 17 24 30  5  6 10
  22941045.938   -11394702.79149  -8853193.88449  22941045.2154   22941051.8284
  22009876.795     5490418.70749   4273816.59049  22009876.5604   22009881.2794
  19677880.238   -10782266.64549  -8144509.69849  19677880.3374   19677883.7554
  20476108.842     -260631.41549   -194178.52549  20476108.4254   20476112.4644
  20776258.491   -16701505.27349 -13003392.98649  20776258.2364   20776262.0004
  20255005.061   -10540214.85949  -8192253.87749  20255004.2924   20255008.6114
 97  3 14  2 36 59.9970000  0  6 17 24 30  5  6 10
  22919794.863   -11506377.62949  -8940213.19349  22919793.7374   22919801.2314
  22018143.665     5533861.62249   4307668.21049  22018143.5464   22018147.8634
  19675321.893   -10795710.86849  -8154985.71949  19675321.8784   19675325.3864
  20484054.662     -218876.52449   -161642.26649  20484054.5444   20484058.2124
  20758985.819   -16792273.76549 -13074121.66149  20758985.6634   20758989.5044
  20252845.248   -10551564.61249  -8201097.82249  20252844.5274   20252848.6874
 97  3 14  2 37 29.9970000  0  6 17 24 30  5  6 10
  22898567.579   -11617927.80949  -9027135.36449  22898566.9324   22898573.2084
  22026404.489     5577273.36649   4341495.55349  22026404.3284   22026408.4604
  19672862.623   -10808634.42449  -8165056.02149  19672863.0404   19672866.1454
  20492067.985     -176766.59549   -128829.33449  20492067.3374   20492071.4144
  20741726.565   -16882971.50649 -13144795.20249  20741726.8514   20741730.5254
  20250784.602   -10562393.34949  -8209535.78749  20250783.8744   20250788.0154
 97  3 14  2 37 59.9970000  0  6 17 24 30  5  6 10
  22877396.192   -11729185.36449  -9113829.51549  22877395.6494   22877400.6604
  22034692.065     5620825.20949   4375432.04849  22034691.9104   22034696.4724
  19670533.765   -10820872.80749  -8174592.42449  19670533.9234   19670537.2724
  20500183.673     -134118.30749    -95596.91349  20500183.3184   20500187.1354
  20724519.332   -16973396.64049 -13215256.32049  20724519.1844   20724522.9024
  20248859.410   -10572510.36249  -8217419.16049  20248858.7874   20248862.9974
 97  3 14  2 38 29.9970000  0  6 17 24 30  5  6 10
  22856263.320   -11840239.27949  -9200364.96349  22856262.7994   22856268.4834
  22042992.944     5664447.49749   4409423.44849  22042992.6244   22042997.0384
  19668318.263   -10832515.24649  -8183664.45849  19668318.3374   19668321.9284
  20508385.839      -91016.06449    -62010.76449  20508385.5504   20508389.3394
  20707349.396   -17063625.19849 -13285564.26449  20707348.9914   20707352.6594
  20247053.653   -10581999.61349  -8224813.37249  20247052.8974   20247056.8854
 97  3 14  2 38 59.9970000  0  6 17 24 30  5  6 10
  22835165.656   -11951107.76049  -9286755.97949  22835164.8744   22835170.0214
  22051299.912     5708101.22649   4443439.33449  22051299.9634   22051304.8394
  19666216.373   -10843560.61149  -8192271.23949  19666216.4024   19666220.1134
  20516670.734      -47478.68749    -28085.54749  20516670.2854   20516674.0714
  20690213.999   -17153671.89349 -13355730.50649  20690213.9634   20690217.2834
  20245363.539   -10590881.51449  -8231734.31849  20245362.7874   20245366.8224
 97  3 14  2 39 29.9970000  0  6 17 24 30  5  6 10
  22814098.642   -12061815.03349  -9373021.32849  22814097.4394   22814104.1794
  22059604.036     5751739.15149   4477442.90849  22059604.2744   22059608.7474
  19664225.776   -10854021.17449  -8200422.32849  19664225.9004   19664229.4264
  20525030.194       -3549.48349      6144.98949  20525029.7284   20525033.4444
  20673107.374   -17243568.07249 -13425779.46149  20673107.0864   20673110.9224
  20243781.029   -10599197.44449  -8238214.25549  20243780.2434   20243784.1874
 97  3 14  2 39 59.9970000  0  6 17 24 30  5  6 10
  22793069.925   -12172320.96149  -9459129.80249  22793069.4564   22793075.9864
  22067912.158     5795398.52949   4511463.19849  22067912.2724   22067915.9204
  19662353.770   -10863858.36249  -8208087.66549  19662353.7564   19662357.2494
  20533467.012       40786.11549     40692.20549  20533466.5774   20533470.3014
  20656031.815   -17333300.65549 -13495700.93049  20656031.8074   20656035.1364
  20242311.160   -10606921.58249  -8244233.05549  20242310.3904   20242314.4254
 97  3 14  2 40 29.9970000  0  6 17 24 30  5  6 10
  22772077.728   -12282636.84949  -9545090.19549  22772077.4494   22772082.7994
  22076222.012     5839066.60149   4545490.27449  22076221.7104   22076225.8814
  19660599.219   -10873078.67949  -8215272.32749  19660599.2204   19660602.9164
  20541977.592       85509.22749     75541.38049  20541977.1154   20541981.0084
  20638979.846   -17422909.83449 -13565526.23749  20638979.7324   20638983.4264
  20240950.899   -10614069.55749  -8249802.89049  20240950.3524   20240954.2974
 97  3 14  2 40 59.9970000  0  6 17 24 30  5  6 10
  22751135.441   -12392689.66049  -9630845.58149  22751135.0574   22751139.3504
  22084545.691     5882807.91349   4579574.41649  22084545.3574   22084549.6504
  19658975.252   -10881612.49649  -8221922.05849  19658975.3054   19658978.9544
  20550574.629      130687.31849    110745.07649  20550574.2344   20550578.1054
  20621961.017   -17512344.39449 -13635215.48149  20621960.9044   20621964.4134
  20239712.480   -10620577.81649  -8254874.25149  20239711.6394   20239715.7434
 97  3 14  2 41 29.9970000  0  6 17 24 30  5  6 10
  22730230.773   -12502543.85949  -9716446.19849  22730230.3194   22730235.8664
  22092876.006     5926584.24249   4613685.84649  22092875.4514   22092879.9734
  19657464.883   -10889549.74549  -8228106.92949  19657465.1604   19657468.4544
  20559244.746      176248.99849    146247.66649  20559244.0224   20559247.9604
  20604960.438   -17601683.06449 -13704830.01249  20604960.1534   20604963.8444
  20238583.791   -10626509.05949  -8259495.98649  20238583.0114   20238587.2144
 97  3 14  2 41 59.9970000  0  6 17 24 30  5  6 10
  22709364.250   -12612198.42049  -9801891.27749  22709364.1944   22709369.2334
  22101215.900     5970410.88249   4647836.47949  22101215.6174   22101219.9664
  19656066.221   -10896899.69649  -8233834.16949  19656066.4784   19656069.7914
  20567990.876      222210.27549    182061.63749  20567990.3774   20567994.1724
  20587976.408   -17690934.18749 -13774376.33149  20587975.8314   20587979.5424
  20237568.023   -10631846.85449  -8263655.30249  20237566.9244   20237571.4814
 97  3 14  2 42 29.9970000  0  6 17 24 30  5  6 10
  22688529.592   -12721686.07949  -9887206.30649  22688528.7684   22688533.8804
  22109558.489     6014251.17949   4681997.75349  22109558.8414   22109562.0674
  19654774.056   -10903690.05249  -8239125.36349  19654774.6734   19654777.8604
  20576809.940      268554.83749    218174.27749  20576809.5514   20576813.3774
  20571006.341   -17780111.78849 -13843865.35949  20571006.3794   20571009.9814
  20236656.779   -10636635.12949  -8267386.41749  20236656.1544   20236660.4974
 97  3 14  2 42 59.9970000  0  6 17 24 30  5  6 10
  22667731.609   -12830979.46949  -9972369.95249  22667729.7374   22667736.2694
  22117909.094     6058133.53749   4716191.80649  22117909.1104   22117913.3644
  19653590.986   -10909907.61549  -8243970.22149  19653591.0624   19653594.2294
  20585704.392      315295.21449    254595.35149  20585703.7944   20585707.8844
  20554060.436   -17869163.50449 -13913256.28349  20554060.4904   20554064.1584
  20235852.342   -10640862.56749  -8270680.50849  20235851.4824   20235855.9204
 97  3 14  2 43 29.9970000  0  6 17 24 30  5  6 10
  22646970.777   -12940077.27549 -10057381.19849  22646970.4294   22646975.9644
  22126269.209     6102066.25849   4750425.08049  22126269.0934   22126273.5214
  19652515.889   -10915556.75649  -8248372.15249  19652515.9464   19652519.2194
  20594673.828      362430.10549    291323.84549  20594673.3144   20594677.4754
  20537141.868   -17958071.24049 -13982535.01049  20537141.9134   20537145.4334
  20235154.651   -10644529.09649  -8273537.52949  20235153.8054   20235157.9854
 97  3 14  2 43 59.9970000  0  6 17 24 30  5  6 10
  22626248.832   -13048971.81849 -10142234.05949  22626249.1644   22626253.4344
  22134636.338     6146035.42549   4784686.75349  22134636.3604   22134640.7204
  19651552.354   -10920619.87649  -8252317.44549  19651552.4734   19651556.0034
  20603719.627      409966.48749    328365.17349  20603719.3124   20603722.8534
  20520256.970   -18046802.10249 -14051675.92349  20520257.0924   20520260.1354
  20234564.160   -10647632.20149  -8275955.52349  20234563.2734   20234567.6044
 97  3 14  2 44 29.9970000  0  6 17 24 30  5  6 10
  22605555.709   -13157716.19849 -10226969.90049  22605555.6004   22605559.9114
  22143000.201     6189987.73749   4818935.29449  22143000.1804   22143004.5224
  19650690.983   -10925146.31249  -8255844.53649  19650691.1104   19650694.8644
  20612829.375      457838.73849    365668.22649  20612828.7764   20612832.4234
  20503400.268   -18135384.86749 -14120701.42949  20503400.1214   20503403.3434
  20234069.280   -10650232.73849  -8277981.91249  20234068.4364   20234072.4574
 97  3 14  2 44 59.9970000  0  6 17 24 30  5  6 10
  22584890.566   -13266312.79249 -10311590.60349  22584889.1074   22584894.3164
  22151362.873     6233934.18049   4853179.28049  22151362.5614   22151367.0434
  19649930.815   -10929140.95149  -8258957.24149  19649931.0464   19649934.6464
  20622001.263      506037.39749    403225.62349  20622001.0764   20622004.3414
  20486571.844   -18223818.61449 -14189610.82149  20486571.5424   20486574.9454
  20233673.938   -10652310.09949  -8279600.62349  20233673.1004   20233677.3184
 97  3 14  2 45 29.9960000  0  6 17 24 30  5  6 10
  22564271.188   -13374667.31949 -10396022.68049  22564270.4614   22564276.4584
  22159739.740     6277955.19649   4887481.36849  22159739.6614   22159744.4014
  19649292.272   -10932496.64449  -8261572.07149  19649292.3984   19649295.9174
  20631256.038      554671.12049    441122.03549  20631255.4594   20631259.7924
  20469786.774   -18312024.79349 -14258342.89449  20469786.7024   20469789.7084
  20233398.283   -10653758.67549  -8280729.37649  20233397.3804   20233401.3414
 97  3 14  2 45 59.9960000  0  6 17 24 30  5  6 10
  22543686.804   -13482838.01449 -10480311.52249  22543685.7214   22543691.6564
  22168120.379     6321995.55849   4921798.53049  22168120.4204   22168125.5094
  19648768.931   -10935246.79849  -8263715.05449  19648769.1404   19648772.6804
  20640584.388      603691.82949    479319.99149  20640583.6214   20640588.2054
  20453031.810   -18400072.64149 -14326951.58649  20453031.4214   20453035.1124
  20233234.133   -10654621.35449  -8281401.58249  20233233.3344   20233237.2924
 97  3 14  2 46 29.9960000  0  6 17 24 30  5  6 10
  22523139.242   -13590815.62949 -10564449.90549  22523137.3464   22523143.6834
  22176507.133     6366067.73649   4956140.47149  22176506.3944   22176510.6444
  19648363.460   -10937377.82849  -8265375.60749  19648364.0014   19648366.9994
  20649986.587      653101.18349    517820.78049  20649985.7724   20649990.3614
  20436302.516   -18487985.52349 -14395455.10449  20436302.1324   20436306.0984
  20233181.809   -10654896.32349  -8281615.83449  20233180.8704   20233185.0174
 97  3 14  2 46 59.9960000  0  6 17 24 30  5  6 10
  22502632.922   -13698576.68349 -10648419.53949  22502632.8614   22502636.4814
  22184903.079     6410189.78149   4990521.29149  22184902.9514   22184906.8254
  19648078.512   -10938875.59949  -8266542.70749  19648078.8984   19648082.3064
  20659466.020      702916.70949    556638.08049  20659465.7194   20659469.8464
  20419598.330   -18575766.34149 -14463855.72749  20419598.2064   20419601.8644
  20233245.257   -10654562.82249  -8281355.95249  20233244.4864   20233248.5824
 97  3 14  2 47 29.9960000  0  6 17 24 30  5  6 10
  22482162.065   -13806152.72049 -10732244.99249  22482160.7844   22482165.7084
  22193298.579     6454308.57849   5024899.58349  22193298.8794   22193302.1394
  19647906.345   -10939780.31249  -8267247.68649  19647906.8174   19647910.0814
  20669013.112      753086.84549    595731.69549  20669012.3704   20669016.5744
  20402910.380   -18663462.21849 -14532190.15849  20402910.2894   20402913.5324
  20233413.994   -10653676.27349  -8280665.12549  20233413.1804   20233417.4964
 97  3 14  2 47 59.9960000  0  6 17 24 30  5  6 10
  22461735.896   -13913492.18349 -10815886.09249  22461734.3954   22461739.4514
  22201704.380     6498481.18049   5059319.78849  22201704.0404   22201707.8384
  19647856.498   -10940042.84349  -8267452.26449  19647856.9924   19647859.9194
  20678635.523      803653.13349    635133.99249  20678635.3794   20678639.0964
  20386250.735   -18751009.26449 -14600408.62449  20386250.7624   20386253.8054
  20233697.140   -10652187.81849  -8279505.28749  20233696.1244   20233700.5434
 97  3 14  2 48 29.9960000  0  6 17 24 30  5  6 10
  22441351.547   -14020611.43249 -10899355.62649  22441350.7564   22441356.9264
  22210117.258     6542691.14149   5093769.12449  22210117.1764   22210121.6164
  19647921.293   -10939702.61449  -8267187.15249  19647921.4174   19647924.5624
  20688329.384      854594.65749    674828.68649  20688328.8384   20688333.1384
  20369620.714   -18838400.93149 -14668506.01149  20369620.6454   20369623.7344
  20234089.004   -10650128.58149  -8277900.68349  20234088.1324   20234092.7424
 97  3 14  2 48 59.9960000  0  6 17 24 30  5  6 10
  22421009.151   -14127511.59849 -10982654.42749  22421008.2194   22421014.8724
  22218535.993     6586931.20449   5128241.90549  22218536.4274   22218540.9754
  19648098.161   -10938773.00349  -8266462.78649  19648098.3254   19648101.5724
  20698093.625      905905.57149    714811.20249  20698093.2884   20698097.1424
  20353026.892   -18925601.83249 -14736454.75149  20353026.6534   20353029.9494
  20234589.263   -10647499.53249  -8275852.05649  20234588.5164   20234592.6074
 97  3 14  2 49 29.9960000  0  6 17 24 30  5  6 10
  22400705.040   -14234210.19049 -11065796.16749  22400704.0854   22400710.3804
  22226957.863     6631188.02349   5162727.73949  22226957.6874   22226961.8634
  19648385.489   -10937263.03849  -8265286.18849  19648385.6464   19648389.0534
  20707924.758      957568.86149    755068.31449  20707923.6034   20707928.4524
  20336470.274   -19012607.28349 -14804251.19149  20336469.8354   20336473.2104
  20235196.105   -10644311.11749  -8273367.57549  20235195.4464   20235199.0924
 97  3 14  2 49 59.9960000  0  6 17 24 30  5  6 10
  22380430.358   -14340754.67049 -11148817.82249  22380429.7514   22380435.3144
  22235377.469     6675433.06349   5197204.38949  22235376.4894   22235381.4204
  19648774.603   -10935218.10949  -8263692.73449  19648775.0164   19648778.2454
  20717818.635     1009562.42949    795582.77949  20717818.0734   20717822.6634
  20319946.850   -19099437.83049 -14871911.34249  20319946.7144   20319950.2934
  20235902.609   -10640598.58649  -8270474.67449  20235901.9074   20235906.0254
 97  3 14  2 50 29.9960000  0  6 17 24 30  5  6 10
  22360187.698   -14447130.58849 -11231708.13449  22360186.5654   22360192.9894
  22243795.886     6719672.78949   5231676.90549  22243795.4414   22243799.8764
  19649263.333   -10932650.09349  -8261691.69949  19649263.6784   19649267.1524
  20727776.221     1061889.94149    836357.44949  20727775.6504   20727779.5764
  20303458.652   -19186084.29549 -14939428.05549  20303458.7284   20303462.2464
  20236709.273   -10636359.76749  -8267171.69849  20236708.3784   20236712.5034
 97  3 14  2 50 59.9960000  0  6 17 24 30  5  6 10
  22339985.147   -14553296.17549 -11314434.54049  22339984.9304   22339989.9914
  22252219.429     6763939.94449   5266170.78349  22252219.7894   22252223.6564
  19649859.853   -10929515.76749  -8259249.36749  19649859.9954   19649863.1624
  20737801.522     1114573.38749    877409.50049  20737801.5494   20737804.9174
  20287007.768   -19272534.28849 -15006791.67249  20287007.6474   20287011.1604
  20237625.475   -10631544.70149  -8263419.67949  20237624.6944   20237629.0984
 97  3 14  2 51 29.9960000  0  6 17 24 30  5  6 10
  22319827.850   -14659223.40849 -11396975.22549  22319826.7064   22319832.9964
  22260652.737     6808256.70049   5300703.31449  22260652.2014   22260656.1304
  19650567.476   -10925796.95249  -8256351.59349  19650567.6554   19650570.7644
  20747898.653     1167633.23549    918754.84449  20747898.6194   20747901.5964
  20270594.248   -19358787.75149 -15074002.14349  20270593.8604   20270597.6894
  20238655.421   -10626132.18249  -8259202.12649  20238654.4214   20238658.8284
 97  3 14  2 51 59.9960000  0  6 17 24 30  5  6 10
  22299713.744   -14764924.01049 -11479339.29249  22299711.7414   22299716.9404
  22269089.891     6852595.04749   5335252.69249  22269090.5794   22269094.0564
  19651381.906   -10921516.74749  -8253016.36849  19651382.0714   19651385.2254
  20758063.002     1221046.51949    960375.59149  20758062.7224   20758066.2654
  20254212.555   -19444873.92749 -15141082.26049  20254212.2114   20254215.9984
  20239792.062   -10620158.53749  -8254547.32749  20239791.1144   20239795.4074
 97  3 14  2 52 29.9960000  0  6 17 24 30  5  6 10
  22279635.117   -14870437.56049 -11561557.60249  22279634.2504   22279640.0044
  22277522.304     6896907.41049   5369781.79249  22277522.7524   22277527.0194
  19652296.926   -10916708.21249  -8249269.47149  19652297.2784   19652300.2384
  20768281.780     1274746.09449   1002219.40749  20768281.6284   20768284.9354
  20237851.988   -19530848.79549 -15208075.65549  20237851.8474   20237855.6364
  20241026.890   -10613668.93949  -8249490.49249  20241026.2294   20241030.3254
 97  3 14  2 52 59.9960000  0  6 17 24 30  5  6 10
  22259604.648   -14975698.11949 -11643578.79549  22259604.2774   22259609.9034
  22285964.513     6941270.97549   5404350.81549  22285964.2484   22285969.2434
  19653329.817   -10911280.30349  -8245039.92949  19653329.9734   19653333.1974
  20778569.731     1328809.94549   1044347.09549  20778569.3664   20778573.2704
  20221524.972   -19616648.18549 -15274932.30249  20221524.8504   20221528.2914
  20242375.242   -10606583.13349  -8243969.07049  20242374.3064   20242378.6504
 97  3 14  2 53 29.9960000  0  6 17 24 30  5  6 10
  22239608.927   -15080776.01049 -11725457.63449  22239608.3304   22239614.1724
  22294404.270     6985622.59949   5438910.50549  22294404.4254   22294408.8494
  19654467.903   -10905299.80449  -8240379.80949  19654468.1354   19654471.5554
  20788920.616     1383204.15749   1086732.19849  20788919.8504   20788924.1284
  20205223.673   -19702312.54549 -15341683.74049  20205223.5154   20205226.8544
  20243824.993   -10598964.74249  -8238032.65049  20243823.8924   20243828.5404
 97  3 14  2 53 59.9960000  0  6 17 24 30  5  6 10
  22219648.464   -15185668.58149 -11807192.10949  22219647.9084   22219653.6324
  22302845.148     7029979.51149   5473474.33849  22302844.9324   22302850.1754
  19655714.186   -10898750.23549  -8235276.25849  19655714.4624   19655717.7814
  20799338.107     1437948.72449   1129390.29849  20799337.3384   20799341.8714
  20188952.296   -19787819.19349 -15408312.28349  20188952.3394   20188955.6574
  20245379.225   -10590797.32849  -8231668.42249  20245378.6464   20245382.9434
 97  3 14  2 54 29.9960000  0  6 17 24 30  5  6 10
  22199718.232   -15290402.96649 -11888803.29549  22199718.0054   22199722.2614
  22311281.434     7074313.25449   5508020.11049  22311281.0024   22311286.5964
  19657061.806   -10891668.50949  -8229758.03549  19657061.9094   19657065.3264
  20809817.325     1493017.38549   1172300.94349  20809817.0034   20809821.2004
  20172705.512   -19873196.72149 -15474840.20749  20172705.1474   20172708.8534
  20247033.798   -10582102.91049  -8224893.54549  20247032.9014   20247037.0424
 97  3 14  2 54 59.9960000  0  6 17 24 30  5  6 10
  22179835.430   -15394887.13449 -11970219.52249  22179834.6304   22179840.2394
  22319727.482     7118697.22549   5542605.01249  22319727.7444   22319732.6214
  19658523.085   -10883989.29549  -8223774.24449  19658523.5174   19658526.5614
  20820375.676     1548501.85449   1215535.57249  20820375.3344   20820379.8284
  20156500.157   -19958356.21249 -15541198.23549  20156500.1054   20156503.3884
  20248802.139   -10572810.18349  -8217652.45249  20248801.3474   20248805.5094
 97  3 14  2 55 29.9960000  0  6 17 24 30  5  6 10
  22159988.199   -15499184.80649 -12051490.39549  22159988.7894   22159992.5494
  22328170.317     7163063.85749   5577176.41249  22328170.1394   22328175.4544
  19660085.426   -10875778.90749  -8217376.54349  19660085.7964   19660089.1804
  20830998.445     1604324.79649   1259033.94949  20830997.9404   20831001.8574
  20140326.908   -20043347.14449 -15607424.91949  20140326.3924   20140330.0424
  20250668.004   -10563005.00349  -8210012.04349  20250667.4054   20250671.3484
 97  3 14  2 55 59.9960000  0  6 17 24 30  5  6 10
  22140176.974   -15603294.51249 -12132614.81849  22140175.9554   22140181.4544
  22336610.187     7207415.79449   5611736.33749  22336609.8074   22336614.7314
  19661749.483   -10867034.82349  -8210562.98249  19661749.7044   19661753.0474
  20841680.484     1660459.12149   1302774.96149  20841679.9654   20841684.3574
  20124182.780   -20128184.46249 -15673531.90249  20124182.4784   20124186.0674
  20252626.670   -10552711.90049  -8201991.44049  20252625.8294   20252630.1174
 97  3 14  2 56 29.9960000  0  6 17 24 30  5  6 10
  22120406.292   -15707189.12749 -12213571.61949  22120406.0524   22120411.0924
  22345050.839     7251771.64149   5646299.33849  22345049.8944   22345055.2464
  19663521.524   -10857722.92249  -8203306.95949  19663521.6274   19663525.1194
  20852426.200     1716927.70849   1346776.43249  20852425.7264   20852429.5194
  20108075.379   -20212829.39549 -15739488.97549  20108075.4094   20108078.6904
  20254682.118   -10541909.92449  -8193574.30249  20254681.0264   20254685.2984
 97  3 14  2 56 59.9960000  0  6 17 24 30  5  6 10
  22100678.191   -15810861.32549 -12294355.12249  22100677.3994   22100683.0944
  22353496.144     7296151.89749   5680881.38349  22353495.1674   22353500.0904
  19665408.263   -10847808.25549  -8195581.24949  19665408.5814   19665411.9704
  20863239.406     1773751.55949   1391054.73549  20863239.0004   20863242.4624
  20092011.696   -20297244.76049 -15805267.16349  20092011.5704   20092014.8624
  20256839.809   -10530571.15549  -8184738.88049  20256838.9924   20256843.0914
 97  3 14  2 57 29.9960000  0  6 17 24 30  5  6 10
  22080981.003   -15914370.23249 -12375011.36949  22080980.9454   22080986.6084
  22361938.202     7340515.86249   5715450.70049  22361936.9334   22361942.7904
  19667404.320   -10837319.06549  -8187407.85749  19667404.6294   19667408.0034
  20874109.244     1830873.27849   1435565.14149  20874108.5754   20874112.9264
  20075984.173   -20381469.92749 -15870897.15049  20075983.8564   20075987.4394
  20259093.588   -10518727.69949  -8175510.19649  20259092.9224   20259096.9194
 97  3 14  2 57 59.9960000  0  6 17 24 30  5  6 10
  22061334.375   -16017614.44849 -12455461.36049  22061333.7764   22061338.7784
  22370393.509     7384950.11149   5750074.82249  22370393.9294   22370398.0304
  19669526.646   -10826166.06949  -8178717.20749  19669526.7704   19669530.2104
  20885052.206     1888379.53549   1480375.19449  20885051.8394   20885055.6474
  20060009.694   -20465416.27349 -15936309.87949  20060009.5044   20060012.8974
  20261463.672   -10506273.24549  -8165805.41849  20261463.1714   20261467.0394
 97  3 14  2 58 29.9960000  0  6 17 24 30  5  6 10
  22041719.522   -16120690.58649 -12535780.38649  22041718.1764   22041723.8714
  22378841.697     7429344.59249   5784667.90649  22378841.5404   22378845.0564
  19671754.196   -10814460.13449  -8169595.69849  19671754.2284   19671757.5244
  20896047.191     1946158.78749   1525397.97949  20896046.8784   20896050.4624
  20044070.598   -20549176.40549 -16001577.49749  20044070.2594   20044073.8224
  20263932.049   -10493302.36349  -8155698.22649  20263931.2424   20263935.1854
 97  3 14  2 58 59.9960000  0  6 17 24 30  5  6 10
  22022131.772   -16223623.35649 -12615987.70149  22022131.1464   22022136.9804
  22387277.721     7473675.80049   5819211.71449  22387277.9704   22387282.1204
  19674077.894   -10802248.96749  -8160080.50849  19674077.8894   19674081.3074
  20907085.530     2004164.70749   1570597.40049  20907084.9364   20907088.7624
  20028157.487   -20632799.88349 -16066738.63349  20028156.8564   20028160.8544
  20266490.322   -10479858.36149  -8145222.37649  20266489.7014   20266493.6314
 97  3 14  2 59 29.9960000  0  6 17 24 30  5  6 10
  22002585.904   -16326336.70249 -12696024.03849  22002585.4874   22002591.4094
  22395712.412     7518001.40849   5853751.12849  22395711.4924   22395717.2594
  19676505.191   -10789492.99549  -8150140.79849  19676505.3994   19676508.9174
  20918176.293     2062447.54849   1616012.59849  20918176.2684   20918179.7314
  20012276.796   -20716252.95249 -16131766.98649  20012276.9694   20012280.2514
  20269147.216   -10465896.41649  -8134342.93549  20269146.4924   20269150.4264
 97  3 14  2 59 59.9960000  0  6 17 24 30  5  6 10
  21983094.213   -16428767.16649 -12775839.93849  21983094.0914   21983099.2424
  22404154.633     7562365.32149   5888320.36549  22404154.8764   22404160.2034
  19679042.246   -10776160.64049  -8139751.94649  19679042.4824   19679046.3024
  20929333.714     2121079.39449   1661699.75749  20929333.4944   20929337.2094
  19996437.079   -20799491.74949 -16196628.36649  19996436.7454   19996440.1224
  20271911.956   -10451367.52049  -8123021.70449  20271911.0584   20271914.8974
 97  3 14  3  0 29.9960000  0  6 17 24 30  5  6 10
  21963641.006   -16530995.53449 -12855498.38249  21963640.4384   21963645.7354
  22412589.355     7606688.34249   5922857.78449  22412589.2974   22412592.9234
  19681671.796   -10762342.53449  -8128984.59949  19681671.9624   19681675.6274
  20940545.034     2179994.26249   1707607.42749  20940544.6834   20940548.0434
  19980622.311   -20882598.85249 -16261387.14649  19980622.1834   19980625.3094
  20274768.641   -10436355.37949  -8111323.93449  20274767.3014   20274771.4574
 97  3 14  3  0 59.9960000  0  6 17 24 30  5  6 10
  21944236.001   -16632969.03649 -12934958.24249  21944234.4534   21944240.3384
  22421026.820     7651027.87149   5957408.02749  22421025.8474   22421031.9944
  19684405.795   -10747974.95849  -8117789.08749  19684405.7694   19684409.5264
  20951822.288     2239257.24649   1753786.36349  20951821.7364   20951825.9384
  19964843.030   -20965519.24549 -16326000.42749  19964842.9974   19964846.2934
  20277731.699   -10420784.17849  -8099190.52249  20277730.8394   20277734.9524
 97  3 14  3  1 29.9960000  0  6 17 24 30  5  6 10
  21924878.553   -16734692.65149 -13014223.35649  21924877.3934   21924882.5464
  22429466.322     7695377.91449   5991966.52049  22429467.1034   22429471.2864
  19687246.559   -10733046.21649  -8106156.30649  19687246.7834   19687250.3034
  20963166.274     2298870.46549   1800238.21149  20963165.2834   20963169.5844
  19949103.102   -21048233.23349 -16390452.87649  19949103.1134   19949106.5344
  20280804.599   -10404636.17549  -8086607.66049  20280803.7724   20280807.7534
 97  3 14  3  1 59.9960000  0  6 17 24 30  5  6 10
  21905555.016   -16836237.84049 -13093349.45049  21905553.0714   21905558.2914
  22437899.328     7739692.63849   6026497.46549  22437899.4254   22437903.6254
  19690186.357   -10717597.78849  -8094118.57549  19690186.6974   19690189.8004
  20974564.938     2358771.82749   1846914.58849  20974563.9624   20974568.3614
  19933397.602   -21130766.30449 -16454764.35249  19933397.4664   19933400.9604
  20283976.438   -10387968.36649  -8073619.75049  20283975.5464   20283979.6834
 97  3 14  3  2 29.9960000  0  6 17 24 30  5  6 10
  21886257.716   -16937646.10049 -13172368.85249  21886257.1394   21886262.3374
  22446322.681     7783957.98749   6060989.96149  22446321.8854   22446326.4234
  19693222.664   -10701642.29349  -8081685.72649  19693223.0854   19693226.4844
  20986007.307     2418902.56749   1893769.70849  20986006.7704   20986010.8064
  19917722.648   -21213138.93049 -16518950.79749  19917722.6084   19917726.0254
  20287239.312   -10370822.00549  -8060258.93849  20287238.4574   20287242.4334
 97  3 14  3  2 59.9960000  0  6 17 24 30  5  6 10
  21866994.369   -17038875.62049 -13251248.97249  21866993.3754   21866999.1734
  22454748.393     7828235.62849   6095492.00849  22454748.6614   22454751.5834
  19696368.175   -10685112.62049  -8068805.46849  19696368.3284   19696372.0544
  20997502.682     2479310.96749   1940841.17449  20997502.4624   20997506.1594
  19902091.515   -21295281.01749 -16582957.61249  19902091.6394   19902094.9414
  20290603.828   -10353141.01049  -8046481.53249  20290602.9984   20290607.1064
 97  3 14  3  3 29.9960000  0  6 17 24 30  5  6 10
  21847764.260   -17139929.74249 -13329992.39349  21847763.5184   21847768.6604
  22463177.241     7872528.63549   6130006.04849  22463176.5764   22463181.6834
  19699622.983   -10668007.95449  -8055477.16049  19699623.2054   19699626.9214
  21009050.089     2539992.54049   1988125.50149  21009049.6884   21009053.6794
  19886505.639   -21377185.50449 -16646779.27249  19886505.5494   19886508.9234
  20294066.137   -10334946.18649  -8032303.74349  20294065.4814   20294069.4934
 97  3 14  3  3 59.9960000  0  6 17 24 30  5  6 10
  21828567.267   -17240810.58549 -13408600.82249  21828567.2974   21828571.6684
  22471606.644     7916827.53949   6164524.65149  22471606.1714   22471611.0804
  19702984.828   -10650341.50449  -8041711.10349  19702985.0774   19702988.4594
  21020649.513     2600947.43049   2035622.80849  21020648.6284   21020653.4064
  19870962.154   -21458866.92649 -16710427.11649  19870961.9994   19870965.2494
  20297622.199   -10316258.82249  -8017742.15849  20297621.4694   20297625.2064
 97  3 14  3  4 29.9960000  0  6 17 24 30  5  6 10
  21809412.645   -17341468.20449 -13487035.28949  21809411.8784   21809417.4144
  22480042.524     7961158.93749   6199068.59649  22480041.9414   22480044.9754
  19706460.385   -10632077.16749  -8027479.15049  19706460.3614   19706464.0664
  21032310.293     2662225.68549   2083372.07649  21032309.5654   21032313.5064
  19855465.566   -21540302.29149 -16773883.22349  19855465.3974   19855468.6284
  20301280.610   -10297033.35349  -8002761.26949  20301279.8064   20301283.9784
 97  3 14  3  4 59.9960000  0  6 17 24 30  5  6 10
  21790295.079   -17441931.20349 -13565318.11549  21790295.3724   21790299.7784
  22488473.543     8005464.51749   6233592.42749  22488472.8544   22488477.5484
  19710039.385   -10613269.20549  -8012823.59949  19710039.7334   19710043.0524
  21044027.620     2723800.78349   2131352.67249  21044027.3134   21044031.2424
  19840007.449   -21621535.25649 -16837181.62249  19840007.3194   19840010.5064
  20305036.442   -10277296.33349  -7987381.76449  20305035.3374   20305039.6294
 97  3 14  3  5 29.9960000  0  6 17 24 30  5  6 10
  21771221.028   -17542166.71649 -13643423.68449  21771220.7774   21771225.0004
  22496903.885     8049765.91349   6268113.01449  22496903.5284   22496909.3694
  19713723.919   -10593907.56249  -7997736.61249  19713724.3634   19713727.7544
  21055804.177     2785686.96149   2179575.64949  21055803.5514   21055808.4124
  19824590.403   -21702552.42649 -16900311.86149  19824590.1924   19824593.5274
  20308890.236   -10257044.19649  -7971600.87449  20308889.5584   20308893.6844
 97  3 14  3  5 59.9960000  0  6 17 24 30  5  6 10
  21752177.312   -17642242.66349 -13721404.92949  21752176.2224   21752181.7794
  22505318.430     8093984.86049   6302569.33049  22505318.5524   22505324.7264
  19717496.031   -10574085.09949  -7982290.54849  19717496.4714   19717499.8444
  21067626.174     2847812.15849   2227984.88049  21067625.0574   21067629.8574
  19809195.854   -21783451.22349 -16963349.87249  19809195.7294   19809199.2184
  20312824.796   -10236368.30949  -7955489.78949  20312824.5444   20312827.9984
 97  3 14  3  6 29.9960000  0  6 17 24 30  5  6 10
  21733177.263   -17742088.30149 -13799206.68449  21733177.1454   21733181.6204
  22513732.815     8138203.62349   6337025.52049  22513731.7484   22513737.9844
  19721369.334   -10553730.63149  -7966429.93849  19721369.2804   19721372.9104
  21079505.019     2910236.44749   2276627.16049  21079504.3334   21079509.1204
  19793838.760   -21864153.30549 -17026234.59749  19793838.6514   19793841.8524
  20316855.538   -10215186.89049  -7938984.77649  20316854.7744   20316858.7994
 97  3 14  3  6 59.9960000  0  6 17 24 30  5  6 10
  21714229.624   -17841658.71249 -13876793.99149  21714229.6624   21714235.1264
  22522158.474     8182480.25849   6371526.79649  22522158.2844   22522164.0304
  19725350.047   -10532811.70349  -7950129.49349  19725350.3444   19725354.1544
  21091447.874     2972996.57549   2325531.14349  21091447.0154   21091452.2784
  19778531.620   -21944592.73649 -17088914.66149  19778531.3684   19778534.6614
  20320989.535   -10193462.55449  -7922056.70949  20320988.4924   20320992.4664
 97  3 14  3  7 29.9960000  0  7 17 24 30 26  5  6 10
  21695322.715   -17941015.94749 -13954215.18549  21695321.8414   21695327.1344
  22530585.699     8226764.58349   6406034.06549  22530585.0014   22530588.9564
  19729427.022   -10511387.08349  -7933434.98549  19729426.8924   19729430.4754
  23305139.085    -5476399.06149  -4255370.84349  23305138.8984   23305143.4184
  21103441.132     3036021.72649   2374641.64249  21103440.8424   21103445.3094
  19763263.974   -22024824.69249 -17151433.05349  19763263.6874   19763266.9874
  20325211.731   -10171274.59049  -7904767.38049  20325210.7394   20325214.8154
 97  3 14  3  7 59.9960000  0  7 17 24 30 26  5  6 10
  21676460.221   -18040138.71849 -14031453.67249  21676459.8894   21676464.5394
  22539016.163     8271068.03249   6440556.18849  22539017.2034   22539019.3764
  19733604.709   -10489433.09249  -7916327.98149  19733604.8604   19733608.5654
  23283813.707    -5588464.39549  -4342694.41049  23283812.3224   23283816.6694
  21115489.308     3099335.18949   2423976.80849  21115488.8414   21115493.3304
  19748042.250   -22104815.29749 -17213763.38149  19748042.2954   19748045.1614
  20329531.426   -10148574.42049  -7887078.93149  20329530.8094   20329534.6724
 97  3 14  3  8 29.9960000  0  7 17 24 30 26  5  6 10
  21657629.332   -18139095.10649 -14108562.48749  21657629.1454   21657633.7164
  22547439.199     8315330.29549   6475046.27149  22547439.8424   22547443.0244
  19737871.894   -10467009.03449  -7898854.69649  19737871.9264   19737875.9374
  23262484.378    -5700549.81149  -4430033.68749  23262483.4384   23262488.2844
  21127580.359     3162873.97249   2473487.54549  21127579.2014   21127583.7954
  19732861.743   -22184589.28849 -17275924.92649  19732861.8544   19732864.6564
  20333941.660   -10125398.72449  -7869019.95449  20333940.9964   20333944.9344
 97  3 14  3  8 59.9960000  0  7 17 24 30 26  5  6 10
  21638846.749   -18237798.07649 -14185473.85949  21638845.9494   21638851.4064
  22555868.510     8359624.33949   6509561.07149  22555868.5974   22555871.0594
  19742243.173   -10444037.75349  -7880955.00049  19742243.4094   19742247.1724
  23241163.657    -5812589.51349  -4517337.34049  23241163.6374   23241167.4564
  21139730.528     3226723.17549   2523240.16149  21139729.8804   21139734.2004
  19717737.399   -22264068.86249 -17337857.04749  19717737.3544   19717740.2544
  20338454.529   -10101682.86249  -7850540.06749  20338453.5624   20338457.7754
 97  3 14  3  9 29.9960000  0  7 17 24 30 26  5  6 10
  21620086.320   -18336384.57849 -14262294.48149  21620085.4164   21620090.8814
  22564276.671     8403807.93549   6543989.88549  22564276.7864   22564282.2304
  19746693.243   -10420652.82249  -7862732.97749  19746693.7384   19746696.7914
  23219824.554    -5924728.67449  -4604718.49149  23219825.4594   23219827.4744
  21151912.828     3290740.95049   2573124.13249  21151913.1754   21151916.5364
  19702640.197   -22343405.17849 -17399677.53849  19702639.9564   19702643.0834
  20343045.967   -10077554.57949  -7831738.79749  20343044.7634   20343049.4524
 97  3 14  3  9 59.9960000  0  7 17 24 30 26  5  6 10
  21601361.673   -18434783.40049 -14338968.85149  21601360.9794   21601366.5704
  22572677.637     8447957.33449   6578392.03049  22572677.7504   22572682.0884
  19751235.405   -10396783.87449  -7844133.80249  19751235.5644   19751238.9164
  23198478.958    -6036900.54949  -4692125.09349  23198477.5384   23198481.3934
  21164141.936     3355003.75749   2623199.02849  21164141.8594   21164145.6814
  19687583.760   -22422527.38349 -17461331.19649  19687583.3304   19687586.6904
  20347731.184   -10052933.46449  -7812553.50749  20347730.3694   20347734.4204
 97  3 14  3 10 29.9950000  0  7 17 24 30 26  5  6 10
  21582684.098   -18532933.81349 -14415449.66449  21582683.6394   21582689.3324
  22581084.238     8492132.99049   6612814.65849  22581084.4114   22581089.3024
  19755880.165   -10372375.58949  -7825114.36049  19755880.3694   19755883.7024
  23177137.428    -6149051.06149  -4779515.09249  23177138.5814   23177142.8654
  21176424.270     3419546.89649   2673492.36549  21176424.2674   21176428.2774
  19672576.597   -22501389.93249 -17522782.52749  19672576.1094   19672579.5084
  20352516.138   -10027788.18249  -7792959.76849  20352515.3874   20352519.2194
 97  3 14  3 10 59.9950000  0  7 17 24 30 26  5  6 10
  21564051.218   -18630849.77149 -14491747.79849  21564050.3694   21564055.8374
  22589491.901     8536315.27849   6647242.41149  22589491.6404   22589496.8764
  19760625.932   -10347436.68249  -7805681.44849  19760626.3534   19760629.5944
  23155798.152    -6261191.35649  -4866897.16849  23155797.3754   23155803.5044
  21188753.761     3484339.14449   2723979.82849  21188753.2014   21188757.2084
  19657611.869   -22580029.67149 -17584060.23649  19657611.8784   19657614.8684
  20357394.127   -10002154.64849  -7772985.57549  20357393.6404   20357396.9984
 97  3 14  3 11 29.9950000  0  7 17 24 30 26  5  6 10
  21545471.575   -18728485.95249 -14567827.92049  21545470.5514   21545476.4124
  22597907.981     8580541.76849   6681704.59649  22597907.7744   22597913.1994
  19765483.886   -10321908.38849  -7785789.27849  19765484.3104   19765487.6014
  23134473.293    -6373255.01349  -4954219.40449  23134473.6774   23134476.7694
  21201137.556     3549416.72949   2774689.63749  21201137.0584   21201140.9684
  19642700.569   -22658389.24949 -17645119.63549  19642700.3524   19642703.7854
  20362375.374    -9975978.21149  -7752588.34449  20362374.6914   20362378.6714
 97  3 14  3 11 59.9950000  0  7 17 24 30 26  5  6 10
  21526937.465   -18825883.59749 -14643722.16249  21526936.8424   21526941.5724
  22606323.807     8624767.87749   6716166.51349  22606322.7984   22606329.7264
  19770448.750   -10295817.54749  -7765458.76049  19770448.6034   19770452.5214
  23113159.262    -6485260.99849  -5041496.80049  23113160.5924   23113163.4644
  21213567.914     3614739.42549   2825590.43049  21213567.9524   21213571.7344
  19627836.469   -22736500.58049 -17705985.59149  19627836.3724   19627839.5044
  20367450.148    -9949310.19749  -7731808.06649  20367449.3384   20367453.3384
 97  3 14  3 12 29.9950000  0  7 17 24 30 26  5  6 10
  21508438.831   -18923094.89149 -14719471.19949  21508438.1484   21508443.3394
  22614728.026     8668932.58049   6750580.55849  22614727.6604   22614732.6124
  19775512.345   -10269207.88449  -7744723.96949  19775512.4584   19775515.8884
  23091845.687    -6597265.16849  -5128772.79649  23091846.9374   23091849.6294
  21226033.811     3680247.84549   2876635.95549  21226032.8434   21226037.0324
  19613011.590   -22814406.09549 -17766691.16749  19613011.3654   19613014.5294
  20372609.897    -9922195.90449  -7710680.03349  20372608.9764   20372613.1094
 97  3 14  3 12 59.9950000  0  7 17 24 30 26  5  6 10
  21489976.476   -19020115.19949 -14795071.41549  21489975.1004   21489980.8734
  22623122.831     8713047.95549   6784956.15549  22623121.4294   22623127.5704
  19780678.959   -10242056.95449  -7723567.41349  19780679.0514   19780682.4384
  23070534.582    -6709255.15049  -5216037.69549  23070534.8714   23070540.5074
  21238539.311     3745964.98749   2927844.10949  21238538.8364   21238542.9434
  19598230.483   -22892081.36749 -17827217.35049  19598230.1284   19598233.5014
  20377857.686    -9894618.32849  -7689191.01249  20377856.8734   20377861.1124
 97  3 14  3 13 29.9950000  0  7 17 24 30 26  5  6 10
  21471544.090   -19116977.29649 -14870548.34249  21471543.3504   21471548.4584
  22631505.111     8757096.54349   6819279.71949  22631505.1854   22631510.7604
  19785941.587   -10214401.48649  -7702017.70249  19785941.8474   19785945.2654
  23049221.567    -6821255.81949  -5303310.92949  23049221.5764   23049224.9624
  21251081.390     3811874.05049   2979201.80849  21251080.9534   21251085.1354
  19583490.867   -22969538.45349 -17887573.50849  19583490.5324   19583493.9604
  20383190.498    -9866594.15649  -7667353.99349  20383189.6414   20383193.4514
 97  3 14  3 13 59.9950000  0  7 17 24 30 26  5  6 10
  21453152.052   -19213627.29549 -14945860.02049  21453151.6824   21453156.2644
  22639888.028     8801147.69349   6853605.23449  22639885.6434   22639892.8354
  19791305.290   -10186215.56949  -7680054.65149  19791305.5544   19791309.0604
  23027917.340    -6933208.86949  -5390547.03849  23027917.1554   23027922.0174
  21263670.372     3878029.64249   3030751.61849  21263669.6584   21263674.8014
  19568804.169   -23046717.29049 -17947712.85249  19568803.8494   19568807.2184
  20388616.991    -9838077.32049  -7645133.07649  20388616.0354   20388620.6024
 97  3 14  3 14 29.9950000  0  7 17 24 30 26  5  6 10
  21434804.922   -19310042.75449 -15020988.93949  21434804.6834   21434808.9384
  22648274.332     8845221.86049   6887948.67349  22648273.0274   22648280.3564
  19796770.233   -10157497.26349  -7657676.74749  19796770.2914   19796774.0084
  23006625.927    -7045093.30849  -5477729.64449  23006627.0644   23006630.6064
  21276309.633     3944449.87849   3082507.61849  21276309.4174   21276312.3754
  19554175.397   -23123591.60449 -18007614.90649  19554175.4464   19554178.4264
  20394139.059    -9809058.28749  -7622520.83649  20394138.0624   20394142.4834
 97  3 14  3 14 59.9950000  0  7 17 24 30 26  5  6 10
  21416498.521   -19406244.53049 -15095951.33249  21416498.0374   21416502.4594
  22656661.784     8889298.18749   6922293.90349  22656661.1604   22656665.5074
  19802327.466   -10128293.55449  -7634920.61849  19802327.6344   19802331.1624
  22985346.602    -7156917.89549  -5564865.63049  22985347.3754   22985350.2444
  21288996.313     4011118.77949   3134457.39849  21288995.2554   21288999.8624
  19539600.041   -23200185.76949 -18067298.65749  19539600.0764   19539603.0874
  20399748.896    -9779578.94449  -7599549.92449  20399747.9284   20399752.5674
 97  3 14  3 15 29.9950000  0  7 17 24 30 26  5  6 10
  21398220.921   -19502293.70349 -15170794.82649  21398220.2004   21398225.0264
  22665036.371     8933309.22349   6956588.16549  22665036.4624   22665041.3374
  19807959.263   -10098698.13549  -7611859.25449  19807959.4454   19807963.1124
  22964066.180    -7268748.21149  -5652006.09849  22964066.0384   22964070.5514
  21301718.715     4077975.79749   3186553.76049  21301718.5374   21301722.0404
  19525064.876   -23276569.19449 -18126818.19249  19525064.6094   19525067.6414
  20405434.779    -9749699.29849  -7576267.08849  20405433.9724   20405438.1514
 97  3 14  3 15 59.9950000  0  7 17 24 30 26  5  6 10
  21379979.651   -19598151.87249 -15245489.47149  21379979.1484   21379983.0954
  22673405.194     8977287.56349   6990856.98849  22673406.1284   22673407.7174
  19813673.707   -10068668.48549  -7588459.53149  19813673.9094   19813677.6254
  22942793.701    -7380536.07749  -5739113.51849  22942793.5154   22942797.2594
  21314485.496     4145065.43649   3238831.38849  21314485.4094   21314488.9284
  19510574.109   -23352718.61049 -18186155.38349  19510573.8414   19510577.1934
  20411203.748    -9719383.46549  -7552644.35449  20411202.6384   20411207.0394
 97  3 14  3 16 29.9950000  0  7 17 24 30 26  5  6 10
  21361779.682   -19693793.60049 -15320015.47649  21361778.7784   21361784.1114
  22681769.363     9021240.87449   7025106.26649  22681769.4084   22681774.9224
  19819477.914   -10038167.23349  -7564692.32849  19819478.3414   19819481.7214
  22921533.431    -7492260.44649  -5826171.44449  22921534.2124   22921537.6214
  21327300.945     4212410.72249   3291308.22449  21327300.8174   21327304.4334
  19496129.908   -23428623.21349 -18245301.80649  19496129.3604   19496132.9274
  20417059.189    -9688612.80749  -7528667.21349  20417058.3354   20417062.1704
 97  3 14  3 16 59.9950000  0  7 17 24 30 26  5  6 10
  21343615.937   -19789244.14249 -15394392.51149  21343614.9534   21343620.4884
  22690124.342     9065146.22849   7059318.26349  22690123.2154   22690127.0124
  19825366.305   -10007223.94249  -7540580.67849  19825366.4744   19825370.3714
  22900278.505    -7603956.45849  -5913207.28549  22900279.7064   22900282.5484
  21340160.205     4279985.68149   3343964.00449  21340159.8154   21340163.0904
  19481726.218   -23504314.76449 -18304282.21649  19481726.2224   19481729.4474
  20422997.173    -9657408.02349  -7504351.79649  20422996.1144   20423000.8434
 97  3 14  3 17 29.9950000  0  7 17 24 30 26  5  6 10
  21325489.259   -19884499.76449 -15468617.64949  21325488.3624   21325494.4854
  22698470.917     9109007.07549   7093495.60649  22698470.1864   22698474.6554
  19831342.289    -9975819.79549  -7516109.92149  19831342.3274   19831346.3584
  22879030.143    -7715618.75349  -6000216.86149  22879029.2484   22879034.0894
  21353061.115     4347780.13549   3396790.85149  21353060.9044   21353064.8374
  19467362.332   -23579797.80949 -18363100.16649  19467361.9064   19467365.0904
  20429016.586    -9625775.69449  -7479703.22749  20429016.1564   20429019.6114
 97  3 14  3 17 59.9950000  0  7 17 24 30 26  5  6 10
  21307404.494   -19979536.13249 -15542671.93449  21307403.6814   21307409.2154
  22706813.207     9152844.36249   7127654.62249  22706815.8684   22706813.5984
  19837414.061    -9943912.51349  -7491247.10949  19837414.2644   19837417.6444
  22857791.521    -7827227.18349  -6087184.43349  22857790.4214   22857793.9064
  21366003.742     4415794.53249   3449789.08949  21366003.3044   21366007.2504
  19453041.641   -23655053.02549 -18421740.59349  19453041.3004   19453044.5324
  20435117.289    -9593716.69849  -7454722.18649  20435116.5734   20435120.4774
 97  3 14  3 18 29.9950000  0  7 17 24 30 26  5  6 10
  21289366.454   -20074326.87349 -15616534.83049  21289364.9894   21289370.6824
  22715153.896     9196674.17849   7161807.78949  22715151.6884   22715158.3444
  19843585.431    -9911481.09649  -7465975.87849  19843585.4624   19843589.2734
  22836562.518    -7938784.64749  -6174112.30149  22836561.5774   22836565.8714
  21378987.919     4484027.20749   3502957.41149  21378987.0454   21378991.3214
  19438769.150   -23730055.04949 -18480183.72349  19438768.9904   19438772.0294
  20441301.760    -9561217.38949  -7429398.04749  20441300.6624   20441304.8794
 97  3 14  3 18 59.9950000  0  7 17 24 30 26  5  6 10
  21271372.243   -20168886.12449 -15690217.34549  21271370.8464   21271376.6434
  22723493.258     9240499.37549   7195957.27549  22723492.4244   22723499.3754
  19849852.426    -9878547.62049  -7440313.44549  19849852.5034   19849856.3094
  22815341.062    -8050302.06049  -6261008.98149  22815341.6984   22815345.0674
  21392010.102     4552459.79649   3556281.49149  21392009.1604   21392014.2044
  19424545.056   -23804803.62049 -18538429.36249  19424544.8874   19424548.1174
  20447568.445    -9528285.49949  -7403736.83349  20447567.9134   20447571.6314
 97  3 14  3 19 29.9950000  0  8 17 24 30 26  5  6 23 10
  21253415.349   -20263249.21249 -15763747.00249  21253415.0174   21253420.0094
  22731824.919     9284284.34249   7230075.43849  22731823.6264   22731829.6954
  19856211.416    -9845130.60449  -7414274.23249  19856211.8214   19856215.3774
  22794124.917    -8161793.09749  -6347885.07849  22794124.6364   22794128.8214
  21405063.271     4621055.64049   3609732.80049  21405062.7234   21405067.3114
  19410364.672   -23879321.78449 -18596495.45349  19410364.5544   19410367.8464
  23363901.928    -3311050.35349  -2547502.36949  23363901.4584   23363906.4954
  20453914.246    -9494938.55849  -7377752.18949  20453913.5904   20453917.1354
 97  3 14  3 19 59.9950000  0  8 17 24 30 26  5  6 23 10
  21235504.872   -20357370.00749 -15837087.85949  21235504.2464   21235508.6364
  22740157.788     9328073.66749   7264196.95749  22740159.1454   22740162.9894
  19862668.066    -9811201.16249  -7387835.72649  19862668.1814   19862671.7064
  22772922.708    -8273209.15749  -6434702.78749  22772922.9534   22772927.1494
  21418156.984     4689863.75849   3663349.52149  21418156.1894   21418161.5294
  19396239.744   -23953548.73649 -18654334.63349  19396239.5034   19396242.9824
  23337764.926    -3448400.89349  -2654528.73249  23337763.9924   23337768.4224
  20460353.607    -9461099.43549  -7351384.02749  20460352.7434   20460356.5804
 97  3 14  3 20 29.9950000  0  8 17 24 30 26  5  6 23 10
  21217636.155   -20451271.56949 -15910257.88549  21217635.6864   21217640.0754
  22748489.175     9371853.15649   7298310.96049  22748487.2604   22748491.9094
  19869214.844    -9776797.81849  -7361027.93449  19869215.2594   19869218.1114
  22751734.972    -8384550.91249  -6521462.58349  22751733.4434   22751739.6964
  21431291.076     4758883.46949   3717131.08949  21431290.6964   21431295.0694
  19382168.898   -24027491.53449 -18711952.40049  19382168.8344   19382171.8534
  23311641.539    -3585681.09649  -2761500.28949  23311642.2364   23311645.1724
  20466884.860    -9426777.47549  -7324639.64049  20466884.0814   20466887.9524
 97  3 14  3 20 59.9950000  0  7 17 30 26  5  6 23 10
  21199801.698   -20544992.07949 -15983286.82549  21199801.1234   21199806.1784
  19875844.917    -9741956.70649  -7333879.02249  19875845.0794   19875848.7484
  22730559.939    -8495824.75349  -6608169.42949  22730560.3314   22730564.7944
  21444460.117     4828086.87749   3771055.82649  21444459.8894   21444463.9654
  19368146.222   -24101181.28549 -18769372.97749  19368145.9224   19368149.2144
  23285526.027    -3722918.18649  -2868438.16949  23285524.5574   23285531.6534
  20473500.970    -9392009.26949  -7297547.53349  20473499.8114   20473503.9954
 97  3 14  3 21 29.9950000  0  7 17 30 26  5  6 23 10
  21182004.750   -20638516.23349 -16056162.77449  21182004.3044   21182008.8464
  19882560.968    -9706663.65949  -7306377.94749  19882561.2694   19882564.9954
  22709402.930    -8607004.85049  -6694803.25949  22709401.9384   22709408.1274
  21457665.184     4897479.75849   3825128.20849  21457664.5184   21457668.9344
  19354173.998   -24174605.41749 -18826586.57649  19354173.8244   19354177.1494
  23259425.221    -3860077.50149  -2975315.46849  23259423.7264   23259428.6054
  20480203.692    -9356786.09849  -7270100.91249  20480202.3614   20480206.9094
 97  3 14  3 21 59.9950000  0  7 17 30 26  5  6 23 10
  21164245.787   -20731840.47949 -16128882.93549  21164244.8084   21164249.2114
  19889359.473    -9670937.18549  -7278539.14149  19889359.8434   19889363.5834
  22688264.905    -8718086.76449  -6781360.60049  22688266.0904   22688269.3714
  21470906.222     4967061.12849   3879347.43849  21470906.1714   21470909.6854
  19340252.639   -24247762.57649 -18883592.14649  19340252.3024   19340255.8514
  23233339.924    -3997156.41149  -3082130.17749  23233339.2344   23233343.6414
  20486987.680    -9321135.54249  -7242321.25249  20486986.4544   20486990.9314
 97  3 14  3 22 29.9950000  0  7 17 30 26  5  6 23 10
  21146522.422   -20824977.21749 -16201456.99949  21146521.7084   21146526.8184
  19896243.118    -9634763.57749  -7250351.92349  19896243.3774   19896246.9814
  22667145.301    -8829072.10249  -6867842.62749  22667145.9214   22667150.9324
  21484180.671     5036818.22449   3933703.59549  21484180.5914   21484184.4544
  19326380.623   -24320660.41349 -18940395.64549  19326380.3954   19326383.8844
  23207269.234    -4134158.23049  -3188884.78149  23207268.6824   23207273.1654
  20493846.607    -9285091.73649  -7214235.17949  20493845.8264   20493849.9564
 97  3 14  3 22 59.9950000  0  7 17 30 26  5  6 23 10
  21128834.874   -20917926.16649 -16273884.72449  21128834.6724   21128838.4404
  19903211.514    -9598145.01049  -7221817.98649  19903211.5134   19903215.0914
  22646043.247    -8939963.70949  -6954251.67849  22646043.1414   22646047.4254
  21497484.617     5106730.87149   3988180.96149  21497484.5414   21497488.5774
  19312556.656   -24393305.43949 -18997002.14649  19312556.1864   19312559.8484
  23181213.150    -4271082.51249  -3295578.94849  23181212.2214   23181217.4124
  20500780.150    -9248655.76149  -7185843.50949  20500778.9764   20500783.6414
 97  3 14  3 23 29.9950000  0  7 17 30 26  5  6 23 10
  21111192.831   -21010635.87649 -16346126.01349  21111191.9764   21111196.3774
  19910274.826    -9561026.94649  -7192894.82749  19910275.1034   19910278.5394
  22624969.476    -9050706.10749  -7040544.47449  22624969.4104   22624973.4124
  21510829.388     5176857.35249   4042824.97249  21510828.6634   21510832.7714
  19298792.979   -24465633.56549 -19053361.72049  19298792.6244   19298796.2674
  23155180.980    -4407881.88049  -3402175.83849  23155179.6234   23155184.7124
  20507800.888    -9211761.58749  -7157094.79549  20507799.9664   20507803.9694
 97  3 14  3 23 59.9950000  0  8 17 24 30 26  5  6 23 10
  21093569.654   -21103245.49249 -16418289.31849  21093568.8864   21093573.7954
  22806547.130                                    22806545.667    22806620.0294
  19917407.786    -9523543.36249  -7163686.84549  19917408.0954   19917411.6654
  22603896.570    -9161444.23549  -7126833.92849  22603896.5784   22603901.9494
  21524190.472     5247069.52449   4097535.75649  21524189.7834   21524193.0904
  19285065.781   -24537770.40949 -19109572.23649  19285065.7574   19285069.1504
  23129146.065    -4544696.07149  -3508784.27849  23129145.0164   23129149.5424
  20514884.185    -9174538.50749  -7128089.80249  20514883.6124   20514887.5054
 97  3 14  3 24 29.9950000  0  8 17 24 30 26  5  6 23 10
  21075981.610   -21195671.31049 -16490309.40749  21075981.2924   21075985.6634
  22814809.176                                    22814811.395    22814811.9524
  19924626.274    -9485609.97949  -7134128.37449  19924626.5284   19924630.2764
  22582838.550    -9272106.94549  -7213064.55449  22582839.2764   22582843.2024
  21537581.558     5317440.69849   4152370.42849  21537581.0034   21537584.9184
  19271389.885   -24609638.08849 -19165573.01349  19271389.7644   19271393.2004
  23103124.079    -4681440.61449  -3615338.42249  23103122.4014   23103128.4404
  20522047.662    -9136893.86749  -7098756.31049  20522046.5834   20522050.6344
 97  3 14  3 24 59.9950000  0  8 17 24 30 26  5  6 23 10
  21058440.608   -21287850.21049 -16562137.11049  21058440.0154   21058444.2894
  22823090.351                                    22823092.922    22823095.7884
  19931938.633    -9447183.71249  -7104185.84449  19931939.2764   19931942.0754
  22561806.522    -9382632.27249  -7299188.16249  22561807.1264   22561811.9134
  21551014.575     5388031.73149   4207376.42749  21551013.8044   21551017.9564
  19257776.098   -24681179.02349 -19221319.20249  19257776.0994   19257779.2394
  23077125.316    -4818063.17049  -3721797.50749  23077124.3694   23077128.5074
  20529303.978    -9098761.27549  -7069042.59849  20529303.1194   20529307.5084
 97  3 14  3 25 29.9950000  0  8 17 24 30 26  5  6 23 10
  21040948.708   -21379770.21149 -16633763.06849  21040947.8154   21040952.4814
  22831388.240      148300.88149    111051.05859  22831387.9694   22831391.9214
  19939346.831    -9408253.81949  -7073850.87249  19939347.2074   19939350.2434
  22540801.838    -9493013.17749  -7385199.20249  22540801.5384   22540806.3664
  21564491.555     5458853.28749   4262562.02549  21564491.2434   21564494.2604
  19244226.523   -24752382.69249 -19276802.57649  19244226.5894   19244229.8684
  23051152.478    -4954551.38749  -3828151.94449  23051152.9594   23051158.3264
  20536653.182    -9060140.58849  -7038948.55449  20536652.5914   20536656.1764
 97  3 14  3 25 59.9950000  0  8 17 24 30 26  5  6 23 10
  21023486.112   -21471537.13249 -16705269.73949  21023484.9344   21023490.2214
  22839670.894      191821.55249    144963.24949  22839668.5364   22839671.8974
  19946827.760    -9368941.50849  -7043217.91049  19946828.0784   19946831.2884
  22519801.510    -9603370.61149  -7471191.96949  22519802.3954   22519806.5674
  21577987.915     5529778.13049   4317828.14149  21577987.2104   21577990.6594
  19230718.433   -24823368.83749 -19332116.44049  19230718.1514   19230721.4294
  23025185.106    -5091009.81549  -3934483.13849  23025184.9364   23025190.5834
  20544069.299    -9021169.09349  -7008581.15649  20544068.7674   20544072.3424
 97  3 14  3 26 29.9950000  0  8 17 24 30 26  5  6 23 10
  21006080.769   -21563002.03749 -16776541.07049  21006079.8844   21006085.1704
  22847956.018      235367.46449    178895.15249  22847956.0294   22847962.4064
  19954408.533    -9329104.49749  -7012176.08849  19954408.3614   19954412.1064
  22498835.782    -9713547.57149  -7557044.09049  22498835.9604   22498841.0274
  21591529.553     5600940.50249   4373279.34349  21591528.7164   21591532.3714
  19217276.996   -24894003.70949 -19387156.59549  19217276.7164   19217280.0394
  22999252.059    -5227289.40549  -4040674.99849  22999252.0494   22999256.4584
  20551573.837    -8981732.85249  -6977851.62049  20551573.2324   20551577.1834
 97  3 14  3 26 59.9950000  0  8 17 24 30 26  5  6 23 10
  20988713.388   -21654268.34449 -16847657.65549  20988712.3074   20988716.6784
  22856225.543      278825.53449    212758.62849  22856226.3144   22856230.6124
  19962071.539    -9288834.60149  -6980796.95049  19962071.8054   19962075.0544
  22477889.641    -9823620.60449  -7642815.25449  22477890.2104   22477893.1204
  21605099.787     5672253.66449   4428848.01449  21605098.9114   21605103.0754
  19203887.331   -24964367.38749 -19441985.42849  19203887.2954   19203890.3494
  22973338.263    -5363467.75049  -4146787.93649  22973338.3794   22973343.6974
  20559147.475    -8941933.08749  -6946838.81149  20559146.6494   20559150.7674
 97  3 14  3 27 29.9950000  0  8 17 24 30 26  5  6 23 10
  20971392.073   -21745292.30949 -16918585.39849  20971391.5284   20971395.4664
  22864486.865      322240.02649    246588.21249  22864487.0954   22864489.2854
  19969824.744    -9248091.18249  -6949048.83949  19969825.0684   19969828.0804
  22456972.684    -9933539.59249  -7728466.38449  22456972.2224   22456976.6494
  21618706.861     5743759.38049   4484566.75049  21618706.1014   21618710.5994
  19190559.095   -25034407.77149 -19496562.35049  19190559.0924   19190562.1064
  22947456.978    -5499477.27049  -4252769.29849  22947455.5574   22947461.6534
  20566797.300    -8901733.01249  -6915514.07249  20566796.3634   20566800.1494
 97  3 14  3 27 59.9950000  0  8 17 24 30 26  5  6 23 10
  20954115.690   -21836080.59749 -16989329.49549  20954114.2194   20954119.8124
  22872742.096      365620.17149    280390.84749  22872740.9814   22872746.2974
  19977665.867    -9206885.95249  -6916940.87049  19977665.9604   19977669.1134
  22436086.255   -10043297.60049  -7813992.06049  22436084.8124   22436091.1514
  21632350.367     5815457.03249   4540435.05249  21632350.2264   21632354.0534
  19177293.881   -25104116.94249 -19550881.17249  19177293.6664   19177296.8794
  22921605.937    -5635325.29649  -4358624.82549  22921605.6834   22921610.0874
  20574522.594    -8861135.85449  -6883879.91749  20574521.7154   20574525.6794
 97  3 14  3 28 29.9950000  0  8 17 24 30 26  5  6 23 10
  20936878.032   -21926664.22949 -17059914.10649  20936877.5014   20936881.5954
  22880990.277      408966.13049    314166.87849  22880987.5524   22880995.9304
  19985590.227    -9165242.99649  -6884491.81449  19985590.5844   19985594.1054
  22415228.635   -10152901.23949  -7899397.43949  22415227.9214   22415234.2264
  21646027.887     5887333.41549   4596442.62949  21646027.6574   21646032.1884
  19164089.195   -25173507.95749 -19604952.08049  19164088.9174   19164092.2734
  22895780.900    -5771037.73749  -4464374.74549  22895781.2014   22895784.6464
  20582322.290    -8820148.20749  -6851941.49549  20582321.5354   20582325.8194
 97  3 14  3 28 59.9950000  0  8 17 24 30 26  5  6 23 10
  20919668.574   -22017100.33949 -17130383.78249  20919668.4554   20919672.7214
  22889226.437      452248.81449                  22889222.2214   22889217.4604
  19993585.546    -9123227.25049  -6851752.27749  19993585.6894   19993589.1374
  22394390.768   -10262404.02449  -7984724.24849  22394391.2064   22394395.1894
  21659730.820     5959342.94049   4652553.93849  21659730.1514   21659735.3804
  19150935.561   -25242630.34349 -19658813.66649  19150935.2834   19150938.5764
  22869969.558    -5906677.25049  -4570067.84749  22869969.1304   22869972.9134
  20590190.040    -8778803.06149  -6819724.49549  20590188.8694   20590192.7784
 97  3 14  3 29 29.9950000  0  8 17 24 30 26  5  6 23 10
  20902490.426   -22107372.48449 -17200725.69849  20902490.1374   20902494.2124
  22897452.406                                    22897453.952    22897461.7264
  20001654.515    -9080824.84149  -6818711.43949  20001654.5134   20001658.1104
  22373570.985   -10371813.57349  -8069978.41949  22373572.0584   22373575.5104
  21673457.489     6031476.08949   4708761.58849  21673457.5284   21673461.1094
  19137833.189   -25311483.69249 -19712465.62849  19137832.8244   19137836.1504
  22844167.507    -6042268.38249  -4675723.23049  22844167.1924   22844171.0504
  20598129.208    -8737082.55249  -6787215.01249  20598128.3034   20598132.1314
 97  3 14  3 29 59.9950000  0  8 17 24 30 26  5  6 23 10
  20885354.675   -22197421.95149 -17270894.08249  20885354.0304   20885358.7954
  22905679.516      538709.94559    415266.16059  22905674.7114   22905690.8174
  20009808.678    -9037974.04449  -6785321.21549  20009808.6884   20009812.6054
  22352777.534   -10481086.41249  -8155126.05149  22352777.1944   22352780.7064
  21687217.186     6103784.15149   4765105.52649  21687217.3424   21687221.8764
  19124792.799   -25380011.02749 -19765863.55649  19124792.7224   19124795.9704
  22818383.089    -6177766.51649  -4781306.16049  22818382.1634   22818386.8014
  20606150.076    -8694932.53549  -6754370.83749  20606149.5504   20606152.9744
 97  3 14  3 30 29.9950000  0  8 17 24 30 26  5  6 23 10
  20868243.752   -22287340.10049 -17340960.14449  20868242.7764   20868247.8584
  22913890.510      581859.52549    448889.06949  22913888.0654   22913899.7524
  20018032.578    -8994756.89749  -6751645.53049  20018032.7744   20018036.3964
  22331993.366   -10590307.87349  -8240233.65249  22331993.9024   22331998.3074
  21700990.454     6176162.76149   4821504.42449  21700989.8974   21700995.0684
  19111795.544   -25448312.16849 -19819085.22549  19111795.3994   19111798.8704
  22792600.864    -6313251.77749  -4886879.03549  22792600.0714   22792604.2954
  20614235.900    -8652441.02349  -6721260.56549  20614235.5224   20614239.3404
 97  3 14  3 30 59.9950000  0  8 17 24 30 26  5  6 23 10
  20851176.741   -22377027.26949 -17410846.22149  20851175.9514   20851180.8484
  22922101.512      625005.97849    482509.66649  22922101.6294   22922100.2654
  20026343.194    -8951084.42049  -6717615.05049  20026343.4414   20026346.6034
  22311236.844   -10699384.57849  -8325228.46249  22311237.7714   22311241.7104
  21714792.276     6248690.70749   4878019.68249  21714792.2224   21714796.8784
  19098857.232   -25516303.14849 -19872065.19949  19098857.0164   19098860.2844
  22766838.471    -6448633.18349  -4992371.02949  22766837.4664   22766842.5164
  20622404.339    -8609515.80749  -6687812.33749  20622403.6374   20622407.1864
 97  3 14  3 31 29.9950000  0  8 17 24 30 26  5  6 23 10
  20834154.854   -22466477.27749 -17480547.50449  20834154.3354   20834158.6914
  22930309.718      668138.90749    516119.74249  22930306.4994   22930314.5084
  20034740.970    -8906954.25449  -6683227.92549  20034741.3774   20034743.9434
  22290507.919   -10808316.88749  -8410110.78549  22290507.7834   22290511.3614
  21728619.434     6321352.90749   4934639.58649  21728617.9914   21728622.5394
  19085980.361   -25583971.37249 -19924793.68849  19085980.2114   19085983.5394
  22741101.659    -6583880.88449  -5097758.76049  22741100.9134   22741105.5364
  20630654.590    -8566160.48549  -6654028.97149  20630654.1354   20630657.9794
 97  3 14  3 31 59.9950000  0  8 17 24 30 26  5  6 23 10
  20817164.106   -22555764.41549 -17550121.87049  20817164.0474   20817167.7774
  22938501.127      711189.09049    549665.35949  22938497.3994   22938506.3464
  20043208.107    -8862459.69849  -6648556.86349  20043208.4464   20043211.2264
  22269798.190   -10917147.84549  -8494914.12249  22269797.7904   22269802.9084
  21742459.390     6394083.35449   4991312.62649  21742458.9894   21742463.5824
  19073153.640   -25651376.21649 -19977316.94249  19073153.5614   19073156.8024
  22715383.570    -6719029.54049  -5203069.36749  22715383.5474   22715386.9694
  20638970.324    -8522461.10849  -6619977.51049  20638969.8094   20638973.5954
 97  3 14  3 32 29.9950000  0  7 17 30 26  5  6 23 10
  20800210.008   -22644858.85949 -17619546.08049  20800209.8244   20800214.0964
  20051748.538    -8817579.42149  -6613585.23549  20051748.6334   20051751.8174
  22249116.782                    -8579601.12349  22249118.796    22249120.5384
  21756319.826     6466920.26849   5048068.63049  21756319.2044   21756324.4984
  19060381.931   -25718492.02549 -20029614.96649  19060381.8624   19060385.3354
  22689691.021    -6854046.04849  -5308277.02649  22689690.3144   22689694.9074
  20647358.575    -8478380.83049  -6585629.24949  20647357.7324   20647361.8974
 97  3 14  3 32 59.9950000  0  7 17 30 26  5  6 23 10
  20783318.345   -22733624.96849 -17688714.44649  20783317.3894   20783322.5934
  20060387.395    -8772181.88749  -6578210.55249  20060387.7534   20060390.9654
  22228485.859                    -8664082.34649  22228486.179    22228489.0684
  21770227.887     6540008.54749   5105020.52149  21770226.9364   21770232.2724
  19047694.220   -25785166.42649 -20081569.04049  19047694.0464   19047697.2874
  22664051.799    -6988781.34249  -5413265.52049  22664050.1154   22664055.3444
  20655841.701    -8433802.09049  -6550892.57349  20655840.3894   20655844.3874
 97  3 14  3 33 29.9950000  0  8 17 24 30 26  5  6 23 10
  20766458.733   -22822222.67449 -17757751.58449  20766457.9304   20766463.2134
  22963059.743                                    22963056.877    22963131.2334
  20069095.615    -8726419.89649  -6542551.86149  20069095.9444   20069099.3494
  22207872.646   -11242570.55859  -8748490.29349  22207871.2814   22207876.3544
  21784154.486     6613193.73849   5162047.93849  21784153.5244   21784158.4444
  19035062.145   -25851548.26749 -20133295.13549  19035062.0814   19035065.4664
  22638438.184    -7123381.55849  -5518148.76849  22638437.0764   22638441.5624
  20664385.768    -8388902.01449  -6515905.50349  20664384.7744   20664389.1744
 97  3 14  3 33 59.9950000  0  8 17 24 30 26  5  6 23 10
  20749639.696   -22910607.14549 -17826622.57249  20749639.1244   20749643.6934
  22971236.025                                    22971234.255    22971240.6104
  20077881.307    -8680250.32249  -6506575.57149  20077881.1224   20077885.3414
  22187285.210   -11350756.94649  -8832791.33049  22187284.2634   22187288.5434
  21798110.141     6686530.53749   5219193.50949  21798109.6434   21798114.2014
  19022490.414   -25917613.21249 -20184774.30149  19022490.1044   19022493.5964
  22612854.913    -7257822.22149  -5622907.70049  22612854.7064   22612857.6464
  20672996.590    -8343651.86449  -6480645.65649  20672995.4434   20672999.6264
 97  3 14  3 34 29.9950000  0  8 17 24 30 26  5  6 23 10
  20732867.654   -22998745.08249 -17895301.45549  20732866.8154   20732871.2014
  22979413.374                                    22979410.855    22979417.4234
  20086750.671    -8633640.76449  -6470256.43449  20086750.9024   20086754.5094
  22166726.017   -11458794.83049  -8916976.69049  22166725.7554   22166729.1204
  21812099.228     6760042.52349   5276475.57749  21812099.3084   21812104.1944
  19009981.601   -25983347.14149 -20235995.53849  19009981.6544   19009984.8784
  22587305.354    -7392086.98749  -5727529.59149  22587303.9654   22587308.8194
  20681678.375    -8298028.60049  -6445095.06049  20681677.9124   20681681.7484
 97  3 14  3 34 59.9950000  0  8 17 24 30 26  5  6 23 10
  20716129.068   -23086705.79949 -17963842.25349  20716127.8134   20716133.0664
  22987573.683      109600.49159                  22987573.484    22987578.5554
  20095690.380    -8586662.89449  -6433650.29349  20095690.6234   20095693.9994
  22146183.922   -11566743.92949  -9001092.84149  22146184.0064   22146187.5824
  21826102.872     6833630.46249   5333816.82849  21826102.7634   21826106.9534
  18997524.995   -26048807.17449 -20287003.35049  18997524.9474   18997528.0034
  22561775.763    -7526244.93549  -5832068.22649  22561773.7294   22561779.5204
  20690416.160    -8252111.45849  -6409315.46449  20690415.5134   20690418.9354
 97  3 14  3 35 29.9940000  0  8 17 24 30 26  5  6 23 10
  20699436.309   -23174426.21749 -18032195.79349  20699436.1794   20699440.6664
  22995730.025      192727.71259    142994.67149  22995729.6084   22995735.1334
  20104706.965    -8539280.26449  -6396728.76349  20104706.5814   20104710.8224
  22125675.229   -11674517.44749  -9085072.18949  22125674.9344   22125678.3914
  21840127.391     6907329.56149   5391244.69649  21840126.7854   21840131.0964
  18985127.169   -26113958.12349 -20337770.31049  18985126.9704   18985130.3044
  22536273.923    -7660255.76449  -5936492.22149  22536272.5434   22536278.6994
  20699223.279    -8205829.88949  -6373251.88949  20699222.2774   20699226.4224
 97  3 14  3 35 59.9940000  0  8 17 24 30 26  5  6 23 10
  20682778.816   -23261962.06049 -18100405.49849  20682778.6604   20682782.9934
  23003868.418      235496.70349    176321.19549  23003867.2044   23003873.6814
  20113788.918    -8491553.83949  -6359539.33249  20113788.9444   20113792.8644
  22105195.836   -11782136.00749  -9168930.78449  22105195.3324   22105200.2884
  21854162.748     6981086.36649   5448717.52249  21854162.8284   21854167.6604
  18972779.327   -26178846.34549 -20388332.55449  18972779.1484   18972782.3854
  22510790.699    -7794170.34249  -6040841.21549  22510789.5854   22510795.2354
  20708094.070    -8159213.07849  -6336927.09849  20708092.9264   20708097.5454
 97  3 14  3 36 29.9940000  0  8 17 24 30 26  5  6 23 10
  20666167.099   -23349257.49249 -18168427.87249  20666166.3814   20666171.1344
  23012005.123      278257.78349    209641.53049  23012004.8914   23012008.8284
  20122948.280    -8443421.13449  -6322033.33449  20122949.1024   20122952.3064
  22084763.670   -11889506.73749  -9252596.23649  22084763.9064   22084767.4294
  21868219.983     7054956.99749   5506279.04049  21868219.1074   21868224.3764
  18960499.718   -26243376.18149 -20438615.54749  18960499.6494   18960502.6884
  22485341.464    -7927907.29149  -6145051.81749  22485339.9334   22485346.5424
  20717044.184    -8112179.56949  -6300277.61149  20717043.4394   20717047.9384
 97  3 14  3 36 59.9940000  0  8 17 24 30 26  5  6 23 10
  20649596.037   -23436338.61349 -18236283.25749  20649594.8134   20649600.2574
  23020138.709      321001.59449    242948.39149  23020138.4404   23020145.6554
  20132180.512    -8394906.47649  -6284229.70149  20132180.5214   20132184.4034
  22064376.386   -11996643.36049  -9336079.27249  22064376.6404   22064380.7534
  21882295.986     7128927.00749   5563918.00249  21882295.2024   21882299.7884
  18948286.199   -26307558.54549 -20488627.77549  18948286.1044   18948289.2024
  22459922.514    -8061482.28849  -6249136.18549  22459921.9104   22459928.3974
  20726069.664    -8064750.66649  -6263320.03049  20726069.2314   20726073.4104
 97  3 14  3 37 29.9940000  0  8 17 24 30 26  5  6 23 10
  20633065.005   -23523208.83949 -18303974.33249  20633064.0774   20633068.1334
  23028270.519      363734.82649    276246.99249  23028270.5804   23028274.5374
  20141484.613    -8346013.07949  -6246130.94949  20141484.7004   20141488.0234
  22044032.830   -12103550.48949  -9419383.51949  22044033.7134   22044037.3754
  21896395.930     7203022.85649   5621655.02449  21896394.3524   21896399.0314
  18936137.250   -26371401.86649 -20538375.81249  18936137.5254   18936140.4354
  22434536.141    -8194887.72849  -6353088.48349  22434535.9044   22434542.0104
  20735167.310    -8016942.43549  -6226066.87149  20735166.6134   20735170.8564
 97  3 14  3 37 59.9940000  0  8 17 24 30 26  5  6 23 10
  20616557.842   -23609954.31249 -18371568.18349  20616557.2044   20616561.8794
  23036387.461      406390.07749    309484.82049  23036386.6814   23036392.2754
  20150850.155    -8296796.66649  -6207780.49749  20150850.5164   20150853.6374
  22023718.450   -12210304.94049  -9502568.77949  22023718.0974   22023722.6354
  21910509.288     7277189.35049   5679447.07549  21910509.1504   21910512.3244
  18924044.316   -26434951.15349 -20587894.72549  18924044.3774   18924047.5944
  22409169.913    -8328189.27349  -6456959.80849  22409170.1044   22409175.2184
  20744320.016    -7968844.70149  -6188588.11049  20744319.0374   20744322.9884
 97  3 14  3 38 29.9940000  0  8 17 24 30 26  5  6 23 10
  20600090.213   -23696491.85349 -18439000.00049  20600090.1444   20600094.9344
  23044503.365      449041.21149    342719.47049  23044503.8624   23044509.7854
  20160295.678    -8247160.46849  -6169102.94249  20160295.9584   20160299.5274
  22003443.352   -12316851.27449  -9585591.89649  22003443.6734   22003447.4154
  21924652.829     7351513.77949   5737362.22049  21924652.2794   21924655.0574
  18912022.171   -26498127.94849 -20637123.39149  18912022.0704   18912025.3564
  22383835.367    -8461324.16249  -6560701.22749  22383834.0744   22383839.6814
  20753539.206    -7920397.47649  -6150837.02449  20753538.1944   20753542.6404
 97  3 14  3 38 59.9940000  0  8 17 24 30 26  5  6 23 10
  20583657.832   -23782845.13549 -18506288.24449  20583657.6504   20583662.0494
  23052610.018      491641.11249    375914.18549  23052610.0404   23052615.6574
  20169815.615    -8197132.74749  -6130120.30449  20169815.4774   20169819.2244
  21983199.616   -12423232.85649  -9668486.60549  21983198.5684   21983202.4204
  21938818.666     7425957.39349   5795370.23249  21938817.5934   21938823.0904
  18900063.354   -26560971.74049 -20686092.57049  18900063.0794   18900066.3404
  22358526.533    -8594323.84449  -6664337.29949  22358526.4344   22358530.8024
  20762817.404    -7871639.80049  -6112844.02849  20762816.5614   20762820.7124
 97  3 14  3 39 29.9940000  0  8 17 24 30 26  5  6 23 10
  20567258.310   -23869026.01849 -18573442.14349  20567257.8944   20567262.5724
  23060703.619      534174.00549    409056.66049  23060702.2784   23060709.4904
  20179408.769    -8146719.75449  -6090837.45349  20179409.1064   20179412.9304
  21962986.522   -12529452.66649  -9751255.22949  21962986.5914   21962990.5554
  21953001.542     7500489.58949   5853447.23349  21953000.5044   21953006.1374
  18888167.094   -26623486.97949 -20734805.74049  18888167.0744   18888170.1824
  22333239.697    -8727207.26049  -6767882.79349  22333239.8704   22333243.7744
  20772154.159    -7822574.53649  -6074611.34549  20772153.7174   20772157.8894
 97  3 14  3 39 59.9940000  0  8 17 24 30 26  5  6 23 10
  20550905.052   -23954963.34349 -18640406.26049  20550903.7654   20550909.1434
  23068797.215      576706.68849    442198.95749  23068797.3944   23068801.6514
  20189089.496    -8095846.76449  -6051196.16949  20189089.6744   20189093.5974
  21942817.818   -12635440.58049  -9833843.19749  21942817.0344   21942822.1714
  21967212.213     7575167.15149   5911637.54849  21967211.5064   21967215.9374
  18876348.047   -26685596.85749 -20783203.04249  18876347.9964   18876351.1134
  22307988.274    -8859904.60649  -6871283.28349  22307987.3624   22307991.8264
  20781566.705    -7773112.06549  -6036069.16149  20781566.1814   20781569.8714
 97  3 14  3 40 29.9940000  0  8 17 24 30 26  5  6 23 10
  20534585.156   -24040724.06449 -18707232.76249  20534584.4134   20534589.0614
  23076875.333      619158.60549    475278.41649  23076875.3924   23076881.9274
  20198837.204    -8044622.18649  -6011280.91349  20198837.3064   20198840.7664
  21922677.606   -12741278.50649  -9916314.29949  21922677.4864   21922681.4274
  21981433.541     7649899.58849   5969870.59549  21981432.7014   21981436.9254
  18864586.920   -26747402.19949 -20831363.04149  18864586.5984   18864589.9304
  22282757.921    -8992489.49149  -6974596.17349  22282757.3684   22282762.5604
  20791038.927    -7723335.25249  -5997282.04049  20791037.7344   20791042.1404
 97  3 14  3 40 59.9940000  0  8 17 24 30 26  5  6 23 10
  20518313.158   -24126233.95549 -18773863.82649  20518312.3984   20518317.1494
  23084955.295      661617.45349    508363.17149  23084955.6684   23084959.5124
  20208659.926    -7993003.34949  -5971058.44249  20208660.3364   20208663.7024
  21902581.464   -12846884.66249  -9998604.80649  21902582.1284   21902585.1634
  21995675.094     7724739.60449   6028187.50749  21995674.7314   21995678.5084
  18852895.763   -26808839.53949 -20879236.27349  18852895.6824   18852898.9764
  22257564.458    -9124881.21449  -7077758.51649  22257564.4594   22257568.7534
  20800584.122    -7673174.63349  -5958195.85149  20800583.5764   20800587.8904
 97  3 14  3 41 29.9940000  0  8 17 24 30 26  5  6 23 10
  20502077.586   -24211552.89249 -18840346.09049  20502076.9274   20502081.9674
  23093027.618      704036.56949    541417.03849  23093029.2294   23093031.2164
  20218543.774    -7941063.10349  -5930585.52849  20218543.8034   20218547.5274
  21882519.774   -12952309.69349 -10080754.13349  21882518.3384   21882522.7884
  22009925.884     7799627.95649   6086542.03149  22009925.3964   22009930.6594
  18841261.923   -26869975.70849 -20926874.84549  18841262.0264   18841265.0694
  22232396.820    -9257138.04549  -7180815.79949  22232395.8334   22232400.8114
  20810188.749    -7622702.18349  -5918866.67249  20810187.9974   20810192.1224
 97  3 14  3 41 59.9940000  0  8 17 24 30 26  5  6 23 10
  20485877.411   -24296684.89449 -18906682.67749  20485876.8034   20485881.7624
  23101092.763      746417.27549    574441.03349  23101089.4794   23101096.1244
  20228482.856    -7888832.89049  -5889886.68449  20228483.2424   20228486.6564
  21862490.801   -13057561.92249 -10162768.86149  21862491.0324   21862493.6574
  22024185.151     7874560.99949   6144931.40249  22024184.6644   22024189.8804
  18829683.529   -26930820.91849 -20974286.69949  18829683.2924   18829686.5834
  22207256.273    -9389250.99149  -7283760.92949  22207254.7874   22207259.8684
  20819847.957    -7571942.29149  -5879313.51849  20819847.1904   20819851.7884
 97  3 14  3 42 29.9940000  0  8 17 24 30 26  5  6 23 10
  20469725.403   -24381564.25349 -18972822.39849  20469724.5254   20469729.2664
  23109161.727      788821.70449    607483.44149  23109160.9114   23109168.3144
  20238485.862    -7836267.34849  -5848926.55149  20238486.1184   20238489.4994
  21842506.994   -13162576.66249 -10244598.53349  21842506.2384   21842510.0644
  22038460.654     7949578.74149   6203386.77849  22038460.2714   22038464.6884
  18818171.753   -26991315.35049 -21021425.22949  18818171.5614   18818174.8864
  22182153.184    -9521166.53549  -7386552.24949  22182152.4154   22182157.2944
  20829569.781    -7520853.48749  -5839504.06049  20829568.8304   20829573.1634
 97  3 14  3 42 59.9940000  0  8 17 24 30 26  5  6 23 10
  20453615.795   -24466220.01349 -19038787.88349  20453614.5774   20453619.5514
  23117230.448      831222.77249    640523.26049  23117230.4844   23117235.3344
  20248553.910    -7783359.00649  -5807699.28349  20248554.1984   20248557.7884
  21822568.157   -13267355.08049 -10326244.05249  21822569.2604   21822571.9414
  22052746.617     8024651.65549   6261885.16149  22052745.5024   22052748.2584
  18806727.050   -27051457.77549 -21068289.45949  18806726.8644   18806729.8894
  22157085.638    -9652895.95949  -7489198.53149  22157085.7194   22157089.4364
  20839352.981    -7469441.82049  -5799443.02549  20839351.8674   20839356.7904
 97  3 14  3 43 29.9940000  0  7 17 30 26  5  6 23 10
  20437527.245   -24550765.57849 -19104667.51149  20437526.2454   20437530.5864
  20258668.565    -7730205.92149  -5766281.28749  20258668.4164   20258672.8024
  21802656.454   -13371992.48149 -10407779.63549  21802656.3554   21802659.3494
  22067026.805     8099694.85849   6320360.38849  22067025.1264   22067030.9784
  18795332.221   -27111337.74749 -21114949.17949  18795332.0224   18795335.2444
  22132036.290    -9784531.65049  -7591771.79249  22132035.7804   22132040.6974
  20849180.426    -7417797.39349  -5759200.61649  20849179.3334   20849183.9854
 97  3 14  3 43 59.9940000  0  7 17 30 26  5  6 23 10
  20421489.511   -24635044.17749 -19170339.11149  20421488.8174   20421493.1744
  20268859.662    -7676651.12249  -5724550.27949  20268860.0104   20268864.1904
  21782801.368   -13476331.23149 -10489082.52449  21782800.5614   21782805.5324
  22081331.375     8174866.21249   6378935.42949  22081330.4734   22081332.9474
  18784018.417   -27170791.90249 -21161277.08549  18784018.3054   18784021.4974
  22107034.913    -9915915.11649  -7694148.52249  22107035.1584   22107038.9154
  20859084.302    -7365751.88049  -5718645.67749  20859084.1774   20859088.4534
 97  3 14  3 44 29.9940000  0  7 17 30 26  5  6 23 10
  20405500.411   -24719067.91249 -19235812.12049  20405500.2564   20405504.7754
  20279130.645    -7622677.32549  -5682492.79249  20279130.9904   20279134.8874
  21763002.361   -13580375.03549 -10570155.60349  21763002.3274   21763006.6114
  22095658.422     8250154.77649   6437601.88549  22095658.0344   22095660.8344
  18772785.169   -27229823.15049 -21207275.46449  18772785.0514   18772788.2874
  22082081.350   -10047048.06449  -7796330.02049  22082081.4534   22082086.1974
  20869065.120    -7313302.99249  -5677776.41249  20869064.4174   20869068.4194
 97  3 14  3 44 59.9940000  0  7 17 30 26  5  6 23 10
  20389545.936   -24802909.44549 -19301143.15549  20389545.3024   20389549.6754
  20289470.047    -7568343.41149  -5640154.69849  20289470.7424   20289474.0884
  21743247.543   -13684185.94749 -10651047.21749  21743246.7534   21743251.0114
  22109998.592     8325513.20649   6496322.77149  22109996.7484   22110002.5124
  18761621.052   -27288490.85749 -21252990.56349  18761621.0204   18761624.0614
  22057167.156   -10177974.38049  -7898350.54049  22057167.0814   22057171.9074
  20879111.301    -7260509.81049  -5636638.86549  20879111.0924   20879115.3764
 97  3 14  3 45 29.9940000  0  7 17 30 26  5  6 23 10
  20373624.369   -24886578.18749 -19366339.55849  20373624.1934   20373628.1944
  20299869.740    -7513692.96349  -5597569.96049  20299870.4224   20299873.7064
  21723530.761   -13787798.01449 -10731783.87149  21723530.5434   21723534.3364
  22124348.696     8400922.46949   6555083.24149  22124348.8624   22124353.0484
  18750519.685   -27346829.11649 -21298448.94449  18750519.5554   18750522.7194
  22032287.893   -10308716.13049  -8000227.21949  22032287.7854   22032293.0534
  20889214.429    -7207418.18549  -5595268.76649  20889214.0084   20889218.2444
 97  3 14  3 45 59.9940000  0  7 17 30 26  5  6 23 10
  20357723.144   -24970140.32349 -19431452.88949  20357722.6324   20357726.6604
  20310320.031    -7458777.33349  -5554778.58249  20310320.0184   20310323.7364
  21703838.582   -13891280.71849 -10812419.70249  21703839.2754   21703843.9364
  22138690.927     8476290.34049   6613811.43049  22138690.0344   22138694.2424
  18739468.025   -27404905.79349 -21343703.49949  18739467.7964   18739471.2694
  22007429.574   -10439348.51049  -8102018.65249  22007430.1334   22007434.9614
  20899357.573    -7154115.76449  -5553734.41149  20899357.0364   20899361.1654
 97  3 14  3 46 29.9940000  0  7 17 30 26  5  6 23 10
  20341862.083   -25053490.57149 -19496401.10949  20341861.2424   20341865.8764
  20320840.575    -7403491.20949  -5511698.50349  20320840.5454   20320844.2754
  21684194.407   -13994511.96449 -10892859.63449  21684194.2654   21684199.7654
  22153044.112     8551718.17249   6672586.37349  22153042.7784   22153048.1874
  18728486.667   -27462613.01949 -21388670.17049  18728486.6094   18728489.8774
  21982611.749   -10569768.31849  -8203644.46449  21982610.8254   21982616.9214
  20909558.208    -7100511.26749  -5511964.67649  20909557.8044   20909561.9674
 97  3 14  3 46 59.9940000  0  7 17 30 26  5  6 23 10
  20326043.457   -25136617.20949 -19561175.08849  20326042.3344   20326047.0854
  20331427.266    -7347857.39949  -5468347.50449  20331427.6564   20331430.9614
  21664600.886   -14097476.22449 -10973091.49849  21664600.7594   21664605.7924
  22167412.905     8627227.22949   6731424.56949  22167413.4194   22167416.6274
  18717574.868   -27519954.85449 -21433352.13749  18717574.6734   18717577.9264
  21957831.178   -10699991.05649  -8305116.72949  21957830.4904   21957836.4454
  20919815.408    -7046609.37249  -5469963.20449  20919814.8744   20919818.6884
 97  3 14  3 47 29.9940000  0  7 17 30 26  5  6 23 10
  20310273.524   -25219488.46749 -19625750.06949  20310272.9514   20310277.2404
  20342087.051    -7291840.24249  -5424697.78349  20342087.3464   20342090.8724
  21645067.654   -14200123.53949 -11053076.38649  21645068.7114   21645072.8944
  22181804.396     8702853.35449   6790354.03849  22181803.4874   22181808.2474
  18706738.656   -27576899.38249 -21477724.51049  18706738.7344   18706741.6704
  21933091.714   -10829995.52649  -8406418.89049  21933090.6874   21933097.0554
  20930135.249    -6992378.48649  -5427705.37849  20930134.4194   20930138.9984
 97  3 14  3 47 59.9940000  0  7 17 30 26  5  6 23 10
  20294530.389   -25302219.63849 -19690215.87049  20294529.0804   20294533.8064
  20352799.464    -7235546.46249  -5380832.50049  20352799.4704   20352803.3334
  21625576.226   -14302552.24949 -11132890.92349  21625576.4454   21625580.7434
  22196197.894     8778490.36649   6849291.94449  22196197.6624   22196200.8984
  18695958.216   -27633551.18549 -21521868.76049  18695957.8384   18695961.1694
  21908371.897   -10959897.65449  -8507641.29549  21908371.0604   21908377.3204
  20940499.132    -6937916.33949  -5385267.33949  20940498.1854   20940502.9644
 97  3 14  3 48 29.9940000  0  7 17 30 26  5  6 23 10
  20278830.588   -25384721.83249 -19754503.25749  20278829.6084   20278834.2814
  20363575.265    -7178919.34449  -5336707.47449  20363575.2404   20363579.3144
  21606142.442   -14404678.17449 -11212469.53749  21606142.9984   21606146.4384
  22210613.161     8854242.69949   6908319.71649  22210611.8934   22210617.6014
  18685248.682   -27689829.83949 -21565722.25549  18685248.5024   18685252.0474
  21883689.360   -11089605.92849  -8608712.65549  21883687.9784   21883693.8744
  20950923.360    -6883135.85549  -5342581.26249  20950922.5384   20950927.1244
 97  3 14  3 48 59.9940000  0  7 17 30 26  5  6 23 10
  20263180.012   -25466965.17249 -19818588.93849  20263179.1534   20263184.1114
  20374420.975    -7121923.96949  -5292295.49349  20374421.3724   20374425.0264
  21586767.844   -14506492.04149 -11291804.99149  21586768.0414   21586772.3774
  22225053.255     8930126.72349   6967450.10749  22225053.1064   22225058.2234
  18674617.861   -27745695.33749 -21609253.81249  18674617.7414   18674620.8924
  21859051.420   -11219079.21949  -8709600.93449  21859050.5844   21859056.0734
  20961414.314    -6828004.87849  -5299622.05049  20961413.6554   20961418.2774
 97  3 14  3 49 29.9940000  0  7 17 30 26  5  6 23 10
  20247558.047   -25549058.76849 -19882557.93549  20247557.0284   20247562.0204
  20385320.244    -7064648.36349  -5247665.16049  20385320.9864   20385324.2724
  21567429.029   -14608118.84149 -11370994.70549  21567429.1494   21567432.6854
  22239491.248     9005999.86649   7026572.03549  22239491.0214   22239494.9154
  18664047.486   -27801243.00349 -21652537.71449  18664047.5694   18664050.6554
  21834440.948   -11348408.09149  -8810376.66149  21834440.4414   21834445.5504
  20971952.113    -6772628.65249  -5256471.75649  20971951.1504   20971955.4464
 97  3 14  3 49 59.9940000  0  7 17 30 26  5  6 23 10
  20231984.427   -25630898.64849 -19946329.24049  20231983.7694   20231988.2354
  20396286.665    -7007020.22349  -5202760.12549  20396286.6754   20396289.9344
  21548139.782   -14709484.51149 -11449980.91949  21548140.8034   21548143.5374
  22253938.936     9081924.65649   7085734.17349  22253937.7494   22253943.0184
  18653555.668   -27856378.08949 -21695500.12449  18653555.7024   18653558.7874
  21809875.579   -11477500.83049  -8910968.36449  21809875.5974   21809880.0124
  20982554.201    -6716914.83449  -5213058.39949  20982553.6404   20982557.9444
 97  3 14  3 50 29.9940000  0  7 17 30 26  5  6 23 10
  20216447.559   -25712545.43149 -20009950.08049  20216447.1154   20216451.5724
  20407308.988    -6949097.23149  -5157625.34149  20407308.6044   20407312.3874
  21528888.542   -14810650.32749 -11528811.40949  21528888.7304   21528893.3414
  22268381.327     9157821.85649   7144874.83449  22268379.8314   22268385.1884
  18643132.785   -27911150.74749 -21738180.11949  18643132.8184   18643136.0344
  21785345.147   -11606409.01549  -9011416.27049  21785345.4394   21785349.4564
  20993209.868    -6660920.06849  -5169426.11649  20993209.2244   20993213.1014
 97  3 14  3 50 59.9940000  0  7 17 30 26  5  6 23 10
  20200959.378   -25793936.58949 -20073371.74149  20200958.7874   20200963.3114
  20418401.822    -6890803.23249  -5112201.44949  20418401.7654   20418406.1914
  21509689.604   -14911541.74049 -11607428.05649  21509689.7224   21509693.2224
  22282828.769     9233743.31949   7204034.39349  22282828.7194   22282832.4994
  18632793.389   -27965484.89649 -21780518.42049  18632793.3664   18632796.3504
  21760863.092   -11735063.02949  -9111666.12449  21760862.4984   21760866.6804
  21003932.371    -6604572.65249  -5125519.04949  21003931.4514   21003935.8784
 97  3 14  3 51 29.9940000  0  7 17 30 26  5  6 23 10
  20185504.416   -25875153.09049 -20136657.30549  20185503.5574   20185508.6944
  20429546.772    -6832236.42849  -5066564.99749  20429547.2694   20429549.9764
  21490532.331   -15012214.11749 -11685874.04049  21490533.4634   21490537.0584
  22297269.786     9309629.85749   7263166.74749  22297270.5314   22297272.3764
  18622522.953   -28019456.33449 -21822574.07849  18622522.6564   18622526.1484
  21736415.379   -11863536.09349  -9211774.97449  21736414.5134   21736419.2514
  21014708.223    -6547944.48249  -5081393.20349  21014706.9214   21014712.2194
 97  3 14  3 51 59.9940000  0  7 17 30 26  5  6 23 10
  20170079.864   -25956209.59749 -20199818.19649  20170079.4454   20170083.8844
  20440740.006    -6773416.33849  -5020731.18649  20440740.1704   20440743.4604
  21471421.610   -15112641.93849 -11764129.47049  21471421.5144   21471426.1014
  22311708.724     9385505.13749   7322290.36849  22311708.8054   22311712.5594
  18612321.138   -28073067.09149 -21864348.67749  18612320.9584   18612324.1214
  21712001.621   -11991831.28449  -9311745.21449  21712001.4844   21712006.7284
  21025534.260    -6491052.13049  -5037061.51449  21025532.8764   21025537.7204
 97  3 14  3 52 29.9940000  0  7 17 30 26  5  6 23 10
  20154701.317   -26037024.67849 -20262790.95049  20154700.4214   20154705.2244
  20452002.306    -6714232.55049  -4974613.96549  20452002.5634   20452005.9434
  21452379.517   -15212709.08249 -11842103.84349  21452379.1774   21452383.2204
  22326169.605     9461497.39549   7381505.09449  22326169.4454   22326171.8494
  18602208.641   -28126208.33049 -21905757.43149  18602208.5394   18602211.8554
  21687643.120   -12119837.21949  -9411490.09149  21687642.7774   21687647.8944
  21036427.268    -6433808.69349  -4992456.23649  21036426.3154   21036431.0144
 97  3 14  3 52 59.9940000  0  7 17 30 26  5  6 23 10
  20139332.166   -26117790.03449 -20325724.95949  20139331.4414   20139335.5194
  20463297.700    -6654874.51849  -4928360.96349  20463297.7544   20463301.9364
  21433371.237   -15312597.96649 -11919939.31649  21433370.6264   21433373.9004
  22340620.739     9537437.87849   7440679.50249  22340620.7904   22340624.1364
  18592148.974   -28179072.17049 -21946950.02349  18592148.9734   18592152.0464
  21663303.971   -12247739.91049  -9511154.49149  21663303.1974   21663308.4454
  21047347.406    -6376423.45049  -4947740.46249  21047347.0354   21047351.1464
 97  3 14  3 53 29.9940000  0  7 17 30 26  5  6 23 10
  20124010.127   -26198307.37649 -20388465.73249  20124008.8694   20124013.8394
  20474661.902    -6595155.05449  -4881826.33249  20474662.4064   20474665.6574
  21414434.360   -15412111.38749 -11997482.23549  21414433.2164   21414437.5424
  22355098.840     9613519.39049   7499963.78649  22355096.9884   22355101.8394
  18582177.654   -28231471.85949 -21987780.94449  18582177.6664   18582180.7794
  21639021.500   -12375344.77849  -9610586.85749  21639020.6984   21639026.1564
  21058327.727    -6318721.29049  -4902777.73249  21058327.1734   21058331.8184
 97  3 14  3 53 59.9940000  0  7 17 30 26  5  6 23 10
  20108721.736   -26278648.19049 -20451068.94949  20108721.4324   20108726.0054
  20486080.983    -6535147.74849  -4835067.38749  20486081.3514   20486084.8564
  21395553.329   -15511330.55549 -12074795.86149  21395552.6174   21395557.1094
  22369584.186     9689641.66549   7559279.82149  22369583.1404   22369586.8824
  18572278.578   -28283491.56049 -22028315.77849  18572278.6094   18572282.0134
  21614780.065   -12502733.88549  -9709851.07749  21614779.4504   21614784.2684
  21069350.171    -6260797.70249  -4857642.47449  21069349.4934   21069353.9954
 97  3 14  3 54 29.9940000  0  8 17 30 26  5  6 23 22 10
  20093473.056   -26358780.66349 -20513509.82149  20093472.4884   20093476.5824
  20497555.813    -6474847.34249  -4788080.05949  20497555.6384   20497559.6354
  21376729.956   -15610247.58249 -12151874.02049  21376729.9084   21376734.2084
  22384074.489     9765788.79949   7618615.24749  22384073.4884   22384078.0154
  18562451.999   -28335130.82849 -22068554.18549  18562451.8924   18562455.4284
  21590582.318   -12629893.93949  -9808936.83649  21590581.4914   21590587.0164
  22826993.338    -6073850.83849  -4705243.52049  22826993.1314   22826996.8314
  21080418.127    -6202635.67849  -4812321.41749  21080417.3214   21080421.8964
 97  3 14  3 54 59.9940000  0  8 17 30 26  5  6 23 22 10
  20078269.854   -26438674.31349 -20575764.58749  20078268.9944   20078273.5664
  20509087.244    -6414248.89749  -4740860.49149  20509087.6344   20509090.4714
  21357967.756   -15708843.68149 -12228702.12149  21357967.9364   21357971.5014
  22398568.065     9841954.69649   7677965.30249  22398567.8544   22398571.8344
  18552700.422   -28386375.84349 -22108485.36749  18552700.4534   18552703.4314
  21566433.376   -12756797.92949  -9907823.03849  21566433.1494   21566437.4754
  22807328.764    -6177189.78749  -4785767.34049  22807328.1254   22807331.3154
  21091535.474    -6144214.16849  -4766798.17249  21091535.3044   21091539.6714
 97  3 14  3 55 29.9940000  0  8 17 30 26  5  6 23 22 10
  20063110.752   -26518335.80449 -20637838.45949  20063110.0184   20063114.3254
  20520668.690    -6353388.56549  -4693436.86749  20520668.7374   20520672.4594
  21339264.476   -15807129.21849 -12305288.23849  21339264.0354   21339268.3694
  22413058.321     9918101.55049   7737300.49349  22413057.0634   22413061.7914
  18543020.143   -28437246.09849 -22148124.51749  18543019.9444   18543023.2904
  21542328.933   -12883467.56649 -10006526.64549  21542328.2174   21542333.6924
  22787736.849    -6280145.58249  -4865992.61649  22787736.5684   22787740.1444
  21102699.219    -6085548.74149  -4721084.85249  21102698.4364   21102702.2664
 97  3 14  3 55 59.9940000  0  8 17 30 26  5  6 23 22 10
  20047994.101   -26597774.25849 -20699738.53349  20047993.2234   20047997.8674
  20532299.404    -6292268.43949  -4645810.82149  20532299.5454   20532303.6484
  21320617.488   -15905118.83849 -12381643.79549  21320617.1844   21320621.2654
  22427541.829     9994212.78749   7796607.92149  22427541.2964   22427545.5594
  18533408.984   -28487752.80649 -22187480.38749  18533408.8684   18533412.5724
  21518267.341   -13009912.05749 -10105054.80449  21518266.0644   21518271.5704
  22768216.556    -6382725.40749  -4945924.93149  22768215.2534   22768218.2444
  21113909.468    -6026637.88149  -4675180.29749  21113908.3954   21113912.6964
 97  3 14  3 56 29.9940000  0  8 17 30 26  5  6 23 22 10
  20032919.955   -26676988.87749 -20761464.18249  20032919.1494   20032923.7134
  20543982.367    -6230873.77049  -4597970.84249  20543982.4574   20543986.2674
  21302028.454   -16002804.08849 -12457762.15549  21302027.8334   21302032.6334
  22442022.321    10070308.07549   7855902.98649  22442021.4224   22442026.6054
  18523870.346   -28537878.98249 -22226539.74849  18523870.4314   18523873.6764
  21494252.586   -13136110.62049 -10203391.34249  21494252.2394   21494256.5754
  22748768.407    -6484924.53549  -5025560.60749  22748765.8874   22748772.2354
  21125170.242    -5967462.16449  -4629069.36349  21125168.9904   21125173.6694
 97  3 14  3 56 59.9940000  0  8 17 30 26  5  6 23 22 10
  20017883.983   -26756003.00849 -20823033.62049  20017883.1784   20017887.9804
  20555716.838    -6169208.34449  -4549919.87649  20555717.0834   20555721.0074
  21283493.161   -16100205.84649 -12533659.59549  21283493.2244   21283497.2964
  22456500.850    10146393.98949   7915190.68749  22456499.3594   22456503.9374
  18514405.323   -28587618.20749 -22265297.58249  18514405.1744   18514408.6244
  21470283.281   -13262071.12649 -10301542.35049  21470282.7534   21470288.2294
  22729389.596    -6586758.37849  -5104911.65149  22729388.8324   22729393.0134
  21136479.948    -5908029.15249  -4582757.93849  21136479.5904   21136483.6024
 97  3 14  3 57 29.9940000  0  8 17 30 26  5  6 23 22 10
  20002885.011   -26834822.54849 -20884451.42749  20002884.5314   20002888.8214
  20567501.787    -6107277.74449  -4501662.26049  20567501.6554   20567505.8664
  21265012.180   -16197324.50549 -12609336.45049  21265011.4394   21265016.6074
  22470977.622    10222469.96649   7974470.65149  22470977.4164   22470981.5134
  18505013.276   -28636973.44149 -22303756.19749  18505013.0364   18505016.5424
  21446354.759   -13387816.21849 -10399525.52949  21446354.7884   21446358.3324
  22710078.994    -6688236.23549  -5183985.28849  22710078.4504   22710083.4464
  21147838.521    -5848339.83649  -4536246.79049  21147837.9464   21147842.2714
 97  3 14  3 57 59.9940000  0  8 17 30 26  5  6 23 22 10
  19987919.647   -26913466.26149 -20945732.24549  19987919.1324   19987923.3694
  20579338.175    -6045076.98049  -4453194.13049  20579338.7204   20579342.2834
  21246585.259   -16294158.03849 -12684791.12949  21246586.0154   21246590.3614
  22485452.429    10298535.21949   8033742.33149  22485450.7964   22485456.0394
  18495697.328   -28685929.06549 -22341903.42949  18495697.2854   18495700.6184
  21422469.044   -13513337.04649 -10497333.96649  21422469.3334   21422472.6154
  22690836.772    -6789355.62249  -5262779.63949  22690836.4514   22690840.6274
  21159247.308    -5788386.68049  -4489530.06049  21159246.0094   21159250.6874
 97  3 14  3 58 29.9940000  0  8 17 30 26  5  6 23 22 10
  19972990.637   -26991918.62149 -21006863.94249  19972990.3664   19972994.4494
  20591227.498    -5982598.30849  -4404509.43549  20591228.1294   20591231.9304
  21228220.936   -16390663.39549 -12759990.10349  21228222.5274   21228225.9604
  22499931.571    10374624.91849   8093033.00849  22499931.5524   22499936.6394
  18486464.437   -28734447.94649 -22379710.34449  18486464.4274   18486467.7614
  21398629.416   -13638614.84949 -10594953.01449  21398628.9374   21398632.5014
  22671667.279    -6890091.97149  -5341275.47349  22671665.9224   22671670.9544
  21170708.854    -5728155.73249  -4442596.86449  21170708.4544   21170712.6734
 97  3 14  3 58 59.9940000  0  8 17 30 26  5  6 23 22 10
  19958094.739   -27070197.61149 -21067860.54149  19958094.3094   19958098.5174
  20603162.653    -5919878.27549  -4355636.66549  20603163.4974   20603166.8864
  21209915.643   -16486859.45949 -12834948.04149  21209916.1214   21209920.1474
  22514409.713    10450707.72049   8152318.27249  22514408.6794   22514413.8894
  18477310.467   -28782552.43349 -22417194.35649  18477310.4144   18477313.8164
  21374828.035   -13763691.97749 -10692415.71249  21374827.3354   21374831.7574
  22652569.603    -6990450.72049  -5419477.05949  22652570.0424   22652573.1854
  21182216.002    -5667685.30749  -4395477.06549  21182216.0774   21182219.9534
 97  3 14  3 59 29.9940000  0  8 17 30 26  5  6 23 22 10
  19943226.903   -27148328.89649 -21128742.04749  19943226.2224   19943230.5894
  20615137.964    -5856948.78149  -4306600.70849  20615137.8074   20615141.7834
  21191667.462   -16582755.50849 -12909672.20749  21191668.2634   21191671.8824
  22528878.802    10526743.26549   8211566.74549  22528877.3234   22528883.0424
  18468229.265   -28830274.41849 -22454380.31249  18468229.4614   18468232.5934
  21351059.015   -13888598.86449 -10789745.72449  21351057.7204   21351063.5104
  22633540.968    -7090448.53249  -5497397.44149  22633541.0464   22633543.7574
  21193761.957    -5607011.49449  -4348198.77849  21193761.4744   21193765.5544
 97  3 14  3 59 59.9940000  0  8 17 30 26  5  6 23 22 10
  19928388.170   -27226306.49449 -21189503.79249  19928387.3354   19928392.2694
  20627154.994    -5793798.77349  -4257392.93449  20627155.0484   20627158.7774
  21173477.895   -16678343.31849 -12984156.20749  21173478.0264   21173481.4744
  22543340.356    10602739.75049   8270784.77249  22543340.3904   22543344.3884
  18459220.776   -28877614.56749 -22491268.74649  18459220.7274   18459224.0904
  21327325.948   -14013315.28349 -10886927.35349  21327324.1114   21327329.7444
  22614582.904    -7190073.49749  -5575027.26149  22614581.4514   22614584.9764
  21205345.401    -5546140.50149  -4300766.85149  21205344.6454   21205349.0194
 97  3 14  4  0 29.9930000  0  8 17 30 26  5  6 23 22 10
  19913591.657   -27304062.61649 -21250092.96249  19913591.0184   19913595.3674
  20639221.412    -5730388.62249  -4207982.44449  20639221.5444   20639225.4334
  21155356.546   -16773571.54849 -13058359.99149  21155357.1014   21155360.2474
  22557804.727    10678749.29549   8330013.02049  22557804.5974   22557809.2264
  18450292.445   -28924533.04549 -22527828.60949  18450292.4584   18450295.7344
  21303640.616   -14137780.52349 -10983913.21649  21303640.1774   21303645.7614
  22595705.535    -7289275.20049  -5652327.26749  22595705.1994   22595709.6494
  21216972.888    -5485038.15049  -4253154.62849  21216972.1264   21216976.3284
 97  3 14  4  0 59.9930000  0  8 17 30 26  5  6 23 22 10
  19898847.161   -27381545.50949 -21310469.21949  19898846.6554   19898850.8034
  20651348.467    -5666660.26549  -4158324.02149  20651348.6894   20651351.8744
  21137309.511   -16868409.48149 -13132259.66449  21137308.9364   21137313.4794
  22572277.415    10754802.84849   8389275.46249  22572276.7184   22572282.5224
  18441453.656   -28970981.24149 -22564022.01949  18441453.4674   18441456.9504
  21280013.969   -14261938.73449 -11080659.84249  21280012.6644   21280018.7674
  22576916.361    -7388012.56949  -5729265.46849  22576916.1864   22576919.6874
  21228654.416    -5423651.13649  -4205320.61049  21228653.8394   21228658.3644
 97  3 14  4  1 29.9930000  0  8 17 30 26  5  6 23 22 10
  19884127.350   -27458898.57149 -21370744.30249  19884126.6964   19884130.6834
  20663510.865    -5602745.89249  -4108520.61249  20663511.2094   20663515.0574
  21119312.443   -16962983.96249 -13205954.03649  21119313.1744   21119317.0184
  22586731.342    10830758.72549   8448461.87549  22586731.3614   22586734.8944
  18432678.101   -29017097.08949 -22599956.44949  18432677.9734   18432681.4414
  21256423.265   -14385907.11249 -11177258.56349  21256423.4644   21256428.2214
  22558189.169    -7486424.51049  -5805950.10549  22558188.8714   22558192.4194
  21240363.954    -5362116.69749  -4157371.69049  21240362.2334   21240367.9224
 97  3 14  4  1 59.9930000  0  8 17 30 26  5  6 23 22 10
  19869462.871   -27535960.86549 -21430792.81349  19869462.4974   19869466.6534
  20675739.367    -5538485.34849  -4058447.47649  20675739.7134   20675743.7054
  21101395.544   -17057139.22949 -13279321.75749  21101395.9884   21101399.9644
  22601197.199    10906777.31749   8507697.12949  22601197.9364   22601201.2804
  18423997.190   -29062715.41449 -22635503.19849  18423996.9724   18424000.5314
  21232902.933   -14509507.93949 -11273570.86549  21232903.1274   21232907.7994
  22539555.991    -7584342.87449  -5882250.09949  22539554.9714   22539559.7824
  21252132.801    -5300270.18149  -4109179.60949  21252131.8454   21252135.9654
 97  3 14  4  2 29.9930000  0  8 17 30 26  5  6 23 22 10
  19854840.883   -27612799.93749 -21490667.38549  19854840.2104   19854844.4184
  20688020.460    -5473948.21949  -4008158.82149  20688020.8014   20688024.6834
  21083544.195   -17150949.36049 -13352420.54249  21083544.4264   21083548.1374
  22615659.715    10982779.07349   8566919.29549  22615659.3554   22615663.9474
  18415403.143   -29107877.53849 -22670694.46249  18415403.4214   18415406.4524
  21209440.204   -14632805.94649 -11369647.21849  21209440.0204   21209444.8074
  22521006.553    -7681820.55249  -5958206.73249  22521005.7324   22521010.0774
  21263951.602    -5238162.48849  -4060784.01649  21263950.5934   21263954.7364
 97  3 14  4  2 59.9930000  0  8 17 30 26  5  6 23 22 10
  19840245.559   -27689499.13549 -21550432.97749  19840244.6644   19840249.1774
  20700339.154    -5409213.45749  -3957716.14949  20700339.6634   20700342.7904
  21065744.238   -17244488.94849 -13425308.51649  21065744.0994   21065749.2464
  22630103.138    11058680.37249   8626063.15749  22630103.2064   22630107.0684
  18406881.320   -29152660.80249 -22705590.51449  18406881.0414   18406884.3914
  21186018.093   -14755890.94849 -11465557.60849  21186018.3454   21186022.6584
  22502530.510    -7778913.69949  -6033863.75049  22502529.5834   22502533.9324
  21275806.956    -5175861.67249  -4012237.92849  21275806.8454   21275810.1084
 97  3 14  4  3 29.9930000  0  8 17 30 26  5  6 23 22 10
  19825688.535   -27765996.62049 -21610041.37249  19825687.8524   19825692.0444
  20712705.755    -5344226.58249  -3907077.03049  20712705.2934   20712709.4564
  21048009.725   -17337683.96649 -13497928.00549  21048010.0564   21048013.1824
  22644541.933    11134557.59649   8685188.29749  22644541.8704   22644546.8314
  18398441.615   -29197011.38549 -22740149.40849  18398441.4944   18398444.8364
  21162647.315   -14878706.22649 -11561257.80549  21162646.7944   21162651.3244
  22484142.092    -7875545.04349  -6109160.87849  22484141.2434   22484144.5624
  21287711.531    -5113302.76349  -3963490.71449  21287710.7944   21287715.4534
 97  3 14  4  3 59.9930000  0  8 17 30 26  5  6 23 22 10
  19811161.198   -27842338.05649 -21669528.18149  19811160.2994   19811164.7434
  20725105.120    -5279067.03849  -3856303.37649  20725105.6384   20725108.4594
  21030331.079   -17430585.23349 -13570318.59049  21030329.7064   21030333.6604
  22658965.020    11210351.74249   8744248.67149  22658965.0054   22658969.1414
  18390074.382   -29240981.41249 -22774411.77849  18390074.1674   18390077.4874
  21139317.088   -15001307.44349 -11656791.22149  21139315.6864   21139321.6644
  22465828.692    -7971782.50649  -6184151.06949  22465828.0014   22465832.0904
  21299654.066    -5050544.67049  -3914588.31649  21299653.3874   21299657.2714
 97  3 14  4  4 29.9930000  0  8 17 30 26  5  6 23 22 10
  19796674.981   -27918463.24849 -21728846.49249  19796674.2384   19796678.7114
  20737545.935    -5213690.76249  -3805360.82749  20737546.1264   20737550.0484
  21012720.807   -17523127.40049 -13642429.34649  21012720.4064   21012723.8534
  22673385.184    11286130.28449   8803296.90249  22673385.1424   22673389.0304
  18381789.725   -29284517.50549 -22808336.01649  18381789.8524   18381793.0794
  21116034.067   -15123658.99349 -11752130.07749  21116032.5154   21116038.4354
  22447600.658    -8067572.28749  -6258792.44649  22447599.9304   22447603.8914
  21311642.367    -4987545.67949  -3865498.21349  21311641.3984   21311645.1144
 97  3 14  4  4 59.9930000  0  8 17 30 26  5  6 23 22 10
  19782226.372   -27994391.11349 -21788011.04649  19782226.0404   19782229.9174
  20750024.186    -5148117.48849  -3754264.77649  20750024.4174   20750027.8804
  20995178.524   -17615312.13949 -13714261.59249  20995177.8414   20995181.5814
  22687800.274    11361881.95749   8862324.17249  22687799.6434   22687804.3594
  18373580.588   -29327656.97649 -22841951.18349  18373580.4554   18373583.9744
  21092794.249   -15245783.45849 -11847291.97949  21092794.1024   21092798.8224
  22429450.877    -8162950.15649  -6333112.85149  22429449.8954   22429454.9554
  21323667.225    -4924353.88049  -3816257.85449  21323666.5534   21323670.2364
 97  3 14  4  5 29.9930000  0  8 17 30 26  5  6 23 22 10
  19767822.423   -28070084.77149 -21846993.09749  19767821.5524   19767825.8284
  20762548.550    -5082301.40849  -3702979.50149  20762548.2474   20762551.9794
  20977714.283   -17707086.71849 -13785774.21949  20977714.8704   20977719.7424
  22702217.526    11437644.70349   8921360.07149  22702216.3634   22702221.1324
  18365455.020   -29370357.23249 -22875224.10649  18365455.0004   18365458.5064
  21069607.419   -15367630.76149 -11942237.93349  21069607.0754   21069612.0374
  22411380.319    -8257911.80449  -6407108.90049  22411379.2754   22411384.1824
  21335732.327    -4860951.06149  -3766853.07049  21335731.7004   21335735.6184
 97  3 14  4  5 59.9930000  0  8 17 30 26  5  6 23 22 10
  19753455.122   -28145584.61549 -21905824.11549  19753454.4184   19753458.9864
  20775113.968    -5016269.26649  -3651525.88049  20775114.1084   20775117.4354
  20960321.352   -17798486.74549 -13856995.00049  20960322.0214   20960327.0704
  22716629.024    11513378.17449   8980373.17849  22716629.9344   22716633.5284
  18357409.449   -29412637.12849 -22908169.48949  18357409.1104   18357412.6104
  21046469.545   -15489221.50449 -12036983.93649  21046469.6024   21046474.4914
  22393379.525    -8352506.13149  -6480818.75249  22393377.9674   22393383.4094
  21347830.256    -4797375.17149  -3717313.43849  21347829.5554   21347834.5584
 97  3 14  4  6 29.9930000  0  8 17 30 26  5  6 23 22 10
  19739132.443   -28220850.54349 -21964472.86349  19739131.7434   19739136.4094
  20787733.533    -4949953.25949  -3599851.06649  20787734.0514   20787737.5674
  20943008.679   -17889465.64649 -13927887.63649  20943008.5874   20943012.7584
  22731044.445    11589131.11749   9039401.47349  22731044.0164   22731047.8894
  18349454.371   -29454441.04849 -22940743.98849  18349454.0574   18349457.7614
  21023391.590   -15610497.76549 -12131484.90949  21023391.3094   21023395.8314
  22375459.426    -8446676.25049  -6554198.04449  22375458.6224   22375462.8594
  21359971.963    -4733570.45349  -3667595.48749  21359970.8204   21359975.8854
 97  3 14  4  6 59.9930000  0  8 17 30 26  5  6 23 22 10
  19724832.745   -28295995.74249 -22023027.55249  19724832.1834   19724836.9844
  20800388.397    -4883451.30849  -3548031.37949  20800388.7114   20800392.9334
  20925757.273   -17980121.16649 -13998528.29449  20925757.7194   20925761.6014
  22745441.227    11664785.79049   9098353.15749  22745440.8594   22745445.6124
  18341572.249   -29495861.88649 -22973019.97149  18341572.0944   18341575.5324
  21000358.265   -15731539.16249 -12225802.85249  21000357.6254   21000362.5394
  22357599.782    -8540528.60349  -6627329.71649  22357597.8574   22357601.9524
  21372137.707    -4669638.84349  -3617778.65149  21372137.2974   21372141.7224
 97  3 14  4  7 29.9930000  0  8 17 30 26  5  6 23 22 10
  19710562.485   -28370986.52649 -22081461.90349  19710561.9124   19710566.0484
  20813084.432    -4816733.80349  -3496043.73449  20813084.7414   20813088.2664
  20908573.283   -18070423.44349 -14068893.69449  20908573.0464   20908577.3634
  22759824.820    11740371.92349   9157251.35749  22759823.5524   22759828.7074
  18333772.202   -29536851.10749 -23004959.61749  18333772.1844   18333775.4864
  20977378.546   -15852297.22949 -12319900.02949  20977377.8144   20977382.5304
  22339811.645    -8634004.27749  -6700167.89549  22339811.2904   22339813.8234
  21384338.760    -4605522.08249  -3567817.54249  21384338.1614   21384343.2614
 97  3 14  4  7 59.9930000  0  7 17 30 26  6 23 22 10
  19696321.837   -28445821.31349 -22139774.72749  19696321.2914   19696325.1234
  20825818.227    -4749817.08149  -3443900.82049  20825818.2464   20825822.1824
  20891454.455   -18160383.65049 -14138992.56449  20891454.8374   20891458.4294
  18326052.094   -29577420.54249 -23036572.15249  18326051.8384   18326055.1534
  20954452.376   -15972775.05149 -12413778.84249  20954452.0854   20954456.9674
  22322102.345    -8727068.65549  -6772685.59149  22322101.8604   22322106.1574
  21396576.919    -4541211.57649  -3517705.47649  21396576.1994   21396580.7824
 97  3 14  4  8 29.9930000  0  7 17 30 26  6 23 22 10
  19682122.487   -28520439.14849 -22197918.48849  19682121.8314   19682126.4664
  20838597.524    -4682660.93649  -3391571.36349  20838597.5894   20838601.2684
  20874412.948   -18249937.55849 -14208774.80149  20874412.8954   20874416.4674
  18318419.837   -29617527.96849 -23067824.68149  18318419.8724   18318423.1774
  20931586.440   -16092936.19349 -12507410.88349  20931586.3444   20931590.8094
  22304485.407    -8819646.59349  -6844824.22449  22304485.0364   22304489.8124
  21408859.842    -4476665.08949  -3467409.51849  21408858.2764   21408863.0404
 97  3 14  4  8 59.9930000  0  7 17 30 26  6 23 22 10
  19667953.077   -28594899.97049 -22255939.90249  19667952.4704   19667957.0994
  20851407.682    -4615343.13649  -3339115.94249  20851407.4514   20851411.5684
  20857436.638   -18339149.14349 -14278290.30049  20857436.4874   20857440.6214
  18310861.482   -29657247.55649 -23098774.99649  18310861.4144   18310864.8194
  20908767.874   -16212848.38449 -12600848.94249  20908768.2114   20908773.0464
  22286951.096    -8911790.05749  -6916624.32849  22286949.9664   22286953.2144
  21421173.330    -4411957.72649  -3416988.20049  21421172.5514   21421176.3134
 97  3 14  4  9 29.9930000  0  7 17 30 26  6 23 22 10
  19653826.873   -28669134.24449 -22313784.77349  19653826.3094   19653830.4294
  20864257.431    -4547816.91349  -3286498.09549  20864257.2154   20864261.2024
  20840535.278   -18427966.36449 -14347498.51849  20840535.4184   20840539.7564
  18303386.256   -29696530.18249 -23129384.83449  18303386.4194   18303389.5604
  20886004.157   -16332472.81749 -12694062.76549  20886003.5314   20886008.5184
  22269511.430    -9003435.50549  -6988036.33249  22269510.5894   22269515.2944
  21433530.068    -4347022.65649  -3366389.45749  21433529.4264   21433533.2754
 97  3 14  4  9 59.9930000  0  7 17 30 26  6 23 22 10
  19639734.837   -28743188.45349 -22371489.33849  19639734.4154   19639738.2934
  20877136.791    -4480134.96349  -3233758.92749  20877136.9294   20877140.0954
  20823702.354   -18516423.06149 -14416425.82849  20823702.1314   20823706.8304
  18295985.537   -29735421.38349 -23159689.64849  18295985.4434   18295988.9364
  20863284.476   -16451865.13349 -12787095.70849  20863283.7594   20863288.6214
  22252155.915    -9094640.36749  -7059105.03849  22252155.8734   22252159.1024
  21445918.399    -4281919.98149  -3315660.10949  21445917.2404   21445921.3034
 97  3 14  4 10 29.9930000  0  7 17 30 26  6 23 22 10
  19625687.556   -28817007.00349 -22429010.27349  19625686.6504   19625691.3224
  20890057.344    -4412237.02449  -3180851.46449  20890057.9844   20890061.4344
  20806950.291   -18604456.16549 -14485023.04449  20806950.5684   20806954.4704
  18288676.355   -29773831.18749 -23189619.37249  18288676.0834   18288679.6554
  20840622.978   -16570952.18849 -12879890.79449  20840622.7174   20840628.2624
  22234893.105    -9185356.77449  -7129793.11749  22234891.1854   22234896.1844
  21458348.087    -4216600.11049  -3264761.53249  21458346.3364   21458352.2354
 97  3 14  4 10 59.9930000  0  7 17 30 26  6 23 22 10
  19611684.315   -28890593.87249 -22486350.67649  19611683.5844   19611688.5304
  20903018.164    -4344127.82749  -3127779.36849  20903019.0314   20903022.0384
  20790276.540   -18692077.90049 -14553299.70549  20790276.9214   20790280.3364
  18281458.451   -29811761.62649 -23219175.57649  18281458.6704   18281461.9564
  20818021.030   -16689727.61449 -12972443.06049  20818020.9444   20818025.5424
  22217720.896    -9275596.94449  -7200110.11649  22217720.4224   22217724.1614
  21470819.594    -4151061.51349  -3213692.51149  21470818.8114   21470823.8654
 97  3 14  4 11 29.9930000  0  7 17 30 26  6 23 22 10
  19597721.046   -28963971.67249 -22543528.16649  19597720.6904   19597724.6814
  20916013.660    -4275837.17449  -3074565.86349  20916014.5244   20916017.1844
  20773678.077   -18779304.18549 -14621268.22349  20773678.1924   20773681.2254
  18274328.741   -29849228.74249 -23248370.73849  18274328.6164   18274332.0184
  20795472.896   -16808218.89149 -13064773.90249  20795471.9044   20795477.0924
  22200633.093    -9365395.09149  -7270082.66949  22200632.1624   22200636.7934
  21483329.022    -4085324.20849  -3162468.65849  21483327.7424   21483333.3334
 97  3 14  4 11 59.9930000  0  7 17 30 26  6 23 22 10
  19583779.270   -29037236.33349 -22600617.49749  19583778.9324   19583782.7644
  20929026.488    -4207454.11649  -3021280.35549  20929027.0164   20929029.4664
  20757140.369   -18866210.39049 -14688987.34549  20757140.4414   20757143.9944
  18267271.084   -29886317.07349 -23277270.73849  18267270.9614   18267274.4754
  20772964.968   -16926499.24749 -13156940.41749  20772964.1464   20772968.6364
  22183609.633    -9454854.06549  -7339790.94549  22183608.6874   22183612.9274
  21495856.089    -4019494.48849  -3111172.77849  21495854.8994   21495859.3554
 97  3 14  4 12 29.9930000  0  7 17 30 26  6 23 22 10
  19569858.067   -29110392.53849 -22657622.32349  19569857.4404   19569861.6684
  20942054.422    -4138992.49349  -2967933.63549  20942054.7374   20942058.6054
  20740661.293   -18952808.62649 -14756466.47449  20740661.5994   20740665.2964
  18260282.258   -29923043.86749 -23305889.02649  18260282.3204   18260285.6594
  20750494.512   -17044581.49449 -13248952.53549  20750493.5024   20750498.5274
  22166648.989    -9543982.53949  -7409241.72449  22166647.2394   22166652.3634
  21508398.444    -3953585.38849  -3059815.03949  21508397.7064   21508401.5874
 97  3 14  4 12 59.9930000  0  7 17 30 26  6 23 22 10
  19555994.203   -29183247.04549 -22714392.05449  19555993.2984   19555997.8054
  20955134.308    -4070256.37249  -2914373.01849  20955133.8434   20955138.7684
  20724279.353   -19038896.58749 -14823547.98949  20724279.3204   20724282.7664
  18253396.173   -29959230.88049 -23334086.69849  18253396.0274   18253399.3794
  20728095.318   -17162289.64449 -13340673.15949  20728095.7684   20728099.4704
  22149786.326    -9632595.80849  -7478291.02449  22149785.4434   22149788.4044
  21520994.342    -3887395.04449  -3008238.14649  21520994.2364   21520998.9054
 97  3 14  4 13 29.9930000  0  7 17 30 26  6 23 22 10
  19542178.646   -29255848.41049 -22770964.53449  19542178.2024   19542182.5134
  20968259.007    -4001285.27749  -2860629.32449  20968259.3564   20968262.7804
  20707989.523   -19124499.91549 -14890251.86149  20707990.5764   20707994.3834
  18246606.738   -29994909.34449 -23361888.10249  18246606.6274   18246609.9564
  20705760.722   -17279660.43549 -13432130.90749  20705761.1704   20705764.7014
  22133013.651    -9720736.62149  -7546972.15749  22133012.9244   22133017.3934
  21533634.772    -3820969.87349  -2956478.28849  21533634.4454   21533638.3574
 97  3 14  4 13 59.9930000  0  7 17 30 26  6 23 22 10
  19528391.305   -29328301.24249 -22827421.27749  19528390.8664   19528394.9894
  20981410.593    -3932173.45949  -2806775.94349  20981410.4124   20981414.8594
  20691772.807   -19209719.39549 -14956656.62449  20691772.6444   20691777.5304
  18239895.770   -30030175.54549 -23389368.26249  18239895.6234   18239898.9854
  20683471.967   -17396788.94749 -13523399.86249  20683471.8704   20683475.9244
  22116315.761    -9808484.40949  -7615347.02249  22116315.0544   22116319.7554
  21546298.312    -3754422.99449  -2904623.58649  21546297.0494   21546301.9424
 97  3 14  4 14 29.9930000  0  7 17 30 26  6 23 22 10
  19514653.531   -29400493.99449 -22883675.36349  19514653.1174   19514657.2404
  20994609.829    -3862810.79649  -2752727.12649  20994609.4044   20994613.8814
  20675648.164   -19294454.30149 -15022683.80749  20675647.9774   20675652.9414
  18233286.223   -30064909.10449 -23416433.37849  18233286.1294   18233289.5424
  20661250.028   -17513565.35949 -13614394.44849  20661249.3654   20661254.1844
  22099718.901    -9895701.14449  -7683308.08349  22099718.2434   22099721.4214
  21559007.169    -3687636.71849  -2852582.34849  21559006.3304   21559011.3774
 97  3 14  4 14 59.9930000  0  7 17 30 26  6 23 22 10
  19500941.756   -29472550.39049 -22939823.18849  19500941.1194   19500945.2114
  21007831.152    -3793332.31549  -2698588.05349  21007831.9614   21007835.1854
  20659591.494   -19378831.57649 -15088432.32049  20659590.5534   20659595.2644
  18226754.421   -30099233.86149 -23443179.94849  18226754.2214   18226757.6484
  20639073.642   -17630102.11349 -13705202.29549  20639072.8474   20639078.2054
  22083199.954    -9982508.12049  -7750949.86549  22083198.5704   22083203.0314
  21571738.315    -3620733.25849  -2800449.79649  21571738.0964   21571742.5654
 97  3 14  4 15 29.9930000  0  7 17 30 26  6 23 22 10
  19487261.729   -29544439.08549 -22995840.33949  19487260.7204   19487265.4804
  21021075.198    -3723736.20849  -2644357.31149  21021075.4124   21021078.4764
  20643605.651   -19462837.05649 -15153891.12249  20643605.5594   20643610.6244
  18220303.273   -30133135.04149 -23469596.44949  18220303.4064   18220306.4484
  20616948.231   -17746371.65949 -13795801.92449  20616947.4744   20616953.3904
  22066766.673   -10068864.91049  -7818240.85149  22066765.7464   22066770.2604
  21584492.311    -3553710.87149  -2748224.57049  21584491.4484   21584496.4254
 97  3 14  4 15 59.9930000  0  7 17 30 26  6 23 22 10
  19473619.554   -29616128.81949 -23051702.44649  19473618.9044   19473623.1854
  21034345.085    -3654002.09849  -2590019.03849  21034345.6364   21034348.4314
  20627694.061   -19546453.57949 -15219046.82849  20627694.2544   20627698.4554
  18213936.352   -30166593.43349 -23495667.92149  18213936.2944   18213939.5814
  20594879.362   -17862344.17849 -13886170.10549  20594879.0324   20594883.5334
  22050424.314   -10154744.15549  -7885159.72149  22050423.2504   22050428.1204
  21597273.298    -3486546.99849  -2695889.10949  21597272.7994   21597277.5294
 97  3 14  4 16 29.9930000  0  7 17 30 26  6 23 22 10
  19460013.504   -29687628.57849 -23107416.52649  19460013.0034   19460017.5444
  21047637.020    -3584152.66149  -2535590.90949  21047637.1744   21047641.2524
  20611853.970   -19629694.19349 -15283909.62449  20611853.7314   20611857.6694
  18207650.495   -30199626.11249 -23521407.67149  18207650.2164   18207653.7294
  20572865.066   -17978029.83249 -13976314.76149  20572864.8524   20572869.9744
  22034166.854   -10240177.26149  -7951730.96349  22034165.9844   22034170.6374
  21610077.029    -3419263.06649  -2643460.08349  21610075.9464   21610080.3154
 97  3 14  4 16 59.9930000  0  7 17 30 26  6 23 22 10
  19446454.726   -29758880.38949 -23162937.40049  19446454.4404   19446458.3744
  21060961.123    -3514133.89749  -2481030.84349  21060962.1094   21060964.7154
  20596098.848   -19712487.84849 -15348424.14549  20596098.6784   20596102.5184
  18201454.450   -30232186.32649 -23546779.27349  18201454.3154   18201457.5884
  20550917.486   -18093365.06949 -14066186.36249  20550916.7464   20550921.0954
  22018003.855   -10325114.61249  -8017915.92049  22018003.6034   22018006.0614
  21622912.964    -3351809.27749  -2590898.69549  21622912.4594   21622916.6664
 97  3 14  4 17 29.9930000  0  7 17 30 26  6 23 22 10
  19432930.417   -29829951.67749 -23218317.59549  19432929.7834   19432934.1544
  21074310.063    -3443985.45349  -2426369.73649  21074310.0094   21074313.3594
  20580421.523   -19794873.63549 -15412620.85349  20580421.0614   20580426.3084
  18195339.405   -30264321.08449 -23571819.33549  18195339.1794   18195342.5074
  20529026.495   -18208401.92449 -14155825.45049  20529025.7514   20529030.7804
  22001925.639   -10409606.81149  -8083753.96749  22001925.7044   22001928.7564
  21635770.871    -3284240.52249  -2538247.70749  21635769.3294   21635773.2244
 97  3 14  4 17 59.9930000  0  7 17 30 26  6 23 22 10
  19419437.580   -29900857.43549 -23273568.83349  19419437.1734   19419441.3614
  21087686.696    -3373690.02949  -2371594.10049  21087686.8384   21087690.5084
  20564824.410   -19876837.06549 -15476488.45049  20564824.5984   20564828.0124
  18189309.500   -30296008.33949 -23596510.70949  18189309.5134   18189312.8134
  20507195.609   -18323123.29149 -14245218.71649  20507195.1344   20507200.0334
  21985932.204   -10493654.10149  -8149245.34149  21985931.2674   21985934.7384
  21648654.852    -3216534.99449  -2485490.16849  21648653.3294   21648658.0024
 97  3 14  4 18 29.9930000  0  7 17 30 26  6 23 22 10
  19405979.872   -29971577.90949 -23328675.67949  19405979.2204   19405983.3344
  21101094.131    -3303233.27149  -2316692.76049  21101094.3064   21101097.3094
  20549312.711   -19958351.29349 -15540006.01249  20549312.4974   20549317.3044
  18183368.611   -30327227.79249 -23620837.55449  18183368.2864   18183371.9514
  20485426.406   -18437520.86949 -14334359.67349  20485426.4544   20485430.7864
  21970027.454   -10577234.47849  -8214372.88449  21970026.1974   21970030.6044
  21661570.310    -3148664.85949  -2432604.37149  21661569.5874   21661572.8274
 97  3 14  4 18 59.9930000  0  7 17 30 26  6 23 22 10
  19392553.830   -30042132.17649 -23383653.03049  19392553.1354   19392557.2984
  21114529.243    -3232629.97849  -2261677.19649  21114528.6064   21114533.6744
  20533886.148   -20039418.04449 -15603174.89749  20533886.1064   20533889.7584
  18177513.877   -30357994.51449 -23644811.63549  18177513.9394   18177517.2344
  20463716.038   -18551610.60449 -14423260.77349  20463716.3844   20463720.5694
  21954209.692   -10660358.56249  -8279144.88249  21954208.4884   21954212.7594
  21674518.502    -3080620.93949  -2379583.14949  21674517.1144   21674521.7294
 97  3 14  4 19 29.9930000  0  7 17 30 26  6 23 22 10
  19379156.099   -30112537.38949 -23438514.22249  19379155.7104   19379159.3674
  21127989.562    -3161894.05249  -2206558.31249  21127990.2774   21127993.2604
  20518539.931   -20120062.80249 -15666014.95649  20518539.9404   20518544.4524
  18171744.879   -30388310.94949 -23668434.82949  18171744.6434   18171748.2254
  20442060.798   -18665410.88949 -14511936.30549  20442060.5164   20442065.0914
  21938475.567   -10743042.21849  -8343573.69049  21938473.9714   21938477.8354
  21687496.348    -3012421.77949  -2326440.97749  21687495.3094   21687499.5604
 97  3 14  4 19 59.9930000  0  7 17 30 26  6 23 22 10
  19365796.314   -30182743.42249 -23493220.20549  19365796.1184   19365799.8144
  21141480.696    -3090997.56649  -2151314.28849  21141481.0574   21141484.0594
  20503280.682   -20200250.12249 -15728498.55849  20503280.2944   20503283.6174
  18166068.048   -30418142.80749 -23691680.42949  18166068.0434   18166071.5044
  20420467.348   -18778885.42049 -14600358.00049  20420467.0654   20420471.3884
  21922831.483   -10825250.74549  -8407632.28249  21922830.0514   21922834.3954
  21700507.863    -2944046.51949  -2273161.54049  21700507.2014   21700510.5794
 97  3 14  4 20 29.9930000  0  7 17 30 26  6 23 22 10
  19352473.781   -30252754.28749 -23547774.11449  19352473.0724   19352477.6244
  21154997.403    -3019967.05649  -2095965.82949  21154997.2004   21155001.0404
  20488105.334   -20279996.33149 -15790638.44749  20488105.7304   20488107.8934
  18160477.127   -30447523.22249 -23714574.26649  18160476.8834   18160480.3704
  20398928.296   -18892073.79549 -14688556.73049  20398928.2064   20398932.3984
  21907272.248   -10907014.94349  -8471344.63649  21907270.8224   21907275.0574
  21713543.589    -2875543.94149  -2219782.90249  21713543.0474   21713546.7474
 97  3 14  4 20 59.9930000  0  7 17 30 26  6 23 22 10
  19339189.493   -30322563.62949 -23602171.00349  19339188.7884   19339193.1344
  21168541.022    -2948794.08449  -2040506.39349  21168541.7934   21168544.8344
  20473015.890   -20359291.81649 -15852427.12849  20473015.6764   20473018.9654
  18154975.839   -30476432.27749 -23737100.80049  18154975.6024   18154979.1414
  20377448.389   -19004952.12049 -14776513.84549  20377448.1664   20377452.1574
  21891800.644   -10988319.24349  -8534698.64749  21891800.0924   21891803.7234
  21726601.089    -2806926.18049  -2166314.51249  21726600.8974   21726603.8954
 97  3 14  4 21 29.9930000  0  7 17 30 26  6 23 22 10
  19325948.621   -30392144.76049 -23656390.05849  19325948.0954   19325952.5954
  21182115.045    -2877462.71449  -1984923.53249  21182116.4264   21182119.2874
  20458016.076   -20438116.08149 -15913848.64349  20458017.1494   20458019.5564
  18149570.414   -30504837.85049 -23759235.03449  18149570.3444   18149573.5064
  20356033.138   -19117490.35949 -14864205.97349  20356032.7324   20356036.9224
  21876422.106   -11069134.04649  -8597671.22849  21876420.4694   21876425.4264
  21739679.876    -2738196.71949  -2112759.08749  21739680.5124   21739681.9774
 97  3 14  4 21 59.9930000  0  7 17 30 26  6 23 22 10
  19312747.963   -30461514.69649 -23710444.54149  19312747.0334   19312751.7454
  21195712.803    -2806007.23449  -1929243.94649  21195713.8134   21195716.7974
  20443102.978   -20516486.31949 -15974916.38249  20443103.6144   20443105.9154
  18144255.429   -30532768.43349 -23780999.15649  18144255.4134   18144258.9144
  20334678.830   -19229708.16849 -14951648.41849  20334678.2454   20334682.9284
  21861130.748   -11149489.45149  -8660285.84149  21861129.5854   21861133.7264
  21752776.038    -2669376.66949  -2059133.06249  21752774.9374   21752778.3944
 97  3 14  4 22 29.9930000  0  7 17 30 26  6 23 22 10
  19299589.209   -30530664.07949 -23764327.16749  19299588.2734   19299592.6494
  21209336.484    -2734415.39849  -1873458.10249  21209336.5924   21209340.7804
  20428278.741   -20594388.78449 -16035619.58749  20428279.6864   20428281.9234
  18139035.847   -30560197.43149 -23802372.38149  18139035.6974   18139039.1234
  20313389.985   -19341581.69049 -15038822.57249  20313388.8444   20313394.2114
  21845931.921   -11229359.65449  -8722522.33149  21845930.0474   21845934.6914
  21765896.477    -2600428.88249  -2005407.52249  21765895.7144   21765899.3394
 97  3 14  4 22 59.9930000  0  7 17 30 26  6 23 22 10
  19286467.770   -30599617.48849 -23818057.09849  19286467.1074   19286470.9134
  21222981.231    -2662713.15649  -1817586.24249  21222981.6164   21222985.8234
  20413540.561   -20671838.89449 -16095970.30649  20413541.0204   20413544.3704
  18133910.275   -30587132.56249 -23823360.80849  18133910.0254   18133913.6614
  20292168.185   -19453102.58749 -15125721.95449  20292167.2554   20292172.4014
  21830828.353   -11308729.42049  -8784368.89849  21830827.1934   21830831.5424
  21779042.633    -2531345.43849  -1951576.27949  21779041.2834   21779045.2714
 97  3 14  4 23 29.9930000  0  7 17 30 26  6 23 22 10
  19273374.377   -30668424.11449 -23871672.64349  19273373.5514   19273377.7684
  21236638.973    -2590941.95649  -1761660.63649  21236639.6804   21236643.0144
  20398881.686   -20748871.72049 -16155995.88149  20398881.6484   20398885.4394
  18128867.953   -30613630.26849 -23844008.38749  18128868.1164   18128871.2464
  20271003.032   -19564325.84049 -15212389.41249  20271003.0174   20271007.3534
  21815811.021   -11387645.17849  -8845861.68949  21815811.0984   21815815.3064
  21792208.185    -2462159.42849  -1897665.12449  21792207.8084   21792210.7454
 97  3 14  4 23 59.9930000  0  7 17 30 26  6 23 22 10
  19260311.417   -30737070.02149 -23925162.96149  19260310.6644   19260315.0914
  21250313.130    -2519084.47249  -1705667.80949  21250312.6154   21250317.2474
  20384306.920   -20825462.74249 -16215677.17949  20384306.7584   20384311.0244
  18123911.605   -30639676.54549 -23864304.20149  18123911.8574   18123915.0304
  20249895.191   -19675249.08149 -15298823.09249  20249894.7204   20249899.1034
  21800884.323   -11466086.56149  -8906984.83449  21800883.3234   21800887.5364
  21805399.757    -2392838.04649  -1843648.46549  21805398.7674   21805402.6144
 97  3 14  4 24 29.9930000  0  7 17 30 26  6 23 22 10
  19247281.551   -30805542.06749 -23978517.80449  19247281.0854   19247284.8314
  21264007.367    -2447120.84949  -1649592.27249  21264007.9444   21264009.8134
  20369822.172   -20901580.51249 -16274989.73249  20369822.7054   20369826.1894
  18119044.859   -30665251.83249 -23884233.00349  18119044.9964   18119048.2354
  20228846.912   -19785858.42049 -15385012.18849  20228846.3514   20228851.0284
  21786054.679   -11544017.29349  -8967710.06549  21786054.0294   21786056.9354
  21818619.164    -2323369.34849  -1789517.02949  21818618.5954   21818621.8284
 97  3 14  4 24 59.9930000  0  7 17 30 26  6 23 22 10
  19234254.127   -30874001.79149 -24031863.03049  19234253.7834   19234257.7514
  21277689.225    -2375222.17249  -1593567.32349  21277689.5424   21277692.9964
  20355396.552   -20977387.44249 -16334060.06149  20355396.4224   20355401.1884
  18114235.810   -30690523.90049 -23903925.53149  18114235.4564   18114239.2274
  20207825.337   -19896327.06949 -15471091.64349  20207824.5444   20207829.1294
  21771289.791   -11621606.88249  -9028169.47949  21771289.7304   21771293.7294
  21831831.388    -2253938.84649  -1735415.33449  21831830.4184   21831834.1264
 97  3 14  4 25 29.9930000  0  7 17 30 26  6 23 22 10
  19221290.727   -30942125.51049 -24084946.44749  19221290.1584   19221294.3694
  21291420.084    -2303066.32549  -1537341.98049  21291419.7974   21291424.4364
  20341090.315   -21052566.80649 -16392641.36149  20341090.3564   20341094.7664
  18109544.700   -30715175.49249 -23923134.57749  18109544.6034   18109548.0954
  20186888.684   -20006349.65549 -15556823.53049  20186888.3584   20186892.7464
  21756642.943   -11698577.07949  -9088146.26949  21756641.6004   21756646.3914
  21845094.008    -2184242.36849  -1681106.41449  21845092.7574   21845097.6134
 97  3 14  4 25 59.9920000  0  7 17 30 26  6 23 22 10
  19208374.422   -31010000.98649 -24137836.42449  19208373.9294   19208378.1844
  21305177.857    -2230766.97349  -1481004.83049  21305177.6324   21305181.2894
  20326881.798   -21127232.89449 -16450822.70749  20326881.4834   20326886.1954
  18104954.653   -30739296.11949 -23941929.88349  18104954.6614   18104957.9674
  20166020.324   -20116013.87849 -15642276.15949  20166019.6254   20166024.0364
  21742097.138   -11775016.10349  -9147709.13649  21742096.3004   21742100.5804
  21858385.308    -2114394.62349  -1626679.63549  21858383.6964   21858388.4604
 97  3 14  4 26 29.9920000  0  7 17 30 26  6 23 22 10
  19195496.587   -31077674.78249 -24190569.24749  19195495.9254   19195499.9444
  21318956.132    -2158359.82249  -1424583.68549  21318957.1734   21318960.5404
  20312760.139   -21201442.11349 -16508648.05349  20312759.8194   20312763.9044
  18100458.140   -30762925.95749 -23960342.77449  18100458.0744   18100461.3974
  20145214.804   -20225347.79249 -15727471.41249  20145214.2384   20145218.7864
  21727643.884   -11850967.89749  -9206892.34149  21727643.0664   21727646.6964
  21871696.184    -2044443.60949  -1572172.37349  21871695.5304   21871700.0074
 97  3 14  4 26 59.9920000  0  7 17 30 26  6 23 22 10
  19182655.492   -31145155.30949 -24243151.47049  19182654.8544   19182658.5144
  21332754.243    -2085852.58749  -1368084.57249  21332753.3524   21332757.7624
  20298725.606   -21275193.58449 -16566116.72049  20298726.2044   20298728.9964
  18096054.393   -30786067.85049 -23978375.44049  18096054.2424   18096057.6254
  20124473.417   -20334344.37349 -15812403.81649  20124472.8574   20124477.5824
  21713281.424   -11926442.34649  -9265703.59649  21713280.3994   21713284.0144
  21885024.749    -1974400.19049  -1517593.09649  21885024.1534   21885028.1434
 97  3 14  4 27 29.9920000  0  7 17 30 26  6 23 22 10
  19169843.203   -31212484.26049 -24295615.58449  19169842.4444   19169846.6074
  21346563.973    -2013281.36949  -1311535.60249  21346563.5024   21346567.3764
  20284772.343   -21348518.10249 -16623252.69349  20284772.3044   20284776.5724
  18091735.721   -30808762.31549 -23996059.45349  18091735.5824   18091739.2404
  20103788.585   -20443043.19849 -15897104.18349  20103787.3284   20103793.2124
  21699002.169   -12001480.20149  -9324174.65049  21699001.3144   21699005.0964
  21898363.584    -1904303.34849  -1462972.20549  21898364.0184   21898368.1924
 97  3 14  4 27 59.9920000  0  7 17 30 26  6 23 22 10
  19157064.132   -31279638.34349 -24347943.43349  19157063.5814   19157067.9104
  21360389.129    -1940629.14049  -1254923.51049  21360390.0804   21360393.2964
  20270907.990   -21421376.07649 -16680025.11749  20270908.6724   20270912.3494
  18087509.169   -30830972.83049 -24013366.35949  18087509.0184   18087512.4814
  20083168.148   -20551403.47549 -15981540.76149  20083167.9624   20083172.6134
  21684817.694   -12076019.88849  -9382257.51049  21684816.9944   21684821.1034
  21911718.724    -1834122.70749  -1408286.00949  21911718.4834   21911722.4534
 97  3 14  4 28 29.9920000  0  7 17 30 26  6 23 22 10
  19144322.119   -31346598.44749 -24400120.14149  19144321.9224   19144325.5424
  21374233.113    -1867878.53149  -1198234.73749  21374234.3154   21374237.4124
  20257141.450   -21493720.04749 -16736397.03649  20257141.9924   20257145.9604
  18083378.925   -30852677.54749 -24030279.13349  18083378.8374   18083381.9814
  20062617.114   -20659400.89649 -16065694.58749  20062617.0994   20062621.3204
  21670729.784   -12150051.85449  -9439944.74649  21670729.5364   21670733.3614
  21925094.475    -1763833.85649  -1353515.47149  21925093.4244   21925099.0484
 97  3 14  4 28 59.9920000  0  7 17 30 26  6 23 22 10
  19131611.302   -31413394.51049 -24452169.01849  19131610.5124   19131614.7974
  21388085.839    -1795082.28649  -1141510.41449  21388085.9264   21388090.5434
  20243465.990   -21565584.92649 -16792395.63449  20243465.8804   20243470.1344
  18079336.009   -30873923.15549 -24046834.16049  18079335.8964   18079339.4064
  20042124.411   -20767091.73849 -16149609.51149  20042123.9764   20042128.3174
  21656729.218   -12223626.06249  -9497275.26649  21656728.9294   21656732.7754
  21938483.516    -1693473.73449  -1298689.37949  21938482.3954   21938486.8674
 97  3 14  4 29 29.9920000  0  7 17 30 26  6 23 22 10
  19118936.127   -31480002.81549 -24504071.58849  19118935.4064   19118939.7504
  21401945.321    -1722249.86049  -1084757.87749  21401945.1524   21401950.1284
  20229878.826   -21636984.98849 -16848032.02349  20229878.5374   20229882.8174
  18075381.274   -30894705.48749 -24063028.19449  18075381.2144   18075384.9694
  20021691.377   -20874467.49549 -16233278.91849  20021690.7524   20021695.0974
  21642816.506   -12296738.31449  -9554245.84549  21642816.4304   21642820.0554
  21951887.930    -1623032.54449  -1243800.07549  21951886.0854   21951892.0354
 97  3 14  4 29 59.9920000  0  7 17 30 26  6 23 22 10
  19106304.180   -31546384.23349 -24555797.36549  19106303.2324   19106307.4374
  21415815.046    -1649363.68049  -1027963.48549  21415814.6904   21415819.8114
  20216386.545   -21707887.15249 -16903280.45349  20216386.4974   20216390.4264
  18071518.832   -30915002.72149 -24078844.25049  18071518.4484   18071522.4484
  20001326.829   -20981483.63549 -16316668.10949  20001326.1804   20001330.8774
  21628999.124   -12369349.67449  -9610826.12649  21628998.8464   21629003.2924
  21965314.668    -1552474.95549  -1188820.07749  21965314.4494   21965319.3374
 97  3 14  4 30 29.9920000  0  7 17 30 26  6 23 22 10
  19093715.545   -31612537.40049 -24607345.28449  19093714.8564   19093719.0684
  21429697.392    -1576410.63649   -971116.92749  21429697.9294   21429701.5174
  20202988.927   -21778291.50849 -16958140.96649  20202989.0724   20202993.6874
  18067746.890   -30934824.31349 -24094289.65649  18067746.8794   18067750.4064
  19981030.035   -21088143.57649 -16399779.73549  19981029.4214   19981034.4654
  21615274.321   -12441474.10449  -9667026.97549  21615273.4784   21615276.5574
  21978763.671    -1481800.36049  -1133748.93449  21978761.7304   21978767.2154
 97  3 14  4 30 59.9920000  0  7 17 30 26  6 23 22 10
  19081174.198   -31678442.52849 -24658699.93349  19081173.5484   19081177.7394
  21443598.168    -1503362.04949   -914195.92449  21443599.4254   21443602.6514
  20189690.075   -21848177.50649 -17012597.57149  20189689.9784   20189695.0974
  18064072.037   -30954136.08149 -24109337.81249  18064071.9034   18064075.4604
  19960806.520   -21194418.53349 -16482591.37349  19960805.9324   19960810.9044
  21601647.874   -12513080.36549  -9722824.05749  21601646.8914   21601651.1754
  21992239.767    -1410982.24149  -1078565.99049  21992238.4804   21992243.4364
 97  3 14  4 31 29.9920000  0  7 17 30 26  6 23 22 10
  19068675.176   -31744125.17049 -24709881.21649  19068674.6314   19068678.8014
  21457515.718    -1430225.18549   -857206.16449  21457516.0614   21457520.1904
  20176491.426   -21917536.29349 -17066643.37649  20176491.7954   20176496.5734
  18060493.293   -30972942.36949 -24123992.06749  18060493.3114   18060496.9334
  19940655.835   -21300310.84749 -16565104.86049  19940655.5314   19940659.9294
  21588119.652   -12584171.36049  -9778219.65649  21588118.6664   21588122.3554
  22005740.682    -1340032.62349  -1023280.59349  22005739.1544   22005745.5104
 97  3 14  4 31 59.9920000  0  7 17 30 26  6 23 22 10
  19056201.740   -31809673.68849 -24760957.97849  19056201.1964   19056205.2224
  21471441.715    -1357044.42049   -800182.17149  21471441.5704   21471445.6084
  20163386.686   -21986402.38149 -17120305.26049  20163387.3574   20163390.8334
  18057001.371   -30991292.35649 -24138290.77149  18057001.3284   18057005.0464
  19920563.315   -21405897.83549 -16647380.42549  19920563.1714   19920567.3384
  21574678.283   -12654806.86349  -9833260.32149  21574677.1724   21574681.1644
  22019254.986    -1269013.02849   -967940.71949  22019252.8384   22019260.2664
 97  3 14  4 32 29.9920000  0  7 17 30 26  6 23 22 10
  19043764.631   -31875030.94949 -24811885.72649  19043763.9474   19043768.1204
  21485388.919    -1283749.89549   -743069.53549  21485389.6844   21485393.2874
  20150388.355   -22054710.19349 -17173532.11149  20150388.9264   20150392.2764
  18053613.097   -31009098.34349 -24152165.57949  18053613.0744   18053616.6224
  19900538.926   -21511127.28249 -16729377.38249  19900538.2644   19900542.4554
  21561334.395   -12724929.42149  -9887901.27149  21561334.3094   21561337.6844
  22032794.479    -1197862.54349   -912498.86449  22032793.4444   22032799.3514
 97  3 14  4 32 59.9920000  0  7 17 30 26  6 23 22 10
  19031352.630   -31940256.58049 -24862710.89649  19031352.2094   19031356.2274
  21499342.876    -1210420.73849   -685929.96949  21499342.8654   21499346.9554
  20137483.312   -22122527.28049 -17226376.58349  20137483.5204   20137487.5674
  18050317.394   -31026417.24649 -24165660.84149  18050317.2154   18050320.8354
  19880570.833   -21616059.97749 -16811143.10949  19880570.5574   19880574.4434
  21548077.957   -12794592.89449  -9942184.47249  21548076.7974   21548081.3684
  22046344.369    -1126658.68049   -857015.37549  22046344.8134   22046348.9534
 97  3 14  4 33 29.9920000  0  7 17 30 26  6 23 22 10
  19018975.832   -32005297.35849 -24913392.02049  19018975.1274   19018979.2064
  21513312.967    -1137008.35949   -628725.54249  21513313.8234   21513315.4554
  20124680.048   -22189809.44049 -17278804.22549  20124680.9434   20124684.4814
  18047122.026   -31043209.11549 -24178745.44849  18047122.0874   18047125.6864
  19860669.958   -21720639.49249 -16892633.63349  19860669.6154   19860674.0834
  21534920.673   -12863734.65949  -9996061.16549  21534920.2254   21534923.4244
  22059912.690    -1055358.12249   -801456.52949  22059912.9404   22059917.3934
 97  3 14  4 33 59.9920000  0  7 17 30 26  6 23 22 10
  19006627.492   -32070188.45149 -24963956.49949  19006626.4064   19006630.7584
  21527290.050    -1063558.84449   -571492.14349  21527289.8474   21527293.8584
  20111965.909   -22256622.66749 -17330866.47449  20111966.5054   20111970.5794
  18044018.191   -31059520.31749 -24191455.50549  18044018.1264   18044021.5894
  19840830.656   -21824895.57449 -16973872.13049  19840830.2794   19840834.7024
  21521855.964   -12932389.76449 -10049558.64449  21521855.2104   21521859.4094
  22073487.677     -984022.81449   -745870.58649  22073487.5434   22073491.7934
 97  3 14  4 34 29.9920000  0  7 17 30 26  6 23 22 10
  18994327.934   -32134822.36949 -25014320.58349  18994327.0914   18994331.3944
  21541287.633     -989999.62549   -514173.25649  21541287.5174   21541292.6394
  20099355.339   -22322892.02449 -17382504.92949  20099355.6164   20099359.3414
  18041019.527   -31075278.44049 -24203734.57149  18041019.5724   18041022.7524
  19821074.983   -21928712.58049 -17054768.49449  19821074.1664   19821079.4004
  21508902.340   -13000461.33149 -10102601.41849  21508901.7174   21508906.2294
  22087082.849     -912580.84849   -690201.53549  22087081.6924   22087086.7574
 97  3 14  4 34 59.9920000  0  7 17 30 26  6 23 22 10
  18982049.526   -32199345.72349 -25064598.50649  18982049.0314   18982053.5834
  21555277.947     -916479.56349   -456884.90449  21555277.5124   21555283.8924
  20086820.277   -22388764.90549 -17433834.43749  20086819.9144   20086823.3864
  18038094.115   -31090651.80849 -24215713.83249  18038094.0174   18038097.3324
  19801377.216   -22032225.01649 -17135427.51949  19801376.6924   19801381.3804
  21496033.885   -13068085.98549 -10155295.95249  21496033.1264   21496037.2754
  22100667.657     -841192.26749   -634574.07949  22100667.1474   22100671.7804
 97  3 14  4 35 29.9920000  0  7 17 30 26  6 23 22 10
  18969809.557   -32263667.89449 -25114719.67449  18969808.6854   18969813.0434
  21569280.898     -842894.29749   -399545.73849  21569281.2074   21569285.6764
  20074381.301   -22454131.97349 -17484769.80749  20074381.3754   20074384.2694
  18035260.002   -31105545.27149 -24227319.14449  18035259.8394   18035263.2294
  19781755.171   -22135339.17349 -17215776.20349  19781754.7364   19781759.6804
  21483267.588   -13135173.13849 -10207571.65749  21483267.6634   21483271.1384
  22114263.425     -769746.95949   -578902.40449  22114262.4054   22114266.9914
 97  3 14  4 35 59.9920000  0  7 17 30 26  6 23 22 10
  18957609.051   -32327781.34449 -25164678.19949  18957608.3614   18957612.4804
  21583298.309     -769232.98049   -342147.31249  21583298.4534   21583301.4274
  20062041.981   -22518975.17349 -17535296.96249  20062041.9474   20062046.0034
  18032519.700   -31119945.62049 -24238540.21249  18032519.5564   18032523.1884
  19762208.692   -22238055.83149 -17295815.14649  19762208.2084   19762213.1284
  21470602.182   -13201729.46849 -10259433.76149  21470601.7324   21470604.2864
  22127872.165     -698231.98849   -523176.45549  22127870.8544   22127875.6204
 97  3 14  4 36 29.9920000  0  7 17 30 26  6 23 22 10
  18945442.901   -32391714.82049 -25214496.48649  18945442.2134   18945446.3484
  21597324.167     -695525.50849   -284712.87849  21597324.0644   21597327.0324
  20049799.370   -22583310.80049 -17585428.60849  20049798.7534   20049802.8904
  18029870.256   -31133868.49249 -24249389.22949  18029869.9014   18029873.6264
  19742729.161   -22340421.32449 -17375580.45349  19742728.7434   19742733.5984
  21458030.872   -13267791.94549 -10310911.00449  21458029.6354   21458034.5784
  22141492.320     -626656.40449   -467403.24949  22141491.4444   22141494.2524
 97  3 14  4 36 59.9920000  0  8 17 30 26  6 23 22 10 21
  18933324.968   -32455395.08849 -25264117.47149  18933324.6024   18933328.1414
  21611374.013     -621692.48149   -227180.63649  21611374.8864   21611378.0314
  20037670.237   -22647049.60649 -17635095.20049  20037670.0504   20037673.7524
  18027330.044   -31147217.26749 -24259790.88149  18027329.9394   18027333.5294
  19723328.312   -22442373.44849 -17455023.65149  19723327.7944   19723332.4134
  21445568.940   -13333280.04549 -10361940.68249  21445568.4024   21445571.9264
  22155142.261     -554925.61949   -411509.09449  22155140.7554   22155142.8064
  22740074.862    -2581943.93349  -1980371.72049  22740075.1444   22740079.4704
 97  3 14  4 37 29.9920000  0  8 17 30 26  6 23 22 10 21
  18921231.552   -32518946.81949 -25313638.29349  18921230.8544   18921235.0184
  21625423.457     -547864.08649   -169652.03249  21625424.9004   21625426.8434
  20025630.174   -22710320.82749 -17684397.44249  20025630.3554   20025634.1674
  18024878.781   -31160098.67049 -24269828.35049  18024878.9264   18024882.1584
  19703982.624   -22544036.20749 -17534241.37849  19703982.5774   19703986.8214
  21433192.817   -13398317.69549 -10412619.35249  21433192.6694   21433196.4684
  22168800.885     -483148.83449   -355579.05349  22168801.0084   22168804.5554
  22715965.013    -2708643.19349  -2079098.47949  22715965.2944   22715969.7044
 97  3 14  4 37 59.9920000  0  8 17 30 26  6 23 22 10 21
  18909185.492   -32582248.79049 -25362964.50849  18909184.8944   18909188.7934
  21639487.616     -473957.82949   -112062.73949  21639489.4534   21639491.3424
  20013698.228   -22773023.09449 -17733256.34349  20013698.4654   20013701.9784
  18022536.922   -31172405.22649 -24279417.90449  18022536.7074   18022540.4644
  19684710.525   -22645311.42349 -17613157.11449  19684709.9994   19684714.8864
  21420923.577   -13462792.96649 -10462859.83749  21420922.4344   21420926.7894
  22182485.643     -411234.95149   -299542.23949  22182484.1064   22182491.6514
  22691893.686    -2835138.60849  -2177666.34649  22691892.4704   22691899.0444
 97  3 14  4 38 29.9920000  0  8 17 30 26  6 23 22 10 21
  18897167.518   -32645403.56749 -25412176.02549  18897166.8144   18897171.1104
  21653543.917     -400091.59149    -54504.66749  21653544.2634   21653547.1184
  20001857.221   -22835248.21449 -17781743.44849  20001857.0824   20001860.8764
  18020283.958   -31184244.36749 -24288643.23349  18020283.9774   18020287.2944
  19665492.849   -22746300.72849 -17691850.07549  19665492.3434   19665497.4254
  21408743.002   -13526801.61149 -10512736.68549  21408742.0164   21408746.4394
  22196175.033     -339295.05949   -243485.23149  22196175.3584   22196180.7614
  22667842.167    -2961529.09649  -2276152.41949  22667842.8194   22667846.6164
 97  3 14  4 38 59.9920000  0  8 17 30 26  6 23 22 10 21
  18885190.964   -32708340.69649 -25461217.93349  18885190.5554   18885194.7164
  21667605.231     -326199.75849      3073.38549  21667605.6094   21667609.3494
  19990122.725   -22896913.06049 -17829793.96849  19990122.9664   19990125.9774
  18018129.573   -31195565.94049 -24297465.24049  18018129.6384   18018133.0114
  19646346.572   -22846915.15749 -17770250.91649  19646346.2184   19646350.5924
  21396663.676   -13590278.19249 -10562198.96349  21396662.8094   21396666.8714
  22209880.064     -267274.99849   -187365.71649  22209878.8414   22209885.2004
  22643823.798    -3087749.20849  -2374505.75049  22643823.4774   22643829.7564
 97  3 14  4 39 29.9920000  0  8 17 30 26  6 23 22 10 21
  18873250.621   -32771087.74949 -25510111.73249  18873249.9414   18873254.3184
  21681664.400     -252318.49049     60643.19149  21681664.5564   21681668.0244
  19978489.121   -22958048.13549 -17877431.68049  19978489.1304   19978492.8774
  18016063.867   -31206421.70149 -24305924.27549  18016063.9184   18016067.4014
  19627265.480   -22947187.20749 -17848384.97249  19627265.1774   19627269.5944
  21384676.382   -13653271.68249 -10611284.80449  21384676.7464   21384679.4784
  22223591.381     -195221.58549   -131220.18549  22223590.3594   22223597.3614
  22619827.941    -3213848.76249  -2472765.15149  22619827.6994   22619832.6364
 97  3 14  4 39 59.9920000  0  8 17 30 26  6 23 22 10 21
  18861352.728   -32833611.33949 -25558831.41549  18861352.1684   18861356.3934
  21695727.185     -178417.90749    118228.05349  21695726.4414   21695730.5144
  19966964.813   -23018608.34249 -17924621.43949  19966964.7784   19966968.8994
  18014090.806   -31216790.29049 -24314003.69249  18014090.8044   18014094.0234
  19608255.919   -23047083.18149 -17926225.97349  19608255.6374   19608260.1274
  21372786.324   -13715755.89349 -10659973.80249  21372785.5684   21372789.4634
  22237312.773     -123115.90649    -75033.98149  22237312.7294   22237316.6444
  22595859.587    -3339804.93149  -2570912.80349  22595859.8024   22595864.6754
 97  3 14  4 40 29.9920000  0  8 17 30 26  6 23 22 10 21
  18849484.449   -32895979.48649 -25607429.94849  18849484.0144   18849488.0974
  21709786.609     -104535.05849    175799.12449  21709786.6174   21709789.8444
  19955540.660   -23078641.83249 -17971400.76749  19955539.5674   19955544.4794
  18012201.299   -31226719.96049 -24321741.13149  18012201.1234   18012204.6024
  19589312.858   -23146630.38849 -18003795.21249  19589312.4414   19589316.9154
  21360983.395   -13777781.44349 -10708305.40949  21360982.3804   21360985.5334
  22251035.981      -51001.70549    -18841.10349  22251035.9984   22251039.5724
  22571906.774    -3465677.91949  -2668995.61049  22571906.0854   22571911.0624
 97  3 14  4 40 59.9920000  0  8 17 30 26  6 23 22 10 21
  18837644.072   -32958201.34149 -25655914.50049  18837643.5614   18837647.6294
  21723839.109      -30688.97249    233341.50049  21723840.4084   21723843.2484
  19944210.960   -23138179.41649 -18017793.68949  19944211.0404   19944215.0164
  18010395.968   -31236207.22349 -24329133.83249  18010395.9224   18010399.2894
  19570434.550   -23245836.13849 -18081098.39249  19570434.0604   19570438.0824
  21349265.497   -13839358.09249 -10756287.19449  21349265.5014   21349269.0034
  22264758.424       21108.46449     37348.65049  22264758.3694   22264761.7924
  22547968.005    -3591476.44649  -2767020.42849  22547966.9074   22547971.3144
 97  3 14  4 41 29.9920000  0  8 17 30 26  6 23 22 10 21
  18825848.712   -33020186.48049 -25704214.61149  18825848.0174   18825852.0454
  21737899.292       43198.08449    290915.81349  21737899.1164   21737902.2284
  19932989.439   -23197148.33949 -18063743.49049  19932989.0894   19932992.7594
  18008695.794   -31245141.64049 -24336095.72949  18008695.7694   18008699.0914
  19551635.901   -23344623.60849 -18158075.63149  19551635.0954   19551639.4134
  21337653.054   -13900382.30549 -10803838.52249  21337651.3614   21337656.5214
  22278498.927       93315.80549     93614.10349  22278498.0074   22278502.8574
  22524061.568    -3717105.64549  -2864913.28949  22524061.3074   22524066.5674
 97  3 14  4 41 59.9920000  0  8 17 30 26  6 23 22 10 21
  18814088.401   -33081987.42049 -25752371.17249  18814088.1484   18814091.8824
  21751958.024      117077.54449    348484.27549  21751958.0334   21751960.7674
  19921867.919   -23255592.19849 -18109284.15349  19921868.0484   19921871.7134
  18007096.985   -31253543.78049 -24342642.87649  18007097.0064   18007100.2374
  19532909.676   -23443030.27549 -18234756.13849  19532909.1584   19532913.1544
  21326139.961   -13960883.03449 -10850981.97149  21326139.2414   21326143.4264
  22292249.866      165579.18249    149923.22649  22292249.0374   22292253.8334
  22500182.805    -3842590.61249  -2962693.79949  22500181.9684   22500188.2744
 97  3 14  4 42 29.9920000  0  8 17 30 26  6 23 22 10 21
  18802361.356   -33143613.94649 -25800391.82849  18802360.7474   18802364.7934
  21766013.325      190939.11449    406038.73949  21766014.2524   21766016.7314
  19910845.420   -23313515.55349 -18154419.22149  19910845.5484   19910849.3404
  18005599.080   -31261415.05849 -24348776.35449  18005598.7034   18005602.8304
  19514254.006   -23541066.39749 -18311147.89949  19514253.7334   19514257.6604
  21314724.906   -14020869.71549 -10897724.84449  21314724.4934   21314728.0974
  22306010.950      237895.11549    206273.28849  22306009.9314   22306016.5274
  22476328.841    -3967943.87449  -3060371.62049  22476328.3524   22476334.0054
 97  3 14  4 42 59.9920000  0  8 17 30 26  6 23 22 10 21
  18790671.691   -33205043.55849 -25848259.05249  18790671.0594   18790675.3534
  21780068.991      264801.52849    463593.87249  21780069.6324   21780073.5934
  19899926.534   -23370895.53549 -18199130.88349  19899926.6874   19899930.9114
  18004205.017   -31268740.78649 -24354484.73649  18004205.0884   18004208.6834
  19495670.104   -23638726.63849 -18387246.77049  19495669.8994   19495673.9244
  21303412.424   -14080317.63649 -10944047.91049  21303411.1054   21303415.1944
  22319783.983      310273.46349    262671.97949  22319784.6454   22319788.5854
  22452502.591    -4093151.79649  -3157936.18949  22452501.6574   22452506.7164
 97  3 14  4 43 29.9920000  0  8 17 30 26  6 23 22 10 21
  18779015.766   -33266295.76649 -25895988.03849  18779015.0084   18779019.2804
  21794124.686      338664.57349    521149.49749  21794125.1014   21794127.0444
  19889111.031   -23427731.82149 -18243418.90549  19889111.5554   19889114.5614
  18002909.538   -31275548.92349 -24359789.79149  18002909.4454   18002912.6244
  19477156.521   -23736016.16249 -18463056.77549  19477155.9754   19477160.4844
  21292199.972   -14139239.45649 -10989961.01449  21292199.7374   21292203.0114
  22333565.999      382698.55749    319107.13849  22333566.0144   22333569.7424
  22428699.433    -4218236.77049  -3255404.95449  22428697.5664   22428704.6624
 97  3 14  4 43 59.9920000  0  8 17 30 26  6 23 22 10 21
  18767390.964   -33327384.31949 -25943589.50249  18767390.4664   18767394.3424
  21808179.517      412524.05049    578702.36749  21808179.9714   21808182.3904
  19878399.459   -23484021.49749 -18287280.98949  19878399.7304   19878403.8784
  18001707.617   -31281865.07849 -24364711.49349  18001707.5474   18001710.9484
  19458713.375   -23832935.00149 -18538577.93349  19458712.9834   19458717.7234
  21281084.308   -14197652.00049 -11035477.28649  21281082.8634   21281088.0504
  22347352.048      455144.11749    375558.24649  22347351.1314   22347356.5234
  22404916.519    -4343216.36849  -3352791.64649  22404916.1094   22404921.3234
 97  3 14  4 44 29.9920000  0  8 17 30 26  6 23 22 10 21
  18755795.335   -33388319.85949 -25991071.72949  18755794.7334   18755798.4604
  21822231.201      486367.73549    636242.89549  21822232.5334   21822235.2774
  19867788.918   -23539779.60849 -18330728.85649  19867788.8164   19867793.0644
  18000593.116   -31287722.10349 -24369275.43749  18000593.0994   18000596.9074
  19440338.810   -23929494.01649 -18613818.71749  19440338.0444   19440342.9444
  21270063.615   -14255566.09349 -11080605.17249  21270062.7324   21270067.6204
  22361138.217      527591.83349    432010.99849  22361140.3854   22361141.4864
  22381151.076    -4468105.14949  -3450107.56149  22381151.4414   22381155.6684
 97  3 14  4 44 59.9920000  0  8 17 30 26  6 23 22 10 21
  18744237.625   -33449056.01949 -26038398.59849  18744236.9554   18744241.1464
  21836288.584      560240.23149    693805.90349  21836289.0524   21836294.3094
  19857285.812   -23594973.93849 -18373737.42449  19857285.7974   19857289.6934
  17999573.344   -31293081.17049 -24373451.35549  17999573.2354   17999576.9604
  19422041.361   -24025647.37649 -18688743.40049  19422041.0214   19422045.6564
  21259148.294   -14312926.61749 -11125301.67749  21259147.3494   21259151.7804
  22374931.540      600077.87749    488493.65149  22374931.1084   22374940.1184
  22357413.278    -4592847.99949  -3547309.77749  22357411.7764   22357417.4994
 97  3 14  4 45 29.9920000  0  8 17 30 26  6 23 22 10 21
  18732713.933   -33509613.09149 -26085585.91849  18732713.1434   18732717.2844
  21850345.268      634109.26549    751366.22849  21850345.7804   21850350.0974
  19846886.008   -23649625.94049 -18416323.39549  19846886.2074   19846889.8804
  17998644.497   -31297962.43749 -24377254.94449  17998644.5084   17998647.9404
  19403815.572   -24121424.51049 -18763374.90949  19403814.8984   19403819.5804
  21248333.654   -14369757.73749 -11169585.66649  21248332.7854   21248337.2284
  22388727.119      672573.33049    544983.64049  22388724.7984   22388733.6664
  22333702.812    -4717447.44649  -3644400.26349  22333702.0304   22333707.2474
 97  3 14  4 45 59.9920000  0  7 17 30 26  6 23 22 21
  18721221.283   -33570007.28249 -26132646.31949  18721220.5994   18721224.7704
  21864395.503      707943.76549    808899.60149  21864395.4344   21864399.8754
  19836585.235   -23703756.75149 -18458503.24349  19836585.0084   19836589.2494
  17997803.335   -31302382.73249 -24380699.32449  17997803.0804   17997806.9724
  19385652.836   -24216869.94249 -18837747.96049  19385652.6024   19385656.5114
  21237615.952   -14426079.87249 -11213473.07049  21237615.1754   21237618.9514
  22310019.814    -4841903.24449  -3741378.78649  22310018.8754   22310023.1754
 97  3 14  4 46 29.9920000  0  7 17 30 26  6 23 22 21
  18709759.965   -33630236.80349 -26179578.40649  18709759.3234   18709763.5304
  21878438.093      781737.73049    866401.40049  21878437.8934   21878442.4414
  19826382.522   -23757371.73849 -18500281.14649  19826383.3404   19826386.7774
  17997049.893   -31306342.13949 -24383784.59749  17997049.8224   17997053.1824
  19367550.655   -24311997.12549 -18911873.01949  19367549.9944   19367554.7354
  21226996.169   -14481887.64349 -11256959.64649  21226995.1774   21226998.6384
  22286365.098    -4966207.77949  -3838239.42249  22286363.4824   22286369.4974
 97  3 14  4 46 59.9920000  0  7 17 30 26  6 23 22 21
  18698338.228   -33690258.61949 -26226348.63749  18698337.5304   18698341.7774
  21892478.570      855520.24349    923894.28449  21892479.1224   21892482.4124
  19816285.581   -23810432.02349 -18541626.81549  19816286.3304   19816290.0414
  17996394.084   -31309788.58249 -24386470.14649  17996393.8464   17996397.6024
  19349516.005   -24406769.49249 -18985721.60049  19349515.5294   19349520.0944
  21216480.048   -14537149.78249 -11300021.05149  21216479.1174   21216483.8374
  22262745.188    -5090330.48749  -3934958.40449  22262744.7534   22262749.0744
 97  3 14  4 47 29.9920000  0  7 17 30 26  6 23 22 21
  18686959.971   -33750051.64749 -26272940.60149  18686959.4474   18686963.3284
  21906518.401      929299.99749    981385.01249  21906518.4334   21906522.9714
  19806297.579   -23862919.78549 -18582526.35349  19806297.4864   19806301.6794
  17995840.240   -31312699.24849 -24388738.20549  17995840.1894   17995843.6864
  19331551.505   -24501173.38649 -19059283.05849  19331551.0364   19331555.7694
  21206067.968   -14591865.42349 -11342656.62549  21206067.2654   21206071.6954
  22239164.162    -5214248.19849  -4031517.62949  22239164.0074   22239168.2364
 97  3 14  4 47 59.9920000  0  7 17 30 26  6 23 22 21
  18675598.840   -33809754.84049 -26319462.56049  18675598.3924   18675602.0734
  21920530.949     1002934.35849   1038762.41249  21920530.9724   21920534.6864
  19796392.071   -23914973.01649 -18623087.29849  19796391.9534   19796396.1304
  17995363.611   -31315203.84349 -24390689.85249  17995363.5494   17995366.9704
  19313635.762   -24595321.65549 -19132645.32949  19313635.4384   19313639.8054
  21195731.824   -14646181.37049 -11384980.73249  21195731.3214   21195735.4914
  22215595.118    -5338104.54649  -4128029.06849  22215594.2944   22215599.3344
 97  3 14  4 48 29.9920000  0  7 17 30 26  6 23 22 21
  18664271.158   -33869282.25449 -26365847.54549  18664270.4344   18664274.7714
  21934531.959     1076510.15349   1096094.19349  21934532.9294   21934534.9444
  19786586.144   -23966504.35449 -18663241.57149  19786586.7614   19786589.8314
  17994983.722   -31317200.42049 -24392245.64449  17994983.7124   17994987.3294
  19295792.505   -24689088.63549 -19205710.49749  19295791.9714   19295796.7774
  21185489.190   -14700006.79949 -11426922.63249  21185488.8214   21185493.3324
  22192053.012    -5461818.75149  -4224429.71749  22192052.7624   22192058.8614
 97  3 14  4 48 59.9920000  0  7 17 30 26  6 23 22 21
  18652991.636   -33928556.48049 -26412035.24649  18652991.0434   18652994.8814
  21948539.189     1150119.15349   1153451.87349  21948538.1534   21948542.5874
  19776896.654   -24017423.70949 -18702918.98049  19776897.2594   19776900.1304
  17994719.080   -31318591.24049 -24393329.41949  17994718.9954   17994722.4934
  19278040.693   -24782374.24949 -19278400.57149  19278040.1514   19278044.6414
  21175353.924   -14753268.37349 -11468425.15649  21175353.1984   21175358.4144
  22168555.409    -5585300.40749  -4320649.24549  22168555.2394   22168559.9184
 97  3 14  4 49 29.9920000  0  7 17 30 26  6 23 22 21
  18641737.956   -33987695.04549 -26458117.24549  18641737.3744   18641741.6014
  21962532.786     1223655.84449   1210753.13849  21962531.6864   21962535.7874
  19767305.447   -24067826.08049 -18742193.55149  19767305.3694   19767308.6984
  17994547.590   -31319492.45149 -24394031.69549  17994547.3644   17994550.6384
  19260358.959   -24875291.99149 -19350803.99249  19260358.5114   19260363.1864
  21165305.720   -14806073.03449 -11509571.64849  21165304.7844   21165310.0304
  22145082.714    -5708650.65649  -4416766.31149  22145082.8684   22145086.2574
 97  3 14  4 49 59.9920000  0  7 17 30 26  6 23 22 21
  18630516.011   -34046666.77449 -26504069.24749  18630515.4834   18630519.7134
  21976519.736     1297157.72549   1268027.36349  21976519.4324   21976522.8964
  19757823.045   -24117656.03649 -18781022.08249  19757822.9644   19757826.5964
  17994475.030   -31319873.54749 -24394328.69349  17994475.0544   17994478.3994
  19242756.379   -24967794.36749 -19422883.74749  19242756.1974   19242760.5544
  21155353.946   -14858369.73449 -11550322.33849  21155354.3734   21155356.7164
  22121639.060    -5831847.90149  -4512764.16049  22121639.4584   22121642.8594
 97  3 14  4 50 29.9920000  0  7 17 30 26  6 23 22 21
  18619325.827   -34105471.99149 -26549891.48449  18619324.9504   18619329.1664
  21990500.789     1370628.78349   1325277.52049  21990501.0934   21990506.6544
  19748448.949   -24166917.20349 -18819407.39849  19748448.7834   19748452.9584
  17994498.840   -31319748.66549 -24394231.41349  17994498.7984   17994502.4494
  19225227.453   -25059910.20949 -19494662.31049  19225227.2424   19225231.7224
  21145499.695   -14910154.19949 -11590673.87349  21145499.3554   21145501.4154
  22098221.181    -5954909.83849  -4608656.57949  22098221.7694   22098225.7774
 97  3 14  4 50 59.9920000  0  7 17 30 26  6 23 22 21
  18608165.748   -34164118.55349 -26595590.09349  18608165.0254   18608169.0364
  22004473.297     1444053.83449   1382491.86749  22004472.6214   22004476.6844
  19739182.555   -24215612.55549 -18857351.81549  19739182.6784   19739186.1114
  17994613.512   -31319145.93249 -24393761.77749  17994613.3484   17994616.9504
  19207764.347   -25151680.26349 -19566171.42549  19207764.0324   19207768.0814
  21135738.826   -14961447.62449 -11630642.77749  21135739.2524   21135742.3514
  22074825.290    -6077852.30449  -4704455.88949  22074824.3174   22074829.3444
 97  3 14  4 51 29.9910000  0  7 17 30 26  6 23 22 21
  18597048.556   -34222539.40349 -26641112.82349  18597047.6724   18597051.8414
  22018442.379     1517464.34449   1439694.89049  22018443.3994   22018446.9994
  19730032.589   -24263695.87449 -18894819.33549  19730032.7434   19730035.8374
  17994826.432   -31318026.71849 -24392889.68249  17994826.2914   17994829.9834
  19190377.121   -25243050.93149 -19637369.33749  19190376.3094   19190380.8894
  21126084.174   -15012183.85449 -11670177.52349  21126084.5864   21126087.2264
  22051462.571    -6200622.43049  -4800120.93149  22051461.4614   22051467.2564
 97  3 14  4 51 59.9910000  0  7 17 30 26  6 23 22 21
  18585965.359   -34280781.44549 -26686496.23449  18585964.7944   18585968.7754
  22032399.499     1590809.24849   1496846.73849  22032399.7574   22032404.4274
  19720987.125   -24311229.78449 -18931858.73449  19720986.4454   19720990.7724
  17995129.218   -31316435.78449 -24391650.01849  17995129.3814   17995132.5994
  19173058.181   -25334061.95849 -19708287.00649  19173057.6584   19173061.9364
  21116525.334   -15062416.46249 -11709319.82549  21116524.7744   21116527.5254
  22028121.952    -6323277.85849  -4895696.56549  22028120.7594   22028126.2434
 97  3 14  4 52 29.9910000  0  7 17 30 26  6 23 22 21
  18574919.572   -34338827.49849 -26731726.91149  18574919.0614   18574922.8344
  22046346.394     1664100.09249   1553956.51449  22046347.5114   22046348.9904
  19712049.206   -24358198.66349 -18968457.86949  19712049.4824   19712052.7514
  17995525.290   -31314354.88949 -24390028.56749  17995525.4674   17995528.8644
  19155810.295   -25424700.09149 -19778914.10549  19155809.6994   19155814.3984
  21107066.827   -15112121.16949 -11748050.74249  21107065.9624   21107070.0994
  22004810.670    -6445781.32849  -4991153.83049  22004809.8874   22004814.9954
 97  3 14  4 52 59.9910000  0  7 17 30 26  6 23 22 21
  18563913.791   -34396663.36149 -26776793.81049  18563913.3204   18563917.2674
  22060283.013     1737338.04149   1611025.08449  22060283.1844   22060287.3924
  19703223.588   -24404577.40949 -19004597.13349  19703223.9524   19703226.6984
  17996018.116   -31311765.23549 -24388010.66849  17996018.2964   17996021.6334
  19138639.881   -25514931.30249 -19849224.12249  19138639.4764   19138643.6804
  21097711.942   -15161281.58649 -11786357.57549  21097710.4594   21097715.4224
  21981534.024    -6568101.90849  -5086468.54849  21981532.8914   21981538.8574
 97  3 14  4 53 29.9910000  0  7 17 30 26  6 23 22 21
  18552944.538   -34454306.81549 -26821710.78249  18552943.9144   18552947.6724
  22074204.031     1810494.22749   1668029.93749  22074203.7474   22074207.1464
  19694505.731   -24450390.32949 -19040295.51449  19694505.9874   19694509.3144
  17996605.189   -31308680.40249 -24385606.92549  17996605.1994   17996608.7464
  19121544.219   -25604769.90949 -19919228.20949  19121543.5414   19121548.3484
  21088457.694   -15209913.03149 -11824252.24049  21088456.9754   21088461.5204
  21958287.530    -6690261.62949  -5181657.95149  21958286.3554   21958293.7044
 97  3 14  4 53 59.9910000  0  7 17 30 26  6 23 22 21
  18542010.364   -34511766.49149 -26866484.55049  18542009.9444   18542013.8104
  22088111.158     1883576.08449   1724976.85349  22088112.0184   22088116.4004
  19685900.766   -24495609.90549 -19075531.55649  19685900.7454   19685904.6504
  17997288.737   -31305088.58349 -24382808.11149  17997288.4864   17997292.0874
  19104523.899   -25694211.62749 -19988923.04949  19104523.3344   19104527.7064
  21079304.605   -15258013.65749 -11861733.26149  21079304.6714   21079308.1564
  21935073.426    -6812253.21549  -5276716.32549  21935073.6054   21935078.9804
 97  3 14  4 54 29.9910000  0  7 17 30 26  6 23 22 21
  18531111.853   -34569038.80749 -26911112.31749  18531111.2594   18531115.3554
  22102003.902     1956581.82349   1781864.42449  22102003.5314   22102008.5334
  19677409.129   -24540232.97049 -19110302.76449  19677409.4834   19677412.5774
  17998067.619   -31300995.25349 -24379618.52349  17998067.4674   17998071.2454
  19087575.496   -25783275.74649 -20058323.65249  19087575.1074   19087579.3844
  21070251.251   -15305589.85949 -11898805.63049  21070251.4184   21070254.3074
  21911892.021    -6934071.53249  -5371639.68149  21911891.7334   21911897.1974
 97  3 14  4 54 59.9910000  0  7 17 30 26  6 23 22 21
  18520246.327   -34626137.43149 -26955604.74949  18520245.7314   18520249.9564
  22115878.294     2029492.48649   1838677.94849  22115878.6764   22115881.6704
  19669025.711   -24584288.47149 -19144631.71449  19669025.8774   19669030.1164
  17998938.084   -31296420.98649 -24376054.16949  17998938.0644   17998941.6144
  19070695.058   -25871983.02849 -20127446.19449  19070694.6334   19070698.9294
  21061290.889   -15352676.56249 -11935496.58249  21061290.2324   21061293.4484
  21888740.094    -7055737.54149  -5466444.33749  21888740.9504   21888745.9784
 97  3 14  4 55 29.9910000  0  7 17 30 26  6 23 22 21
  18509411.662   -34683073.89949 -26999970.82849  18509410.8424   18509414.9654
  22129736.136     2102315.33649   1895423.06649  22129736.4924   22129739.4974
  19660748.517   -24627785.18549 -19178525.24449  19660748.2474   19660752.1184
  17999899.944   -31291366.31449 -24372115.48049  17999899.5594   17999903.8124
  19053881.801   -25960337.02449 -20196293.45549  19053881.0434   19053885.5304
  21052423.924   -15399272.86849 -11971805.40749  21052423.0914   21052426.5484
  21865618.744    -7177244.38149  -5561124.97649  21865618.6174   21865623.0754
 97  3 14  4 55 59.9910000  0  7 17 30 26  6 23 22 21
  18498609.871   -34739837.88749 -27044202.50649  18498608.9594   18498613.1794
  22143583.282     2175082.31149   1952124.62249  22143583.6964   22143586.8074
  19652580.752   -24670706.40049 -19211970.33749  19652580.7614   19652583.9774
  18000954.890   -31285822.23849 -24367795.43149  18000954.7684   18000958.7114
  19037138.421   -26048323.97349 -20264854.69449  19037137.9344   19037142.6564
  21043654.709   -15445355.57149 -12007714.01549  21043653.4124   21043658.1104
  21842530.765    -7298572.77249  -5655666.57149  21842530.0414   21842534.9904
 97  3 14  4 56 29.9910000  0  7 17 30 26  6 23 22 21
  18487846.670   -34796398.51849 -27088275.72849  18487846.0514   18487850.3334
  22157423.272     2247811.68049   2008796.82149  22157422.2064   22157427.6924
  19644521.507   -24713058.11049 -19244971.66349  19644521.4114   19644525.1144
  18002106.651   -31279769.69449 -24363079.17749  18002106.4814   18002110.2494
  19020468.022   -26135927.63349 -20333117.27149  19020467.5244   19020471.5734
  21034985.542   -15490911.57249 -12043212.20049  21034984.6734   21034987.2424
  21819478.689    -7419712.30749  -5750061.03149  21819478.6694   21819482.7814
 97  3 14  4 56 59.9910000  0  7 17 30 26  6 23 22 21
  18477118.837   -34852773.57549 -27132204.33849  18477118.2174   18477122.0794
  22171252.293     2320485.80049   2065425.97849  22171252.7414   22171256.0004
  19636569.979   -24754843.69049 -19277531.84149  19636570.1054   19636574.0524
  18003356.505   -31273201.52349 -24357961.13549  18003356.4364   18003360.2034
  19003872.548   -26223137.29949 -20401072.83449  19003872.0634   19003876.2824
  21026418.686   -15535930.52249 -12078291.91049  21026418.0744   21026422.9924
  21796458.531    -7540683.90549  -5844324.62249  21796458.0564   21796463.1584
 97  3 14  4 57 29.9910000  0  7 17 30 26  6 23 22 21
  18466421.859   -34908986.25649 -27176006.41649  18466421.2634   18466425.3634
  22185063.946     2393066.75149   2121982.54749  22185064.7194   22185067.9294
  19628722.028   -24796084.94849 -19309667.89049  19628722.6484   19628725.3884
  18004702.272   -31266129.66049 -24352450.59849  18004702.2644   18004705.9944
  18987347.687   -26309976.11549 -20468739.42749  18987346.9934   18987351.5284
  21017949.771   -15580434.28449 -12112970.18749  21017949.1774   21017953.4724
  21773463.064    -7661526.78149  -5938487.88949  21773462.8954   21773468.0394
 97  3 14  4 57 59.9910000  0  7 17 30 26  6 23 22 21
  18455748.362   -34965076.04349 -27219712.73449  18455747.6624   18455751.7544
  22198845.048     2465485.78649   2178412.96349  22198846.6284   22198849.5574
  19620968.126   -24836832.24049 -19341419.03249  19620968.0964   19620971.9094
  18006134.334   -31258604.52149 -24346586.86149  18006134.2534   18006138.1024
  18970881.651   -26396505.49549 -20536164.90949  18970880.8324   18970885.5704
  21009566.742   -15624487.02749 -12147297.01349  21009566.0504   21009570.6354
  21750480.801    -7782300.21749  -6032597.03749  21750480.0264   21750484.4534
 97  3 14  4 58 29.9910000  0  7 17 30 26  6 23 22 21
  18445114.584   -35020956.97449 -27263256.29549  18445113.9634   18445118.1774
  22212607.638     2537809.92949   2234769.42749  22212607.3724   22212610.9374
  19613324.499   -24876999.85649 -19372718.46249  19613324.4684   19613328.1564
  18007671.688   -31250525.57249 -24340291.58749  18007671.4384   18007675.3494
  18954494.868   -26482617.97649 -20603265.52849  18954494.1174   18954498.6894
  21001285.096   -15668007.98849 -12181209.46549  21001284.1044   21001287.8914
  21727529.156    -7902911.41349  -6126579.80049  21727528.0354   21727533.8334
 97  3 14  4 58 59.9910000  0  7 17 30 26  6 23 22 21
  18434523.015   -35076616.38449 -27306627.26149  18434522.2964   18434526.4804
  22226356.228     2610060.83849   2291068.86649  22226355.6744   22226359.1064
  19605796.803   -24916558.42949 -19403543.31649  19605797.0394   19605800.3294
  18009315.980   -31241884.71449 -24333558.46349  18009315.5904   18009319.6424
  18938190.839   -26568295.71349 -20670027.38749  18938190.4144   18938194.5794
  20993108.641   -15710975.92149 -12214691.00049  20993108.2544   20993110.2054
  21704615.864    -8023319.61449  -6220404.35349  21704614.2984   21704620.2384
 97  3 14  4 59 29.9910000  0  7 17 30 26  6 23 22 21
  18423967.963   -35132083.38049 -27349848.29549  18423967.2634   18423971.2974
  22240084.871     2682205.86849   2347285.71249  22240085.3294   22240088.1964
  19598377.703   -24955545.86949 -19433923.12349  19598377.3264   19598381.2664
  18011057.328   -31232733.75549 -24326427.87549  18011057.4744   18011061.1184
  18921961.574   -26653581.83749 -20736484.09149  18921961.3894   18921964.8584
  20985027.359   -15753443.38249 -12247782.53649  20985027.6784   20985029.8584
  21681738.077    -8143541.76849  -6314083.97649  21681737.4064   21681743.8594
 97  3 14  4 59 59.9910000  0  7 17 30 26  6 23 22 21
  18413446.360   -35187374.54949 -27392932.31749  18413445.4174   18413449.7524
  22253792.112     2754235.76349   2403412.90649  22253793.2204   22253795.6274
  19591065.831   -24993969.48149 -19463863.59549  19591066.3774   19591069.0624
  18012891.898   -31223093.78649 -24318916.22949  18012891.9644   18012895.2714
  18905807.359   -26738472.72049 -20802632.81549  18905806.6224   18905810.8634
  20977041.430   -15795409.74249 -12280483.59349  20977039.8874   20977044.7144
  21658897.826    -8263569.02649  -6407611.68549  21658897.1184   21658902.1624
 97  3 14  5  0 29.9910000  0  7 17 30 26  6 23 22 21
  18402963.840   -35242460.33849 -27435856.29749  18402963.1744   18402967.0804
  22267484.442     2826189.67549   2459480.87749  22267484.7114   22267488.2594
  19583868.191   -25031794.27849 -19493337.46049  19583868.6904   19583872.3634
  18014825.711   -31212931.62749 -24310997.67949  18014825.5664   18014829.2124
  18889737.316   -26822920.97349 -20868436.64249  18889736.4284   18889741.3144
  20969158.928   -15836832.22949 -12312760.86549  20969157.9544   20969163.3964
  21636101.330    -8383364.77249  -6500959.01449  21636100.8094   21636106.2134
 97  3 14  5  0 59.9910000  0  7 17 30 26  6 23 22 21
  18392515.121   -35297369.20849 -27478642.42149  18392514.6574   18392518.5334
  22281158.249     2898045.65749   2515472.54949  22281158.2454   22281161.7924
  19576782.028   -25069031.86849 -19522353.75049  19576781.6864   19576785.8564
  18016853.097   -31202277.10249 -24302695.45749  18016852.8824   18016856.9904
  18873744.674   -26906962.32649 -20933923.40149  18873744.2394   18873748.9254
  20961376.024   -15877731.65949 -12344630.57249  20961375.5524   20961378.9684
  21613344.113    -8502955.96749  -6594146.94449  21613343.3844   21613347.8254
 97  3 14  5  1 29.9910000  0  6 17 26  6 23 22 21
  18382090.273   -35352151.99549 -27521330.31349  18382089.4944   18382094.0514
  19569797.167   -25105737.04149 -19550955.18449  19569797.3614   19569801.1514
  18018965.209   -31191178.00549 -24294046.81949  18018965.2804   18018969.0264
  18857821.222   -26990640.73649 -20999127.34349  18857820.9124   18857825.2954
  20953682.795   -15918159.08949 -12376132.49549  20953682.2784   20953686.4794
  21590610.854    -8622419.32749  -6687235.26449  21590609.6124   21590615.3824
 97  3 14  5  1 59.9910000  0  6 17 26  6 23 22 21
  18371666.851   -35406927.49749 -27564012.51249  18371666.4004   18371670.1504
  19562892.163   -25142022.77849 -19579229.78449  19562892.3914   19562896.3004
  18021140.752   -31179745.67649 -24285138.52349  18021140.7844   18021144.3024
  18841943.957   -27074076.73649 -21064142.39649  18841943.6944   18841947.8964
  20946058.602   -15958225.04449 -12407352.73649  20946057.8064   20946061.9894
  21567877.640    -8741881.24349  -6780322.46949  21567876.7104   21567881.7664
 97  3 14  5  2 29.9910000  0  6 17 26  6 23 22 21
  18361301.622   -35461397.09849 -27606456.34349  18361301.0164   18361305.0634
  19556124.738   -25177585.12949 -19606940.69849  19556124.7574   19556128.5984
  18023435.656   -31167686.15349 -24275741.50749  18023435.7554   18023439.5704
  18826165.021   -27156995.94249 -21128754.74949  18826164.8074   18826168.8014
  20938556.656   -15997648.18949 -12438072.06749  20938555.8294   20938560.2514
  21545200.185    -8861052.22449  -6873182.97649  21545199.3894   21545205.5834
 97  3 14  5  2 59.9910000  0  6 17 26  6 23 22 21
  18350975.704   -35515660.38949 -27648739.42049  18350974.9044   18350978.7314
  19549477.462   -25212516.99549 -19634160.32149  19549477.4584   19549481.3014
  18025829.938   -31155104.29149 -24265937.47149  18025829.8684   18025833.4604
  18810463.217   -27239509.83349 -21193051.26949  18810462.6684   18810466.8084
  20931158.391   -16036526.85949 -12468367.13249  20931157.1914   20931162.0684
  21522558.802    -8980033.89349  -6965895.94249  21522558.0434   21522563.5514
 97  3 14  5  3 29.9910000  0  6 17 26  6 23 22 21
  18340692.976   -35569696.22049 -27690845.25349  18340692.3534   18340696.0844
  19542951.055   -25246813.34349 -19660884.74049  19542951.1564   19542955.1924
  18028325.451   -31141990.34149 -24255718.81949  18028325.3104   18028328.8434
  18794838.449   -27321618.31349 -21257031.88849  18794837.7254   18794842.1414
  20923864.732   -16074855.40249 -12498233.54549  20923864.0804   20923867.8504
  21499957.951    -9098803.50149  -7058443.70849  21499957.5294   21499962.3064
 97  3 14  5  3 59.9910000  0  6 17 26  6 23 22 21
  18330454.193   -35623501.58249 -27732771.50649  18330453.6614   18330457.7684
  19536548.933   -25280456.70149 -19687100.33449  19536549.4484   19536553.5014
  18030922.521   -31128342.60049 -24245084.23549  18030922.6524   18030926.0424
  18779289.352   -27403328.90549 -21320702.45749  18779288.6894   18779293.4674
  20916677.071   -16112627.18149 -12527666.11449  20916676.3164   20916680.8094
  21477402.820    -9217330.98349  -7150802.78549  21477400.8454   21477408.0284
 97  3 14  5  4 29.9910000  0  6 17 26  6 23 22 21
  18320253.051   -35677108.98349 -27774543.49249  18320252.4734   18320256.2724
  19530263.662   -25313487.10349 -19712838.29749  19530264.0304   19530267.2804
  18033614.043   -31114198.40949 -24234062.79549  18033613.7394   18033617.7714
  18763810.964   -27484667.98449 -21384083.53049  18763810.4344   18763814.8804
  20909588.945   -16149875.62949 -12556690.91149  20909588.0834   20909591.4774
  21454888.137    -9335645.28349  -7242995.75549  21454888.6504   21454893.9654
 97  3 14  5  4 59.9910000  0  6 17 26  6 23 22 21
  18310085.286   -35730540.79149 -27816178.65549  18310084.6824   18310088.4424
  19524087.323   -25345943.71149 -19738129.15849  19524087.7354   19524091.2434
  18036394.437   -31099587.19449 -24222677.46349  18036394.3144   18036398.3174
  18748402.492   -27565640.17949 -21447178.71849  18748401.7324   18748406.3264
  20902598.717   -16186609.17849 -12585314.47149  20902597.9734   20902601.8034
  21432411.780    -9453760.58849  -7335033.65149  21432411.5604   21432415.4504
 97  3 14  5  5 29.9910000  0  6 17 26  6 23 22 21
  18299956.376   -35783768.21149 -27857654.55249  18299955.7144   18299959.6144
  19518022.286   -25377816.42249 -19762965.03049  19518023.0244   19518025.9734
  18039268.526   -31084484.04349 -24210908.79349  18039268.6344   18039272.0564
  18733069.997   -27646212.47949 -21509962.31049  18733069.8964   18733073.8004
  20895710.762   -16222805.00049 -12613519.02549  20895709.7614   20895713.9744
  21409980.371    -9571638.44249  -7426886.50649  21409979.6204   21409984.8464
 97  3 14  5  5 59.9910000  0  6 17 26  6 23 22 21
  18289859.133   -35836829.64249 -27899001.11349  18289858.4944   18289862.4394
  19512060.077   -25409148.71749 -19787379.79749  19512060.1524   19512063.4024
  18042229.060   -31068926.36349 -24198785.93449  18042229.0854   18042232.4864
  18717810.602   -27726401.37649 -21572447.14849  18717810.0104   18717814.3054
  20888919.637   -16258492.47349 -12641327.46549  20888919.6424   20888923.2434
  21387582.192    -9689341.11749  -7518602.87949  21387581.8254   21387586.8494
 97  3 14  5  6 29.9910000  0  6 17 26  6 23 22 21
  18279795.069   -35889716.83049 -27940211.92049  18279794.5224   18279798.4344
  19506199.478   -25439946.32649 -19811377.93249  19506199.9294   19506203.4634
  18045278.561   -31052901.60849 -24186299.11849  18045278.6344   18045282.0464
  18702626.882   -27806192.12849 -21634621.75449  18702626.5714   18702630.8834
  20882224.750   -16293674.62849 -12668742.14349  20882224.1074   20882228.7024
  21365213.544    -9806887.85449  -7610197.75149  21365212.4514   21365218.8254
 97  3 14  5  6 59.9910000  0  6 17 26  6 23 22 21
  18269769.624   -35942401.22749 -27981264.70649  18269769.4024   18269772.8814
  19500447.768   -25470171.59449 -19834930.07849  19500448.0514   19500450.9704
  18048423.424   -31036375.31749 -24173421.49449  18048423.3074   18048426.6734
  18687524.256   -27885557.15549 -21696464.61949  18687523.8664   18687527.8054
  20875629.496   -16328333.04549 -12695748.72749  20875629.1534   20875632.4674
  21342881.469    -9924243.67749  -7701643.83349  21342881.6014   21342887.1254
 97  3 14  5  7 29.9910000  0  6 17 26  6 23 22 21
  18259776.241   -35994917.11549 -28022186.17549  18259775.6104   18259779.3234
  19494802.025   -25499839.65549 -19858048.04749  19494801.5804   19494805.6354
  18051660.199   -31019366.15249 -24160167.60449  18051660.0464   18051664.0044
  18672494.497   -27964539.10449 -21758008.97949  18672494.1614   18672498.2034
  20869124.179   -16362518.79149 -12722386.96949  20869123.8364   20869128.7054
  21320577.886   -10041450.51149  -7792973.79849  21320577.3114   21320582.1684
 97  3 14  5  7 59.9910000  0  6 17 26  6 23 22 21
  18249823.837   -36047217.18249 -28062939.47049  18249823.2504   18249826.8894
  19489274.367   -25528887.00049 -19880682.33949  19489274.8764   19489278.0474
  18054999.213   -31001818.97549 -24146494.50149  18054999.2244   18055002.8204
  18657544.541   -28043101.68549 -21819226.55449  18657543.9614   18657548.4654
  20862715.503   -16396197.00849 -12748629.74949  20862715.1134   20862718.2504
  21298308.951   -10158475.01249  -7884161.72449  21298308.6384   21298313.7064
 97  3 14  5  8 29.9910000  0  6 17 26  6 23 22 21
  18239905.467   -36099338.84149 -28103553.75149  18239905.0964   18239908.5294
  19483860.540   -25557337.64849 -19902851.67149  19483859.9644   19483863.9914
  18058434.722   -30983765.32649 -24132426.72749  18058434.5164   18058438.4564
  18642665.531   -28121291.18349 -21880153.42649  18642665.0524   18642669.6454
  20856394.466   -16429414.80649 -12774513.75849  20856393.8394   20856398.1834
  21276074.926   -10275315.56149  -7975206.30849  21276074.4704   21276080.0104
 97  3 14  5  8 59.9910000  0  6 17 26  6 23 22 21
  18230003.364   -36151374.68549 -28144101.16849  18230002.6224   18230006.8514
  19478542.852   -25585281.51649 -19924626.10349  19478542.7254   19478546.6754
  18061947.077   -30965307.63149 -24118044.12249  18061946.8544   18061950.6334
  18627838.890   -28199205.35449 -21940865.74949  18627838.1864   18627842.9624
  20850144.863   -16462257.38449 -12800105.39349  20850143.9164   20850148.3464
  21253861.326   -10392048.62749  -8066167.13549  21253861.3784   21253866.7004
 97  3 14  5  9 29.9910000  0  6 17 26  6 23 22 21
  18220138.541   -36203213.88549 -28184495.34449  18220137.9814   18220141.8144
  19473340.012   -25612622.36249 -19945930.64949  19473340.1574   19473343.6274
  18065556.499   -30946339.90049 -24103264.08549  18065556.0564   18065560.2004
  18613084.481   -28276739.32249 -22001281.80949  18613083.6904   18613088.4194
  20843988.429   -16494609.64149 -12825314.95749  20843987.5284   20843991.7584
  21231686.137   -10508579.95049  -8156970.75149  21231686.2394   21231690.0304
 97  3 14  5  9 59.9910000  0  6 17 26  6 23 22 21
  18210305.243   -36254888.35549 -28224761.17049  18210304.5784   18210308.2904
  19468244.269   -25639400.73149 -19966796.89049  19468244.1054   19468248.1014
  18069254.636   -30926905.90749 -24088120.73249  18069254.6554   18069258.5064
  18598396.523   -28353924.93249 -22061426.42249  18598396.1084   18598400.6194
  20837920.145   -16526498.53449 -12850163.47149  20837919.6384   20837923.1254
  21209543.119   -10624942.98949  -8247643.21349  21209543.6284   21209547.8224
 97  3 14  5 10 29.9910000  0  6 17 26  6 23 22 21
  18200526.298   -36306277.10549 -28264804.35949  18200525.4384   18200529.6524
  19463278.888   -25665493.53849 -19987128.94049  19463279.3324   19463282.6464
  18073065.195   -30906881.54349 -24072517.33949  18073065.1074   18073068.8714
  18583804.153   -28430608.95649 -22121180.19449  18583803.8304   18583807.8794
  20831967.898   -16557778.61249 -12874537.56749  20831967.1994   20831971.7214
  21187457.864   -10741002.80249  -8338079.42949  21187457.9784   21187462.2924
 97  3 14  5 10 59.9910000  0  6 17 26  6 23 22 21
  18190787.052   -36357456.92149 -28304684.73449  18190786.5904   18190790.5654
  19458427.653   -25690986.73149 -20006993.76949  19458427.8514   19458430.9804
  18076970.666   -30886358.56049 -24056525.42849  18076970.5344   18076974.4374
  18569295.171   -28506854.42249 -22180592.22649  18569294.5054   18569298.9664
  20826118.980   -16588515.66749 -12898488.51749  20826118.7884   20826121.7874
  21165411.644   -10856856.29249  -8428354.86049  21165410.8814   21165416.8034
 97  3 14  5 11 29.9910000  0  6 17 26  6 23 22 21
  18181078.534   -36408475.39849 -28344439.38749  18181078.0524   18181082.1404
  19453682.530   -25715922.76749 -20026424.43549  19453682.7664   19453686.1744
  18080962.565   -30865380.53849 -24040178.94249  18080962.3604   18080966.3744
  18554861.086   -28582705.43049 -22239696.88849  18554860.4274   18554864.8394
  20820364.187   -16618756.61849 -12922052.91649  20820363.8824   20820367.7244
  21143396.562   -10972545.17549  -8518502.02349  21143397.0014   21143401.4624
 97  3 14  5 11 59.9910000  0  6 17 26  6 23 22 21
  18171409.963   -36459284.30249 -28384030.73549  18171409.5054   18171413.3054
  19449054.445   -25740243.78149 -20045375.87249  19449054.8404   19449058.3504
  18085049.721   -30843902.29749 -24023442.67249  18085049.7914   18085053.7964
  18540512.679   -28658106.15749 -22298450.68349  18540511.8514   18540516.4494
  20814714.668   -16648444.60649 -12945186.43549  20814713.9334   20814718.2704
  21121426.378   -11088000.57149  -8608467.24949  21121425.5714   21121430.7184
 97  3 14  5 12 29.9910000  0  6 17 26  6 23 22 21
  18161744.847   -36510074.86649 -28423607.78549  18161744.2264   18161748.2284
  19444507.406   -25764138.96549 -20063995.48849  19444507.4984   19444510.9274
  18089195.593   -30822115.83949 -24006466.23649  18089195.5314   18089199.2004
  18526213.564   -28733248.51449 -22357003.15549  18526213.1604   18526217.5034
  20809133.544   -16677773.38049 -12968040.05149  20809131.7084   20809135.7014
  21099465.119   -11203406.14049  -8698393.65649  21099464.3054   21099469.2374
 97  3 14  5 12 59.9910000  0  6 17 26  6 23 22 21
  18152124.856   -36560627.95849 -28462999.79849  18152124.5764   18152128.3444
  19440083.282   -25787387.52549 -20082111.24949  19440082.9214   19440086.9454
  18093439.711   -30799812.90349 -23989087.36349  18093439.6324   18093443.4644
  18511998.445   -28807949.64449 -22415211.82749  18511998.0504   18512002.0904
  20803659.884   -16706537.62249 -12990453.77149  20803659.2664   20803664.1874
  21077553.981   -11318549.31449  -8788115.58249  21077553.2834   21077558.9464
 97  3 14  5 13 29.9910000  0  6 17 26  6 23 22 21
  18142531.644   -36611040.83949 -28502282.56049  18142530.9474   18142534.8604
  19435766.106   -25810074.45749 -20099789.36949  19435766.3594   19435769.9204
  18097768.731   -30777063.92349 -23971360.88949  18097768.5164   18097772.1344
  18497846.794   -28882317.11949 -22473160.50149  18497846.4974   18497850.5604
  20798274.465   -16734838.70249 -13012506.57849  20798274.0054   20798277.9054
  21055675.075   -11433523.03149  -8877705.46449  21055674.1604   21055679.9624
 97  3 14  5 13 59.9910000  0  6 17 26  6 23 22 21
  18132979.821   -36661235.84549 -28541395.55449  18132979.4404   18132983.0934
  19431573.478   -25832106.86749 -20116957.47349  19431573.3424   19431577.6614
  18102198.970   -30753782.76949 -23953219.74949  18102198.8194   18102202.9164
  18483775.685   -28956261.28249 -22530779.31949  18483775.1694   18483779.4624
  20792991.914   -16762599.19649 -13034138.13349  20792991.2424   20792995.3734
  21033843.225   -11548250.14549  -8967103.19949  21033842.1644   21033848.2054
 97  3 14  5 14 29.9910000  0  6 17 26  6 23 22 21
  18123463.037   -36711247.15649 -28580365.40749  18123462.4384   18123466.3024
  19427502.147   -25853501.54549 -20133628.64149  19427502.4004   19427505.7774
  18106724.896   -30729998.81449 -23934686.81149  18106724.9954   18106728.7344
  18469778.939   -29029814.65749 -22588093.62449  18469778.4584   18469782.6974
  20787807.383   -16789844.82049 -13055368.49949  20787807.0514   20787810.6944
  21012050.483   -11662772.07849  -9056341.08249  21012049.7714   21012054.8624
 97  3 14  5 14 59.9910000  0  6 17 26  6 23 22 21
  18113982.119   -36761069.34549 -28619187.89149  18113981.2624   18113985.6374
  19423552.168   -25874259.12849 -20149803.38149  19423552.8444   19423555.9884
  18111347.420   -30705707.39149 -23915758.43349  18111347.6454   18111351.4024
  18455858.325   -29102968.01749 -22645096.22349  18455857.8064   18455862.2914
  20782723.408   -16816561.44449 -13076186.65549  20782721.9414   20782727.1914
  20990295.242   -11777095.54349  -9145424.27449  20990294.8514   20990300.1374
 97  3 14  5 15 29.9910000  0  6 17 26  6 23 22 21
  18104532.360   -36810728.19349 -28657883.09949  18104531.7734   18104535.5074
  19419715.623   -25894421.04349 -20165513.95949  19419716.0104   19419719.4014
  18116059.976   -30680943.03449 -23896461.54549  18116060.1434   18116063.9374
  18442010.657   -29175738.16449 -22701800.21749  18442010.4224   18442014.5554
  20777733.007   -16842786.01849 -13096621.40249  20777731.6564   20777735.8574
  20968570.736   -11891257.32949  -9234381.47649  20968569.0724   20968575.6404
 97  3 14  5 15 59.9910000  0  6 17 26  6 23 22 21
  18095118.230   -36860199.64149 -28696432.27049  18095117.7514   18095121.6434
  19415990.922   -25913994.32849 -20180765.85349  19415991.5394   19415995.1584
  18120859.870   -30655719.67149 -23876806.99749  18120860.0004   18120863.4814
  18428236.592   -29248121.50649 -22758202.80049  18428236.1884   18428240.5344
  20772838.494   -16868507.15049 -13116663.87849  20772837.1844   20772841.1784
  20946878.882   -12005247.99449  -9323205.35449  20946878.0384   20946883.9684
 97  3 14  5 16 29.9910000  0  6 17 26  6 23 22 21
  18085750.815   -36909426.03949 -28734790.49849  18085750.1964   18085754.1044
  19412381.716   -25932960.88549 -20195544.99249  19412381.8884   19412385.6504
  18125754.688   -30629997.35049 -23856763.63949  18125754.6514   18125758.2074
  18414543.952   -29320076.74749 -22814271.80249  18414543.3474   18414547.7454
  20768049.615   -16893673.06949 -13136273.70249  20768049.0194   20768052.4574
  20925228.767   -12119018.04449  -9411857.32249  20925228.1664   20925234.6254
 97  3 14  5 16 59.9910000  0  6 17 26  6 23 22 21
  18076432.660   -36958393.19849 -28772946.71449  18076432.1364   18076435.7694
  19408885.784   -25951332.21649 -20209860.31249  19408885.7684   19408889.7694
  18130748.032   -30603757.44949 -23836316.98249  18130747.9344   18130751.5364
  18400935.602   -29391588.85449 -22869995.50649  18400935.0484   18400939.3794
  20763364.513   -16918293.61549 -13155458.56249  20763363.3534   20763367.4604
  20903625.326   -12232544.04449  -9500319.12949  20903625.7814   20903632.2884
 97  3 14  5 17 29.9900000  0  6 17 26  6 23 22 21
  18067154.082   -37007152.65049 -28810941.08549  18067153.4404   18067157.1524
  19405495.225   -25969149.51749 -20223743.91449  19405494.9354   19405498.8784
  18135830.918   -30577046.49449 -23815503.26749  18135830.5864   18135834.3524
  18387402.208   -29462706.73149 -22925412.01249  18387401.5474   18387406.0464
  20758771.686   -16942428.22349 -13174264.75649  20758770.8324   20758776.0604
  20882065.815   -12345839.89949  -9588601.60249  20882065.9374   20882071.5404
 97  3 14  5 17 59.9900000  0  6 17 26  6 23 22 21
  18057893.787   -37055815.79349 -28848860.41849  18057893.3014   18057896.9364
  19402194.718   -25986493.63049 -20237258.80049  19402194.7004   19402198.3654
  18140988.189   -30549944.75149 -23794385.04049  18140988.2454   18140991.8074
  18373925.646   -29533526.03049 -22980595.87049  18373925.2164   18373929.3444
  20754254.972   -16966163.76049 -13192759.98649  20754254.2794   20754258.4614
  20860535.615   -12458984.09849  -9676765.90649  20860535.6524   20860541.4774
 97  3 14  5 18 29.9900000  0  6 17 26  6 23 22 21
  18048676.007   -37104255.65249 -28886605.75349  18048675.3124   18048679.5324
  19399015.464   -26003200.11949 -20250276.83449  19399015.4314   19399019.2054
  18146248.103   -30522303.86649 -23772846.70649  18146248.3144   18146251.9114
  18360534.978   -29603894.72849 -23035428.60449  18360534.7464   18360538.9734
  20749838.825   -16989370.75649 -13210843.36949  20749838.1264   20749843.2064
  20839063.336   -12571822.98949  -9764692.29549  20839064.0664   20839068.5594
 97  3 14  5 18 59.9900000  0  6 17 26  6 23 22 21
  18039494.122   -37152507.02449 -28924204.23149  18039493.4794   18039496.7574
  19395954.709   -26019284.30449 -20262809.97249  19395955.3304   19395958.3694
  18151605.276   -30494152.18749 -23750910.34349  18151605.5154   18151608.8404
  18347221.587   -29673857.40449 -23089944.95949  18347221.3234   18347225.0044
  20745514.657   -17012093.76949 -13228549.62949  20745514.6094   20745516.5874
  20817642.233   -12684392.38249  -9852408.70149  20817641.6774   20817647.2224
 97  3 14  5 19 29.9900000  0  6 17 26  6 23 22 21
  18030347.375   -37200573.35149 -28961658.51449  18030346.7814   18030350.5474
  19393012.509   -26034745.56049 -20274857.69049  19393012.6874   19393016.1264
  18157056.265   -30465507.17849 -23728589.56749  18157056.1924   18157059.9354
  18333981.038   -29743437.16149 -23144162.94449  18333980.6294   18333984.4374
  20741283.045   -17034331.64549 -13245877.85349  20741282.4094   20741285.3074
  20796267.666   -12796716.45549  -9939933.95149  20796267.0744   20796273.0064
 97  3 14  5 19 59.9900000  0  6 17 26  6 23 22 21
  18021234.302   -37248463.03049 -28998975.14149  18021233.6304   18021237.3064
  19390182.895   -26049615.05249 -20286444.30649  19390183.6654   19390186.4184
  18162597.938   -30436384.77549 -23705896.79649  18162597.5854   18162601.7084
  18320811.284   -29812644.20149 -23198090.49849  18320810.6874   18320814.8654
  20737141.550   -17056095.31449 -13262836.57049  20737141.3764   20737145.9974
  20774930.726   -12908842.71249 -10027305.07549  20774930.0354   20774936.1614
